[[{"header":{"parameterUnit":"m.s-1","parameterCategory":1,"la1":31.0,"la2":29.5877,"lo1":-88.7671,"lo2":-86.6584,"dy":0.0162,"dx":0.0185,"nx":115,"ny":88,"refTime":"2023-07-29T06:00:00:Z","depth":0,"parameterNumber":2,"parameterNumberName":"U-component_of_WINDS"},"data":[0.0,0.0,0.0,0.0,0.0,0.0,0.0,0.0,0.0,0.0,0.0,0.0,0.0,0.0,0.0,0.0,0.0,0.0,0.0,0.0,0.0,0.0,0.0,0.0,0.0,0.0,0.0,0.0,0.0,0.0,0.0,0.0,0.0,0.0,0.0,0.0,0.0,0.0,0.0,0.0,0.0,0.0,0.0,0.0,0.0,0.0,0.0,0.0,0.0,0.0,0.0,0.0,0.0,0.0,0.0,0.0,0.0,0.0,0.0,0.0,0.0,0.0,0.0,0.0,0.0,0.0,0.0,0.0,0.0,0.0,0.0,0.0,0.0,0.0,0.0,0.0,0.0,0.0,0.0,0.0,0.0,0.0,0.0,0.0,0.0,0.0,0.0,0.0,0.0,0.0,0.0,0.0,0.0,0.0,0.0,0.0,0.0,0.0,0.0,0.0,0.0,0.0,0.0,0.0,0.0,0.0,0.0,0.0,0.0,0.0,0.0,0.0,0.0,0.0,0.0,0.0,0.0,0.0,0.0,0.0,0.0,0.0,0.0,0.0,0.0,0.0,0.0,0.0,0.0,0.0,0.0,0.0,0.0,0.0,0.0,0.0,0.0,0.0,0.0,0.0,0.0,0.0,0.0,0.0,0.0,0.0,0.0,0.0,0.0,0.0,0.0,0.0,0.0,0.0,0.0,0.0,0.0,0.0,0.0,0.0,0.0,0.0,0.0,0.0,0.0,0.0,0.0,0.0,0.0,0.0,0.0,0.0,0.0,0.0,0.0,0.0,0.0,0.0,0.0,0.0,0.0,0.0,0.0,0.0,0.0,0.0,0.0,0.0,0.0,0.0,0.0,0.0,0.0,0.0,0.0,0.0,0.0,0.0,0.0,0.0,0.0,0.0,0.0,0.0,0.0,0.0,0.0,0.0,0.0,0.0,0.0,0.0,0.0,0.0,0.0,0.0,0.0,0.0,0.0,0.0,0.0,0.0,0.0,0.0,0.0,0.0,0.0,0.0,0.0,0.0,0.0,0.0,0.0,0.0,0.0,0.0,0.0,0.0,0.0,0.0,0.0,0.0,0.0,0.0,0.0,0.0,0.0,0.0,0.0,0.0,0.0,0.0,0.0,0.0,0.0,0.0,0.0,0.0,0.0,0.0,0.0,0.0,0.0,0.0,0.0,0.0,0.0,0.0,0.0,0.0,0.0,0.0,0.0,0.0,0.0,0.0,0.0,0.0,0.0,0.0,0.0,0.0,0.0,0.0,0.0,0.0,0.0,0.0,0.0,0.0,0.0,0.0,0.0,0.0,0.0,0.0,0.0,0.0,0.0,0.0,0.0,0.0,0.0,0.0,0.0,0.0,0.0,0.0,0.0,0.0,0.0,0.0,0.0,0.0,0.0,0.0,0.0,0.0,0.0,0.0,0.0,0.0,0.0,0.0,0.0,0.0,0.0,0.0,0.0,0.0,0.0,0.0,0.0,0.0,0.0,0.0,0.0,0.0,0.0,0.0,0.0,0.0,0.0,0.0,0.0,0.0,0.0,0.0,0.0,0.0,0.0,0.0,0.0,0.0,0.0,0.0,0.0,0.0,0.0,0.0,0.0,0.0,0.0,0.0,0.0,0.0,0.0,0.0,0.0,0.0,0.0,0.0,0.0,0.0,0.0,0.0,0.0,0.0,0.0,0.0,0.0,0.0,0.0,0.0,0.0,0.0,0.0,0.0,0.0,0.0,0.0,0.0,0.0,0.0,0.0,0.0,0.0,0.0,0.0,0.0,0.0,0.0,0.0,0.0,0.0,0.0,0.0,0.0,0.0,0.0,0.0,0.0,0.0,0.0,0.0,0.0,0.0,0.0,0.0,0.0,0.0,0.0,0.0,0.0,0.0,0.0,0.0,0.0,0.0,0.0,0.0,0.0,0.0,0.0,0.0,0.0,0.0,0.0,0.0,0.0,0.0,0.0,0.0,0.0,0.0,0.0,0.0,0.0,0.0,0.0,0.0,0.0,0.0,0.0,0.0,0.0,0.0,0.0,0.0,0.0,0.0,0.0,0.0,0.0,0.0,0.0,0.0,0.0,0.0,0.0,0.0,0.0,0.0,0.0,0.0,0.0,0.0,0.0,0.0,0.0,0.0,0.0,0.0,0.0,0.0,0.0,0.0,0.0,0.0,0.0,0.0,0.0,0.0,0.0,0.0,0.0,0.0,0.0,0.0,0.0,0.0,0.0,0.0,0.0,0.0,0.0,0.0,0.0,0.0,0.0,0.0,0.0,0.0,0.0,0.0,0.0,0.0,0.0,0.0,0.0,0.0,0.0,0.0,0.0,0.0,0.0,0.0,0.0,0.0,0.0,0.0,0.0,0.0,0.0,0.0,0.0,0.0,0.0,0.0,0.0,0.0,0.0,0.0,0.0,0.0,0.0,0.0,0.0,0.0,0.0,0.0,0.0,0.0,0.0,0.0,0.0,0.0,0.0,0.0,0.0,0.0,0.0,0.0,0.0,0.0,0.0,0.0,0.0,0.0,0.0,0.0,0.0,0.0,0.0,0.0,0.0,0.0,0.0,0.0,0.0,0.0,0.0,0.0,0.0,0.0,0.0,0.0,0.0,0.0,0.0,0.0,0.0,0.0,0.0,0.0,0.0,0.0,0.0,0.0,0.0,0.0,0.0,0.0,0.0,0.0,0.0,0.0,0.0,0.0,0.0,0.0,0.0,0.0,0.0,0.0,0.0,0.0,0.0,0.0,0.0,0.0,0.0,0.0,0.0,0.0,0.0,0.0,0.0,0.0,0.0,0.0,0.0,0.0,0.0,0.0,0.0,0.0,0.0,0.0,0.0,0.0,0.0,0.0,0.0,0.0,0.0,0.0,0.0,0.0,0.0,0.0,0.0,0.0,0.0,0.0,0.0,0.0,0.0,0.0,0.0,0.0,0.0,0.0,0.0,0.0,0.0,0.0,0.0,0.0,0.0,0.0,0.0,0.0,0.0,0.0,0.0,0.0,0.0,0.0,0.0,0.0,0.0,0.0,0.0,0.0,0.0,0.0,0.0,0.0,0.0,0.0,0.0,0.0,0.0,0.0,0.0,0.0,0.0,0.0,0.0,0.0,0.0,0.0,0.0,0.0,0.0,0.0,0.0,0.0,0.0,0.0,0.0,0.0,0.0,0.0,0.0,0.0,0.0,0.0,0.0,0.0,0.0,0.0,0.0,0.0,0.0,0.0,0.0,0.0,0.0,0.0,0.0,0.0,0.0,0.0,0.0,0.0,0.0,0.0,0.0,0.0,0.0,0.0,0.0,0.0,0.0,0.0,0.0,0.0,0.0,0.0,0.0,0.0,0.0,0.0,0.0,0.0,0.0,0.0,0.0,0.0,0.0,0.0,0.0,0.0,0.0,0.0,0.0,0.0,0.0,0.0,0.0,0.0,0.0,0.0,0.0,0.0,0.0,0.0,0.0,0.0,0.0,0.0,0.0,0.0,0.0,0.0,0.0,0.0,0.0,0.0,0.0,0.0,0.0,0.0,0.0,0.0,0.0,0.0,0.0,0.0,0.0,0.0,0.0,0.0,0.0,0.0,0.0,0.0,0.0,0.0,0.0,0.0,0.0,0.0,0.0,0.0,0.0,0.0,0.0,0.0,0.0,0.0,0.0,0.0,0.0,0.0,0.0,0.0,0.0,0.0,0.0,0.0,0.0,0.0,0.0,0.0,0.0,0.0,0.0,0.0,0.0,0.0,0.0,0.0,0.0,0.0,0.0,0.0,0.0,0.0,0.0,0.0,0.0,0.0,0.0,0.0,0.0,0.0,0.0,0.0,0.0,0.0,0.0,0.0,0.0,0.0,0.0,0.0,0.0,0.0,0.0,0.0,0.0,0.0,0.0,0.0,0.0,0.0,0.0,0.0,0.0,0.0,0.0,0.0,0.0,0.0,0.0,0.0,0.0,0.0,0.0,0.0,0.0,0.0,0.0,0.0,0.0,0.0,0.0,0.0,0.0,0.0,0.0,0.0,0.0,0.0,0.0,0.0,0.0,0.0,0.0,0.0,0.0,0.0,0.0,0.0,0.0,0.0,0.0,0.0,0.0,0.0,0.0,0.0,0.0,0.0,0.0,0.0,0.0,0.0,0.0,0.0,0.0,0.0,0.0,0.0,0.0,0.0,0.0,0.0,0.0,0.0,0.0,0.0,0.0,0.0,0.0,0.0,0.0,0.0,0.0,0.0,0.0,0.0,0.0,0.0,0.0,0.0,0.0,0.0,0.0,0.0,0.0,0.0,0.0,-3.3415,0.0,0.0,0.0,0.0,0.0,0.0,0.0,0.0,0.0,0.0,0.0,0.0,0.0,0.0,0.0,0.0,0.0,0.0,0.0,0.0,0.0,0.0,0.0,0.0,0.0,0.0,0.0,0.0,0.0,0.0,0.0,0.0,0.0,0.0,0.0,0.0,0.0,0.0,0.0,0.0,0.0,0.0,0.0,0.0,0.0,0.0,0.0,0.0,0.0,0.0,0.0,0.0,0.0,0.0,0.0,0.0,0.0,0.0,0.0,0.0,0.0,0.0,0.0,0.0,0.0,0.0,0.0,0.0,0.0,0.0,0.0,0.0,0.0,0.0,0.0,0.0,0.0,0.0,0.0,0.0,0.0,0.0,0.0,0.0,0.0,0.0,0.0,0.0,0.0,0.0,0.0,0.0,0.0,0.0,0.0,0.0,0.0,0.0,0.0,0.0,0.0,0.0,0.0,0.0,0.0,0.0,0.0,0.0,0.0,0.0,-3.3743,-3.3541,-3.3541,-3.3597,-3.3726,0.0,0.0,0.0,0.0,0.0,0.0,0.0,0.0,0.0,0.0,0.0,0.0,0.0,0.0,0.0,0.0,0.0,0.0,0.0,0.0,0.0,0.0,0.0,0.0,0.0,0.0,0.0,0.0,0.0,0.0,0.0,0.0,0.0,0.0,0.0,0.0,0.0,0.0,0.0,0.0,0.0,0.0,0.0,0.0,0.0,0.0,0.0,0.0,0.0,0.0,0.0,0.0,0.0,0.0,0.0,0.0,0.0,0.0,0.0,0.0,0.0,0.0,0.0,0.0,0.0,0.0,0.0,0.0,0.0,0.0,0.0,0.0,0.0,0.0,0.0,0.0,0.0,0.0,0.0,0.0,0.0,0.0,0.0,0.0,0.0,0.0,0.0,0.0,0.0,0.0,0.0,0.0,0.0,0.0,0.0,0.0,0.0,0.0,0.0,0.0,0.0,0.0,0.0,0.0,0.0,0.0,0.0,0.0,0.0,0.0,0.0,0.0,-3.3842,-3.3868,-3.3921,0.0,0.0,0.0,0.0,0.0,0.0,0.0,0.0,0.0,0.0,0.0,0.0,0.0,0.0,0.0,0.0,0.0,0.0,0.0,0.0,0.0,0.0,0.0,0.0,0.0,0.0,0.0,0.0,0.0,0.0,0.0,0.0,0.0,0.0,0.0,0.0,0.0,0.0,0.0,0.0,0.0,0.0,0.0,0.0,0.0,0.0,0.0,0.0,0.0,0.0,0.0,0.0,0.0,0.0,0.0,0.0,0.0,0.0,0.0,0.0,0.0,0.0,0.0,0.0,0.0,0.0,0.0,0.0,0.0,0.0,0.0,0.0,0.0,0.0,0.0,0.0,0.0,0.0,0.0,0.0,0.0,0.0,0.0,0.0,0.0,0.0,0.0,0.0,0.0,0.0,0.0,0.0,0.0,0.0,0.0,0.0,0.0,0.0,0.0,0.0,0.0,0.0,0.0,0.0,0.0,0.0,0.0,0.0,0.0,0.0,-3.4129,-3.4074,-3.4023,0.0,-3.3998,0.0,0.0,0.0,0.0,0.0,0.0,0.0,0.0,0.0,0.0,0.0,0.0,0.0,0.0,0.0,0.0,0.0,0.0,0.0,0.0,0.0,0.0,0.0,0.0,0.0,0.0,0.0,0.0,0.0,0.0,0.0,0.0,0.0,0.0,0.0,0.0,0.0,0.0,0.0,0.0,0.0,0.0,0.0,0.0,0.0,0.0,0.0,0.0,0.0,0.0,0.0,0.0,0.0,0.0,0.0,0.0,0.0,0.0,0.0,0.0,0.0,0.0,0.0,0.0,0.0,0.0,0.0,0.0,0.0,0.0,0.0,0.0,0.0,0.0,0.0,0.0,0.0,0.0,0.0,0.0,0.0,0.0,0.0,0.0,0.0,0.0,0.0,0.0,0.0,0.0,0.0,0.0,0.0,0.0,0.0,0.0,0.0,0.0,0.0,0.0,0.0,0.0,0.0,0.0,0.0,0.0,0.0,0.0,0.0,0.0,-3.4288,-3.4288,-3.4245,-3.4221,0.0,0.0,0.0,0.0,0.0,0.0,0.0,0.0,0.0,0.0,0.0,0.0,0.0,0.0,0.0,0.0,0.0,0.0,0.0,0.0,0.0,0.0,0.0,0.0,0.0,0.0,0.0,0.0,0.0,0.0,0.0,0.0,0.0,0.0,0.0,0.0,0.0,0.0,0.0,0.0,0.0,0.0,0.0,0.0,0.0,0.0,0.0,0.0,0.0,0.0,0.0,0.0,0.0,0.0,0.0,0.0,0.0,0.0,0.0,0.0,0.0,0.0,0.0,0.0,0.0,0.0,0.0,0.0,0.0,0.0,0.0,0.0,0.0,0.0,0.0,0.0,0.0,0.0,0.0,0.0,0.0,0.0,0.0,0.0,0.0,0.0,0.0,0.0,0.0,0.0,0.0,0.0,0.0,0.0,0.0,0.0,0.0,0.0,0.0,0.0,0.0,0.0,0.0,0.0,0.0,0.0,0.0,0.0,0.0,0.0,-3.4536,-3.4491,-3.4454,-3.4473,-3.4431,-3.4386,0.0,0.0,0.0,0.0,0.0,0.0,0.0,0.0,0.0,0.0,0.0,0.0,0.0,0.0,0.0,0.0,0.0,0.0,0.0,0.0,0.0,0.0,0.0,0.0,0.0,0.0,0.0,0.0,0.0,0.0,0.0,0.0,0.0,0.0,0.0,0.0,0.0,0.0,0.0,0.0,0.0,0.0,0.0,0.0,0.0,0.0,0.0,0.0,0.0,0.0,0.0,0.0,0.0,0.0,0.0,0.0,0.0,0.0,0.0,0.0,0.0,0.0,0.0,0.0,0.0,0.0,0.0,0.0,0.0,0.0,0.0,0.0,0.0,0.0,0.0,0.0,0.0,0.0,0.0,0.0,0.0,0.0,0.0,0.0,0.0,0.0,0.0,0.0,0.0,0.0,0.0,0.0,0.0,0.0,0.0,0.0,0.0,0.0,0.0,0.0,0.0,0.0,0.0,0.0,0.0,0.0,0.0,0.0,-3.4687,-3.4743,-3.4722,-3.4583,-3.4626,-3.4666,0.0,0.0,0.0,0.0,0.0,0.0,0.0,0.0,0.0,0.0,0.0,0.0,0.0,0.0,0.0,0.0,0.0,0.0,0.0,0.0,0.0,0.0,0.0,0.0,0.0,0.0,0.0,0.0,0.0,0.0,0.0,0.0,0.0,0.0,0.0,0.0,0.0,0.0,0.0,0.0,0.0,0.0,0.0,0.0,0.0,0.0,0.0,0.0,0.0,0.0,0.0,0.0,0.0,0.0,0.0,0.0,0.0,0.0,0.0,0.0,0.0,0.0,0.0,0.0,0.0,0.0,0.0,0.0,0.0,0.0,0.0,0.0,0.0,0.0,0.0,0.0,0.0,0.0,0.0,0.0,0.0,0.0,0.0,0.0,0.0,0.0,0.0,0.0,0.0,0.0,0.0,0.0,0.0,0.0,0.0,0.0,0.0,0.0,0.0,0.0,0.0,0.0,0.0,0.0,0.0,0.0,0.0,0.0,0.0,-3.4888,-3.4888,-3.4849,-3.4791,-3.4811,-3.483,0.0,0.0,0.0,0.0,0.0,0.0,0.0,0.0,0.0,0.0,0.0,0.0,0.0,0.0,0.0,0.0,0.0,0.0,0.0,0.0,0.0,0.0,0.0,0.0,0.0,0.0,0.0,0.0,0.0,0.0,0.0,0.0,0.0,0.0,0.0,0.0,0.0,0.0,0.0,0.0,0.0,0.0,0.0,0.0,0.0,0.0,0.0,0.0,0.0,0.0,0.0,0.0,0.0,0.0,0.0,0.0,0.0,0.0,0.0,0.0,0.0,0.0,0.0,0.0,0.0,0.0,0.0,0.0,0.0,0.0,0.0,0.0,0.0,0.0,0.0,0.0,0.0,0.0,0.0,0.0,0.0,0.0,0.0,0.0,0.0,0.0,0.0,0.0,0.0,0.0,0.0,0.0,0.0,0.0,0.0,0.0,0.0,0.0,0.0,0.0,0.0,0.0,0.0,0.0,0.0,0.0,0.0,0.0,0.0,-3.5039,0.0,-3.4983,-3.4945,-3.4964,-3.485,0.0,0.0,0.0,0.0,0.0,0.0,0.0,0.0,0.0,0.0,0.0,0.0,0.0,0.0,0.0,0.0,0.0,0.0,0.0,0.0,0.0,0.0,0.0,0.0,0.0,0.0,0.0,0.0,0.0,0.0,0.0,0.0,0.0,0.0,0.0,0.0,0.0,0.0,0.0,0.0,0.0,0.0,0.0,0.0,0.0,0.0,0.0,0.0,0.0,0.0,0.0,0.0,0.0,0.0,0.0,0.0,0.0,0.0,0.0,0.0,0.0,0.0,0.0,0.0,0.0,0.0,0.0,0.0,0.0,0.0,0.0,0.0,0.0,0.0,0.0,0.0,0.0,0.0,0.0,0.0,0.0,0.0,0.0,0.0,0.0,0.0,0.0,0.0,0.0,0.0,0.0,0.0,0.0,0.0,0.0,0.0,0.0,0.0,0.0,0.0,0.0,0.0,0.0,0.0,0.0,0.0,0.0,0.0,-3.5183,-3.5205,-3.5111,-3.5111,-3.5092,-3.5092,-3.4729,0.0,0.0,0.0,0.0,0.0,0.0,0.0,0.0,0.0,0.0,0.0,0.0,0.0,0.0,0.0,0.0,0.0,0.0,0.0,0.0,0.0,0.0,0.0,0.0,0.0,0.0,0.0,0.0,0.0,0.0,0.0,0.0,0.0,0.0,0.0,0.0,0.0,0.0,0.0,0.0,0.0,0.0,0.0,0.0,0.0,0.0,0.0,0.0,0.0,0.0,0.0,0.0,0.0,0.0,0.0,0.0,0.0,0.0,0.0,0.0,0.0,0.0,0.0,0.0,0.0,0.0,0.0,0.0,0.0,0.0,0.0,0.0,0.0,0.0,0.0,0.0,0.0,0.0,0.0,0.0,0.0,0.0,0.0,0.0,0.0,0.0,0.0,0.0,0.0,0.0,0.0,0.0,0.0,0.0,0.0,0.0,0.0,0.0,0.0,0.0,0.0,0.0,0.0,0.0,0.0,0.0,0.0,0.0,0.0,-3.5277,-3.5258,-3.5258,-3.5239,-3.5239,-3.5105,0.0,0.0,0.0,0.0,0.0,0.0,0.0,0.0,0.0,0.0,0.0,0.0,0.0,0.0,0.0,0.0,0.0,0.0,0.0,0.0,0.0,0.0,0.0,0.0,0.0,0.0,0.0,0.0,0.0,0.0,0.0,0.0,0.0,0.0,0.0,0.0,0.0,0.0,0.0,0.0,0.0,0.0,0.0,0.0,0.0,0.0,0.0,0.0,0.0,0.0,0.0,0.0,0.0,0.0,0.0,0.0,0.0,0.0,0.0,0.0,0.0,0.0,0.0,0.0,0.0,0.0,0.0,0.0,0.0,0.0,0.0,0.0,0.0,0.0,0.0,0.0,0.0,0.0,0.0,0.0,0.0,0.0,0.0,0.0,0.0,0.0,0.0,0.0,0.0,0.0,0.0,0.0,0.0,0.0,0.0,0.0,0.0,0.0,0.0,0.0,0.0,0.0,0.0,0.0,0.0,0.0,0.0,0.0,0.0,-3.5383,-3.533,-3.5315,-3.5315,-3.5315,-3.5162,-3.4851,0.0,0.0,0.0,0.0,0.0,0.0,0.0,0.0,0.0,0.0,0.0,0.0,0.0,0.0,0.0,0.0,0.0,0.0,0.0,0.0,0.0,0.0,0.0,0.0,0.0,0.0,0.0,0.0,0.0,0.0,0.0,0.0,0.0,0.0,0.0,0.0,0.0,0.0,0.0,0.0,0.0,0.0,0.0,0.0,0.0,0.0,0.0,0.0,0.0,0.0,0.0,0.0,0.0,0.0,0.0,0.0,0.0,0.0,0.0,0.0,0.0,0.0,0.0,0.0,0.0,0.0,0.0,0.0,0.0,0.0,0.0,0.0,0.0,0.0,0.0,0.0,0.0,0.0,0.0,0.0,0.0,0.0,0.0,0.0,0.0,0.0,0.0,0.0,0.0,0.0,0.0,0.0,0.0,0.0,0.0,0.0,0.0,0.0,0.0,0.0,0.0,0.0,0.0,0.0,0.0,0.0,0.0,0.0,-3.5507,-3.5364,-3.5315,-3.5315,-3.5315,-3.4966,0.0,0.0,0.0,0.0,0.0,0.0,0.0,0.0,0.0,0.0,0.0,0.0,0.0,0.0,0.0,0.0,0.0,0.0,0.0,0.0,0.0,0.0,0.0,0.0,0.0,0.0,0.0,0.0,0.0,0.0,0.0,0.0,0.0,0.0,0.0,0.0,0.0,0.0,0.0,0.0,0.0,0.0,0.0,0.0,0.0,0.0,0.0,0.0,0.0,0.0,0.0,0.0,0.0,0.0,0.0,0.0,0.0,0.0,0.0,0.0,0.0,0.0,0.0,0.0,0.0,0.0,0.0,0.0,0.0,0.0,0.0,0.0,0.0,0.0,0.0,0.0,0.0,0.0,0.0,0.0,0.0,0.0,0.0,0.0,0.0,0.0,0.0,0.0,0.0,0.0,0.0,0.0,0.0,0.0,0.0,0.0,0.0,0.0,0.0,0.0,0.0,0.0,0.0,0.0,0.0,0.0,0.0,0.0,0.0,-3.5493,-3.546,-3.5446,-3.5446,-3.5446,-3.5345,0.0,0.0,0.0,0.0,0.0,0.0,0.0,0.0,0.0,0.0,0.0,0.0,0.0,0.0,0.0,0.0,0.0,0.0,0.0,0.0,0.0,0.0,0.0,0.0,0.0,0.0,0.0,0.0,0.0,0.0,0.0,0.0,0.0,0.0,0.0,0.0,0.0,0.0,0.0,0.0,0.0,0.0,0.0,0.0,0.0,0.0,0.0,0.0,0.0,0.0,0.0,0.0,0.0,0.0,0.0,0.0,0.0,0.0,0.0,0.0,0.0,0.0,0.0,0.0,0.0,0.0,0.0,0.0,0.0,0.0,0.0,0.0,0.0,0.0,0.0,0.0,0.0,0.0,0.0,0.0,0.0,0.0,0.0,0.0,0.0,0.0,0.0,0.0,0.0,0.0,0.0,0.0,0.0,0.0,0.0,0.0,0.0,0.0,0.0,0.0,0.0,0.0,0.0,0.0,0.0,0.0,0.0,0.0,-3.5507,-3.5507,-3.5507,-3.5507,-3.5507,-3.5507,-3.5507,0.0,0.0,0.0,0.0,0.0,0.0,0.0,0.0,0.0,0.0,0.0,0.0,0.0,0.0,0.0,0.0,0.0,0.0,0.0,0.0,0.0,0.0,0.0,0.0,0.0,0.0,0.0,0.0,0.0,0.0,0.0,0.0,0.0,0.0,0.0,0.0,0.0,0.0,0.0,0.0,0.0,0.0,0.0,0.0,0.0,0.0,0.0,0.0,0.0,0.0,0.0,0.0,0.0,0.0,0.0,0.0,0.0,0.0,0.0,0.0,0.0,0.0,0.0,0.0,0.0,0.0,0.0,0.0,0.0,0.0,0.0,0.0,0.0,0.0,0.0,0.0,0.0,0.0,0.0,0.0,0.0,0.0,0.0,0.0,0.0,0.0,0.0,0.0,0.0,0.0,0.0,0.0,0.0,0.0,0.0,0.0,0.0,0.0,0.0,0.0,0.0,0.0,0.0,0.0,0.0,0.0,0.0,0.0,-3.5507,-3.5507,-3.5507,-3.5507,-3.5507,-3.5507,-3.5507,0.0,0.0,0.0,0.0,0.0,0.0,0.0,0.0,0.0,0.0,0.0,0.0,0.0,0.0,0.0,0.0,0.0,0.0,0.0,0.0,0.0,0.0,0.0,0.0,0.0,0.0,0.0,0.0,0.0,0.0,0.0,0.0,0.0,0.0,0.0,0.0,0.0,0.0,0.0,0.0,0.0,0.0,0.0,0.0,0.0,0.0,0.0,0.0,0.0,0.0,0.0,0.0,0.0,0.0,0.0,0.0,0.0,0.0,0.0,0.0,0.0,0.0,0.0,0.0,0.0,0.0,0.0,0.0,0.0,0.0,0.0,0.0,0.0,0.0,0.0,0.0,0.0,0.0,0.0,0.0,0.0,0.0,0.0,0.0,0.0,0.0,0.0,0.0,0.0,0.0,0.0,0.0,0.0,0.0,0.0,0.0,0.0,0.0,0.0,0.0,0.0,0.0,0.0,0.0,0.0,0.0,0.0,0.0,-3.5507,-3.5507,-3.5507,-3.5507,-3.5507,-3.5507,-3.5507,0.0,0.0,0.0,0.0,0.0,0.0,0.0,0.0,0.0,0.0,0.0,0.0,0.0,0.0,0.0,0.0,0.0,0.0,0.0,0.0,0.0,0.0,0.0,0.0,0.0,0.0,0.0,0.0,0.0,0.0,0.0,0.0,0.0,0.0,0.0,0.0,0.0,0.0,0.0,0.0,0.0,0.0,0.0,0.0,0.0,0.0,0.0,0.0,-2.821,0.0,0.0,0.0,0.0,0.0,0.0,0.0,0.0,0.0,0.0,0.0,0.0,0.0,0.0,0.0,0.0,0.0,0.0,0.0,0.0,0.0,0.0,0.0,0.0,0.0,0.0,0.0,0.0,0.0,0.0,0.0,0.0,0.0,0.0,0.0,0.0,0.0,0.0,0.0,0.0,0.0,0.0,0.0,0.0,0.0,0.0,0.0,0.0,0.0,0.0,0.0,0.0,0.0,0.0,0.0,0.0,0.0,0.0,0.0,-3.5507,-3.5507,-3.5507,-3.5507,-3.5507,-3.5507,-3.5507,0.0,0.0,0.0,0.0,0.0,0.0,0.0,0.0,0.0,0.0,0.0,0.0,0.0,0.0,0.0,0.0,0.0,0.0,0.0,0.0,0.0,0.0,0.0,0.0,0.0,0.0,0.0,0.0,0.0,0.0,0.0,0.0,0.0,0.0,0.0,0.0,0.0,0.0,0.0,0.0,0.0,0.0,0.0,0.0,0.0,0.0,0.0,0.0,0.0,0.0,0.0,0.0,0.0,0.0,0.0,0.0,0.0,0.0,0.0,0.0,0.0,0.0,0.0,0.0,0.0,0.0,0.0,0.0,0.0,0.0,0.0,0.0,0.0,0.0,0.0,0.0,0.0,0.0,0.0,0.0,0.0,0.0,0.0,0.0,0.0,0.0,0.0,0.0,0.0,0.0,0.0,0.0,0.0,0.0,0.0,0.0,0.0,0.0,0.0,0.0,0.0,0.0,0.0,0.0,0.0,0.0,0.0,-3.5507,-3.5507,-3.5507,-3.5507,-3.5507,-3.5507,-3.5507,-3.5507,-3.5488,0.0,0.0,0.0,0.0,0.0,0.0,0.0,0.0,0.0,0.0,0.0,0.0,0.0,0.0,0.0,0.0,0.0,0.0,0.0,0.0,0.0,0.0,0.0,0.0,0.0,0.0,0.0,0.0,0.0,0.0,0.0,0.0,0.0,0.0,0.0,0.0,0.0,0.0,-2.7846,-2.8497,0.0,0.0,0.0,0.0,0.0,0.0,0.0,0.0,-2.8304,0.0,0.0,0.0,0.0,0.0,0.0,0.0,0.0,0.0,0.0,0.0,0.0,0.0,0.0,0.0,0.0,0.0,0.0,0.0,0.0,0.0,0.0,0.0,0.0,0.0,0.0,0.0,0.0,0.0,0.0,0.0,0.0,0.0,0.0,0.0,0.0,0.0,0.0,0.0,0.0,0.0,0.0,0.0,0.0,0.0,0.0,0.0,0.0,0.0,0.0,0.0,0.0,0.0,0.0,0.0,0.0,-3.5488,-3.5507,-3.5507,-3.5507,-3.5507,-3.5507,-3.5507,-3.5507,-3.5507,-3.5507,0.0,0.0,0.0,0.0,0.0,0.0,0.0,0.0,0.0,0.0,0.0,0.0,0.0,0.0,0.0,0.0,0.0,0.0,0.0,0.0,0.0,0.0,0.0,0.0,0.0,0.0,0.0,0.0,0.0,0.0,0.0,0.0,0.0,0.0,0.0,0.0,0.0,0.0,0.0,-2.8619,-2.8969,0.0,0.0,0.0,0.0,0.0,0.0,0.0,0.0,-2.8105,0.0,0.0,0.0,0.0,0.0,0.0,0.0,0.0,0.0,0.0,0.0,0.0,0.0,0.0,0.0,0.0,0.0,0.0,0.0,0.0,0.0,0.0,0.0,0.0,0.0,0.0,0.0,0.0,0.0,0.0,0.0,0.0,0.0,0.0,0.0,0.0,0.0,0.0,0.0,0.0,0.0,0.0,0.0,0.0,0.0,0.0,0.0,0.0,0.0,0.0,0.0,0.0,0.0,0.0,0.0,-3.5488,-3.5507,-3.5507,-3.5507,-3.5507,-3.5507,-3.5507,-3.5507,-3.5507,0.0,0.0,0.0,0.0,0.0,0.0,0.0,0.0,0.0,0.0,0.0,0.0,0.0,0.0,0.0,0.0,0.0,0.0,0.0,0.0,0.0,0.0,0.0,0.0,0.0,0.0,0.0,0.0,0.0,0.0,0.0,0.0,0.0,0.0,0.0,0.0,0.0,0.0,0.0,0.0,-2.8284,-2.8624,-2.7921,0.0,0.0,0.0,0.0,0.0,0.0,-2.8396,-2.8235,0.0,0.0,0.0,0.0,0.0,0.0,0.0,0.0,0.0,0.0,0.0,0.0,0.0,0.0,0.0,0.0,0.0,0.0,0.0,0.0,0.0,0.0,0.0,0.0,0.0,0.0,0.0,0.0,0.0,0.0,0.0,0.0,0.0,0.0,0.0,0.0,0.0,0.0,0.0,0.0,0.0,0.0,0.0,0.0,0.0,0.0,0.0,0.0,0.0,0.0,0.0,0.0,0.0,0.0,0.0,-3.5493,-3.5493,-3.5507,-3.5507,-3.5507,-3.5507,-3.5507,-3.5507,-3.5507,0.0,0.0,0.0,0.0,0.0,0.0,0.0,0.0,0.0,0.0,0.0,0.0,0.0,0.0,0.0,0.0,0.0,0.0,0.0,0.0,0.0,0.0,0.0,0.0,0.0,0.0,0.0,0.0,0.0,0.0,0.0,0.0,0.0,0.0,0.0,0.0,0.0,0.0,0.0,0.0,0.0,-2.8262,-2.7348,-2.7439,0.0,0.0,0.0,0.0,-2.8694,-2.8686,0.0,0.0,0.0,0.0,0.0,0.0,0.0,0.0,0.0,0.0,0.0,0.0,0.0,0.0,0.0,0.0,0.0,0.0,0.0,0.0,0.0,0.0,0.0,0.0,0.0,0.0,0.0,0.0,0.0,0.0,0.0,0.0,0.0,0.0,0.0,0.0,0.0,0.0,0.0,0.0,0.0,0.0,0.0,0.0,0.0,0.0,0.0,0.0,0.0,0.0,0.0,0.0,0.0,0.0,0.0,0.0,-3.5489,-3.5479,-3.5507,-3.5507,-3.5507,-3.5507,-3.5507,-3.5507,-3.5507,0.0,0.0,0.0,0.0,0.0,0.0,0.0,0.0,0.0,0.0,0.0,0.0,0.0,0.0,0.0,0.0,0.0,0.0,0.0,0.0,0.0,0.0,0.0,0.0,0.0,0.0,0.0,0.0,0.0,0.0,0.0,0.0,0.0,0.0,0.0,0.0,0.0,0.0,0.0,0.0,0.0,-2.8039,-2.7146,-2.749,-2.7811,0.0,0.0,-2.9096,-2.9098,-2.8975,0.0,0.0,0.0,0.0,0.0,0.0,0.0,0.0,0.0,0.0,0.0,0.0,0.0,0.0,0.0,0.0,0.0,0.0,0.0,0.0,0.0,0.0,0.0,0.0,0.0,0.0,0.0,0.0,0.0,0.0,0.0,0.0,0.0,0.0,0.0,0.0,0.0,0.0,0.0,0.0,0.0,0.0,0.0,0.0,0.0,0.0,0.0,0.0,0.0,0.0,0.0,0.0,0.0,0.0,0.0,-3.5412,-3.5451,-3.5479,-3.5507,-3.5526,-3.6122,-3.6372,-3.6199,-3.6661,-3.6699,0.0,0.0,0.0,0.0,0.0,0.0,0.0,0.0,0.0,0.0,0.0,0.0,0.0,0.0,0.0,0.0,0.0,0.0,0.0,0.0,0.0,0.0,0.0,0.0,0.0,0.0,0.0,0.0,0.0,0.0,0.0,0.0,0.0,0.0,0.0,0.0,0.0,0.0,0.0,0.0,0.0,0.0,-2.749,-2.7468,0.0,0.0,0.0,-2.9114,-2.9517,0.0,0.0,0.0,0.0,0.0,0.0,0.0,0.0,0.0,0.0,0.0,0.0,0.0,0.0,0.0,0.0,0.0,0.0,0.0,0.0,0.0,0.0,0.0,0.0,0.0,0.0,0.0,0.0,0.0,0.0,0.0,0.0,0.0,0.0,0.0,0.0,0.0,0.0,0.0,0.0,0.0,0.0,0.0,0.0,0.0,0.0,0.0,0.0,0.0,0.0,0.0,0.0,0.0,0.0,0.0,0.0,0.0,-3.5691,-3.5844,-3.6008,-3.6161,-3.7098,-3.7425,-3.7046,-3.7661,0.0,0.0,0.0,0.0,0.0,0.0,0.0,0.0,0.0,0.0,0.0,0.0,0.0,0.0,0.0,0.0,0.0,0.0,0.0,0.0,0.0,0.0,0.0,0.0,0.0,0.0,0.0,-2.8493,0.0,0.0,0.0,0.0,0.0,0.0,0.0,0.0,0.0,0.0,0.0,0.0,0.0,0.0,-2.7943,-2.7824,-2.7721,-2.7996,0.0,0.0,-2.9289,-2.9729,-2.9779,-2.9654,0.0,0.0,0.0,0.0,0.0,0.0,0.0,0.0,0.0,0.0,0.0,0.0,0.0,0.0,0.0,0.0,0.0,0.0,0.0,0.0,0.0,0.0,0.0,0.0,0.0,0.0,0.0,0.0,0.0,0.0,0.0,0.0,0.0,0.0,0.0,0.0,0.0,0.0,0.0,0.0,0.0,0.0,0.0,0.0,0.0,0.0,0.0,0.0,0.0,0.0,0.0,0.0,0.0,0.0,-3.6194,-3.6422,-3.6873,-3.7307,-3.782,-3.8387,-3.8445,-3.795,-3.7969,-3.7988,0.0,0.0,0.0,0.0,0.0,0.0,0.0,0.0,0.0,0.0,0.0,0.0,0.0,0.0,0.0,0.0,0.0,0.0,0.0,0.0,0.0,0.0,0.0,0.0,0.0,0.0,0.0,0.0,0.0,0.0,0.0,0.0,0.0,0.0,0.0,0.0,0.0,0.0,0.0,0.0,0.0,-2.8402,-2.7875,-2.8366,-2.885,0.0,-2.939,-2.9754,-2.9779,-2.9779,-2.9779,-2.9741,0.0,0.0,0.0,0.0,0.0,0.0,0.0,0.0,0.0,0.0,0.0,0.0,0.0,0.0,0.0,0.0,0.0,0.0,0.0,0.0,0.0,0.0,0.0,0.0,0.0,0.0,0.0,0.0,0.0,0.0,0.0,0.0,0.0,0.0,0.0,0.0,0.0,0.0,0.0,0.0,0.0,0.0,0.0,0.0,0.0,0.0,0.0,0.0,0.0,0.0,0.0,0.0,0.0,-3.6482,-3.7213,-3.6938,-3.7167,-3.7978,-3.8285,-3.8554,-3.8796,-3.9112,-3.9133,0.0,0.0,0.0,0.0,0.0,0.0,0.0,0.0,0.0,0.0,0.0,0.0,0.0,0.0,0.0,0.0,0.0,0.0,0.0,0.0,0.0,0.0,0.0,0.0,0.0,0.0,0.0,0.0,-3.0661,-3.087,-3.0962,0.0,0.0,0.0,0.0,0.0,0.0,0.0,0.0,0.0,0.0,-2.8342,-2.8609,-2.8798,0.0,0.0,-2.9654,-2.9779,-2.9779,-2.9779,-2.9779,-2.9779,-2.9315,0.0,0.0,0.0,0.0,0.0,0.0,0.0,0.0,0.0,0.0,0.0,0.0,0.0,0.0,0.0,0.0,0.0,0.0,0.0,0.0,0.0,0.0,0.0,0.0,0.0,0.0,0.0,0.0,0.0,0.0,0.0,0.0,0.0,0.0,0.0,0.0,0.0,0.0,0.0,0.0,0.0,0.0,0.0,0.0,0.0,0.0,0.0,0.0,0.0,0.0,0.0,0.0,-3.6841,-3.7928,-3.7513,-3.7752,-3.861,-3.8804,-3.9147,-3.9646,-4.0015,-4.0053,0.0,0.0,0.0,0.0,0.0,0.0,0.0,0.0,0.0,0.0,0.0,0.0,0.0,0.0,0.0,0.0,0.0,0.0,0.0,0.0,0.0,0.0,0.0,0.0,0.0,0.0,0.0,0.0,-3.1051,-3.1016,-3.1233,0.0,0.0,0.0,0.0,0.0,0.0,0.0,0.0,0.0,0.0,-2.8697,-2.9173,-2.9227,-2.934,-2.9729,-2.9702,-2.9689,-2.9702,-2.9624,-2.9624,-2.9702,0.0,0.0,0.0,0.0,0.0,0.0,0.0,0.0,0.0,0.0,0.0,0.0,0.0,0.0,0.0,0.0,0.0,0.0,0.0,0.0,0.0,0.0,0.0,0.0,0.0,0.0,0.0,-2.177,0.0,0.0,-2.3964,0.0,0.0,0.0,0.0,0.0,0.0,0.0,0.0,0.0,0.0,0.0,0.0,0.0,0.0,0.0,0.0,0.0,0.0,0.0,0.0,0.0,0.0,-3.7431,-3.848,-3.8924,-3.947,-4.0024,-4.0317,-4.0434,-4.045,-4.0489,-4.0469,-4.0446,0.0,0.0,0.0,0.0,0.0,0.0,0.0,0.0,0.0,0.0,0.0,0.0,0.0,0.0,0.0,0.0,0.0,0.0,0.0,0.0,0.0,0.0,0.0,0.0,0.0,0.0,-3.1258,-3.1362,-3.1394,0.0,0.0,0.0,0.0,0.0,0.0,0.0,0.0,0.0,-2.866,-2.9067,-2.941,-2.9225,-2.9555,-2.9767,-2.9779,-2.9599,-2.9419,-2.9419,-2.9275,-2.9209,0.0,0.0,0.0,0.0,0.0,0.0,0.0,0.0,0.0,0.0,0.0,0.0,0.0,0.0,0.0,0.0,0.0,0.0,0.0,0.0,0.0,0.0,0.0,0.0,0.0,0.0,0.0,-1.9793,-2.0487,0.0,0.0,0.0,0.0,0.0,0.0,0.0,0.0,0.0,0.0,0.0,-3.3497,-3.3758,0.0,0.0,0.0,0.0,0.0,0.0,0.0,0.0,0.0,0.0,0.0,0.0,-3.8588,-3.9565,-3.9145,-3.9385,-4.0319,-4.0463,-4.0502,-4.0508,-4.0319,-4.0321,-4.0489,0.0,0.0,0.0,0.0,0.0,0.0,0.0,0.0,0.0,0.0,0.0,0.0,0.0,0.0,0.0,0.0,0.0,0.0,0.0,0.0,0.0,0.0,0.0,0.0,0.0,-3.1949,0.0,0.0,0.0,0.0,0.0,0.0,0.0,0.0,0.0,0.0,0.0,-2.8716,-2.9145,-2.9266,-2.9352,-2.9593,-2.9564,-2.9599,0.0,0.0,0.0,0.0,0.0,0.0,0.0,0.0,0.0,0.0,0.0,0.0,0.0,0.0,-2.8988,-2.8247,-2.8109,-2.8109,-2.8109,0.0,0.0,0.0,0.0,0.0,0.0,0.0,0.0,0.0,0.0,0.0,0.0,0.0,0.0,-1.8276,-1.9138,-1.9288,0.0,0.0,0.0,0.0,0.0,0.0,0.0,0.0,-3.1333,-3.2352,-3.3491,-3.3691,-3.4652,0.0,-3.6004,-3.6132,0.0,0.0,0.0,0.0,0.0,0.0,0.0,0.0,-3.9185,-4.0024,-3.9385,-3.9448,-4.0319,-4.0463,-4.0482,-4.0508,-4.0339,-4.0321,-4.0489,-3.9988,-3.9669,0.0,0.0,0.0,0.0,0.0,0.0,0.0,0.0,0.0,0.0,0.0,0.0,0.0,0.0,0.0,0.0,0.0,0.0,0.0,0.0,0.0,0.0,0.0,-3.1981,0.0,0.0,0.0,0.0,0.0,0.0,0.0,0.0,0.0,-2.9053,-2.8851,-2.8892,-2.9346,-2.939,-2.9505,-2.9741,0.0,0.0,0.0,0.0,0.0,0.0,0.0,-2.8007,-2.8474,-2.8633,-2.8882,-2.9431,-2.9702,-2.9779,-2.9779,0.0,0.0,-2.8825,-2.8687,-2.8687,-2.8687,-2.8699,-2.8699,-2.8687,-2.8687,-2.8625,0.0,0.0,0.0,0.0,0.0,0.0,0.0,0.0,-1.6412,-1.6987,0.0,-1.7629,0.0,0.0,0.0,0.0,-2.5163,-2.7394,0.0,0.0,-3.0485,-3.2145,-3.3873,-3.3937,-3.5049,-3.703,-3.6765,-3.7127,-3.8147,-3.8511,0.0,0.0,0.0,0.0,0.0,0.0,-3.9223,-3.9884,-3.9718,-3.9795,-4.012,-4.0356,-4.0489,-4.0489,-4.0489,-4.0489,-4.0489,-4.0469,-4.0492,-4.0482,-3.9629,0.0,0.0,0.0,0.0,0.0,0.0,0.0,0.0,0.0,0.0,0.0,0.0,0.0,0.0,0.0,0.0,0.0,0.0,0.0,0.0,-3.2206,0.0,0.0,0.0,0.0,0.0,0.0,0.0,0.0,0.0,0.0,-2.9051,-2.9262,-2.9461,-2.9238,0.0,0.0,0.0,0.0,-2.9353,-2.9131,-2.8578,-2.8007,-2.7522,-2.694,-2.6846,-2.781,0.0,0.0,-2.9534,-2.9702,-2.9702,-2.9779,-2.9779,-2.9779,-2.9689,-2.9639,-2.9741,-2.9729,-2.9716,-2.9779,-2.9702,-2.9499,-2.9279,-1.589,0.0,0.0,0.0,0.0,-1.4707,-1.4632,-1.5112,-1.5726,-1.6508,-1.7179,-1.721,0.0,0.0,0.0,0.0,0.0,0.0,-2.71,-2.8535,-2.9765,-3.1825,-3.4499,-3.4516,-3.5634,-3.7629,-3.7231,-3.7963,-3.9696,-4.0027,-3.9587,-3.8455,0.0,0.0,0.0,0.0,-4.0207,-4.0323,-4.0279,-4.0277,-4.0408,-4.0457,-4.0489,-4.0489,-4.0489,-4.0489,-4.0489,-4.0489,-4.0492,-4.0482,-4.0183,0.0,0.0,0.0,0.0,0.0,0.0,0.0,0.0,0.0,0.0,0.0,0.0,0.0,0.0,0.0,0.0,0.0,0.0,0.0,-3.2841,-3.2064,-3.1524,0.0,0.0,0.0,0.0,0.0,0.0,0.0,0.0,0.0,-3.0042,-2.9598,-2.9377,0.0,0.0,-2.9779,-2.9779,-2.9599,-2.9172,-2.8518,-2.7891,0.0,-2.6412,-2.5852,-2.5684,-2.6163,-2.6461,-2.7035,-2.8347,-2.8597,-2.8846,-2.9624,-2.9779,-2.9546,-2.8846,-2.9275,-2.9702,-2.9779,-2.9779,-2.9534,-2.8767,-2.8597,-2.8279,-1.4032,-1.4631,-1.5147,-1.4915,-1.4172,-1.366,-1.347,-1.3643,-1.426,-1.4817,-1.5384,-1.5288,-1.5076,-1.4938,-1.7244,0.0,0.0,0.0,-2.5767,-2.8329,-2.975,-3.2137,-3.5172,-3.5297,-3.6371,-3.8316,-3.823,-3.8899,-4.0314,-4.0743,-4.046,-3.9483,0.0,0.0,-4.0042,-4.0474,-4.0655,-4.0598,-4.0519,-4.0489,-4.0489,-4.0489,-4.0489,-4.0489,-4.0489,-4.0489,-4.0489,-4.0489,-4.0508,-4.0495,-4.0466,-4.004,0.0,0.0,0.0,0.0,0.0,0.0,0.0,0.0,0.0,0.0,0.0,-3.3175,-3.3488,0.0,0.0,0.0,-3.3065,-3.2888,-3.2437,-3.1925,0.0,0.0,0.0,0.0,0.0,0.0,0.0,-3.2515,-3.2089,-3.1498,-3.0983,-3.0141,-2.9618,-2.9754,-2.9779,-2.9779,-2.9779,0.0,-2.9003,-2.8016,-2.7395,-2.6659,-2.5495,-2.4925,-2.4765,-2.5147,-2.5797,-2.6449,-2.7279,-2.7441,-2.7695,-2.8291,-2.8462,-2.8291,-2.7614,-2.8039,-2.8633,-2.9028,-2.9106,-2.8846,-2.8176,-2.7763,-2.7116,-1.2203,-1.2365,-1.3677,-1.3781,-1.3094,-1.3038,-1.2777,-1.2298,-1.2298,-1.2673,-1.32,-1.2666,-1.2837,-1.369,-1.6138,0.0,-1.9814,-2.164,-2.454,-2.8144,-3.0021,-3.2668,-3.5802,-3.6003,-3.713,-3.9034,-3.937,-3.977,-4.025,-4.0877,-4.1149,-4.1035,-4.1072,-4.1058,-4.0998,-4.0809,-4.0699,-4.0711,-4.0554,-4.0504,-4.0489,-4.0489,-4.0489,-4.0489,-4.0489,-4.0489,-4.0489,-4.0489,-4.0489,-4.0489,-4.0479,-4.027,-3.98,0.0,0.0,0.0,0.0,0.0,0.0,0.0,0.0,0.0,0.0,0.0,0.0,0.0,0.0,0.0,-3.2287,0.0,-3.1898,-3.1845,0.0,0.0,0.0,-3.2557,-3.2511,-3.3047,-3.3391,-3.3493,0.0,0.0,-3.1802,-3.0872,-3.0011,-2.9869,-2.9779,-2.9792,-2.9702,-2.9431,-2.8846,-2.7383,-2.6883,-2.6069,-2.4659,-2.409,-2.3993,-2.4553,-2.5546,-2.6141,-2.6307,-2.6378,-2.6389,-2.6648,-2.6483,-2.6483,-2.6389,-2.6472,-2.6812,-2.7684,-2.7879,-2.7936,-2.7671,-2.6953,-2.6047,-1.1588,-1.156,-1.2461,-1.2675,-1.2403,-1.0918,-1.1046,-1.2291,-1.2258,-1.2771,-1.3535,-1.3462,-1.3653,-1.3985,-1.3746,-1.5275,-1.8375,-2.1101,-2.3624,-2.6012,-2.8311,-3.1181,-3.4555,-3.6155,-3.7485,-3.8534,-3.8803,-3.9421,-4.034,-4.092,-4.1193,-4.115,-4.1172,-4.1119,-4.0998,-4.0906,-4.0811,-4.0706,-4.0577,-4.0492,-4.0504,-4.0489,-4.0489,-4.0489,-4.0489,-4.0489,-4.0489,-4.0489,-4.0489,-4.0489,-4.0304,-4.0081,-3.9819,-3.9196,0.0,0.0,0.0,0.0,0.0,0.0,0.0,0.0,0.0,-3.3895,-3.3826,0.0,-3.2895,0.0,-3.1925,-3.1853,-3.2358,-3.2364,0.0,0.0,-3.2871,-3.3469,-3.3886,-3.4158,-3.4297,-3.4559,-3.3568,-3.2624,-3.206,-3.1009,-3.0228,-2.9869,-2.9779,-2.9546,-2.8688,-2.8426,-2.7683,-2.5953,-2.5462,-2.4798,-2.3724,-2.3309,-2.3309,-2.3464,-2.3724,-2.4221,-2.5052,-2.5221,-2.5462,-2.6307,-2.6483,-2.6224,-2.5389,-2.588,-2.6307,-2.6138,-2.6479,-2.6625,-2.5786,-2.5389,-2.4882,-1.1084,-1.057,-1.0869,-1.1015,-1.1035,-0.9857,-0.9927,-1.0944,-1.1366,-1.1961,-1.2628,-1.3229,-1.3549,-1.3676,-1.3014,-1.4518,-1.7694,-2.037,-2.2788,-2.5241,-2.7899,-3.0682,-3.3485,-3.6011,-3.7542,-3.8168,-3.8543,-3.9199,-4.0171,-4.0873,-4.1198,-4.1191,-4.1191,-4.1149,-4.1046,-4.0972,-4.0879,-4.0801,-4.0676,-4.0604,-4.0504,-4.0559,-4.0559,-4.0504,-4.0489,-4.0508,-4.0511,-4.0511,-4.046,-4.0375,-4.0214,-3.9981,-3.9637,-3.9249,-3.8635,0.0,0.0,0.0,0.0,0.0,0.0,0.0,0.0,0.0,0.0,0.0,-3.2641,-3.2135,-3.2083,-3.2176,-3.2619,-3.2881,-3.3006,-3.2961,-3.3544,-3.4068,-3.4427,-3.4741,-3.5006,-3.5184,-3.4206,-3.3269,-3.2407,-3.1415,-3.0495,-2.9856,-2.9779,-2.9534,-2.8949,-2.8438,-2.7522,-2.588,-2.5126,-2.4372,-2.3299,-2.3144,-2.3144,-2.3144,-2.3144,-2.3299,-2.3963,-2.4049,-2.4296,-2.4904,-2.5147,-2.5123,-2.4518,-2.4954,-2.5434,-2.516,-2.5254,-2.5438,-2.5427,-2.498,-2.4384,-1.0589,-0.9673,-0.9246,-0.915,-0.9275,-0.9077,-0.9158,-0.9382,-1.0279,-1.0865,-1.1337,-1.2621,-1.316,-1.3081,-1.386,-1.5368,-1.7569,-1.9674,-2.2078,-2.4748,-2.7893,-3.0383,-3.2307,-3.5572,-3.7361,-3.7807,-3.8424,-3.91,-3.9931,-4.0771,-4.121,-4.1191,-4.1191,-4.1172,-4.1091,-4.1035,-4.0961,-4.0889,-4.0829,-4.0703,-4.0569,-4.0655,-4.0636,-4.0519,-4.0504,-4.0492,-4.0502,-4.0502,-4.0396,-4.0196,-4.01,-3.9835,-3.9401,-3.9163,-3.8752,0.0,-3.7703,0.0,0.0,0.0,0.0,0.0,0.0,0.0,0.0,-3.2773,-3.2344,-3.2182,-3.2581,-3.2795,-3.2795,-3.3397,-3.3788,-3.3634,-3.4203,-3.4607,-3.4622,-3.5145,-3.5439,-3.5359,-3.4409,-3.3449,-3.2464,-3.1609,-3.0683,-2.9921,-2.9779,-2.9779,-2.9624,-2.8621,-2.7441,-2.6472,-2.5294,-2.4125,-2.3299,-2.3144,-2.3144,-2.3144,-2.3144,-2.3144,-2.3135,-2.3193,-2.3242,-2.3359,-2.3762,-2.3947,-2.3877,-2.416,-2.4506,-2.4565,-2.4657,-2.4884,-2.5441,-2.5058,-2.4414,-0.9473,-0.9424,-0.807,-0.7396,-0.7267,-0.7461,-0.8316,-0.9667,-0.9977,-1.0561,-1.1505,-1.2683,-1.283,-1.2543,-1.7104,-1.8538,-1.751,-1.9637,-2.1343,-2.2736,-2.6609,-2.9035,-3.0372,-3.4699,-3.6998,-3.7379,-3.8259,-3.9133,-3.9912,-4.0781,-4.1209,-4.1191,-4.1191,-4.1172,-4.1091,0.0,0.0,0.0,-4.0839,-4.0828,-4.0897,-4.0726,-4.0607,-4.0588,-4.0523,0.0,-4.0502,-4.043,-4.0325,-4.012,-3.9854,0.0,0.0,0.0,0.0,0.0,0.0,0.0,0.0,0.0,0.0,0.0,-3.6175,-3.5251,-3.3662,-3.2971,-3.2823,-3.3186,-3.3291,-3.3366,-3.3366,-3.395,-3.434,-3.4307,-3.4891,-3.531,-3.531,-3.5429,-3.5213,-3.4394,-3.3463,-3.2522,-3.1609,-3.0633,-2.9998,-2.9856,-2.9779,-2.9779,-2.9779,-2.8131,-2.6461,-2.5294,-2.4211,-2.3387,-2.3135,-2.3144,-2.3144,-2.3144,-2.3144,-2.3144,-2.3174,-2.3447,-2.3662,-2.3672,-2.4004,-2.4297,-2.4297,-2.4365,-2.457,-2.4873,-2.4941,-2.4938,-2.4759,-2.4608,-2.4424,-0.8665,-0.8249,-0.7469,-0.699,0.0,-0.7008,-0.7595,-0.8417,-0.889,-0.9764,-1.086,-1.1609,-1.1974,-1.2308,-1.6506,-1.8006,-1.7415,-1.959,-2.0867,-2.1497,-2.5247,-2.7253,-2.7863,-3.282,-3.5503,-3.6116,-3.7855,-3.8987,-3.9624,-4.0694,-4.1075,-4.0859,-4.1071,-4.1172,-4.1132,-4.1103,-4.1057,-4.1002,-4.0878,-4.0828,-4.0843,-4.0725,-4.0615,-4.0573,-4.0504,0.0,0.0,0.0,0.0,0.0,0.0,0.0,0.0,-3.9441,0.0,-3.912,-3.8702,-3.8341,-3.8081,-3.7387,-3.7222,-3.7638,-3.7023,-3.5974,-3.4564,-3.4321,-3.4056,-3.3577,-3.4122,-3.4364,-3.4055,-3.4577,-3.4996,-3.4996,-3.5295,-3.5489,-3.5489,-3.5489,-3.5133,-3.4177,-3.3587,-3.282,-3.1389,-3.0833,-3.0279,-2.9856,-2.9779,-2.9779,-2.9624,-2.7879,-2.5975,-2.4307,-2.356,-2.3135,-2.3144,-2.3144,-2.3144,-2.3144,-2.3144,-2.3232,-2.3418,-2.3643,-2.3848,-2.4062,-2.4453,-2.4736,-2.4756,-2.4912,-2.5146,-2.5332,-2.54,-2.5342,-2.5107,-2.5068,-2.5068,-0.8021,-0.7146,-0.7139,-0.7143,-0.7149,-0.7146,-0.7149,-0.7132,-0.7724,0.0,0.0,-1.0005,-1.0595,-1.1895,-1.4198,-1.5621,-1.6553,-1.8921,-1.9972,-2.0187,-2.4038,-2.5812,-2.6016,-3.082,-3.3768,-3.5009,-3.7488,-3.8886,-3.9335,-4.044,-4.0817,-4.0575,-4.098,-4.1191,-4.1171,-4.1149,-4.1113,-4.1032,-4.0888,-4.0771,-4.0696,-4.068,-4.0623,-4.0523,-4.0504,-4.0569,-4.0694,-4.0444,-4.0266,-4.0197,-3.9883,-3.9881,-4.0258,-4.0178,-4.028,-4.0578,-3.9902,-3.9572,-3.9651,-3.8641,-3.8184,-3.8725,-3.7896,-3.6924,-3.5863,-3.587,-3.5417,-3.4152,-3.5109,-3.5492,-3.4778,-3.516,-3.5489,-3.5489,-3.5489,-3.5489,-3.5489,-3.5489,-3.5133,-3.4163,-3.3808,-3.3087,-3.1462,-3.097,-3.0696,-2.9998,-2.9779,-2.9546,-2.9052,-2.7637,-2.5808,-2.4049,-2.3387,-2.3144,-2.3144,-2.3144,-2.3144,-2.3144,-2.3203,-2.3389,-2.3691,-2.3916,-2.415,-2.4473,-2.4893,-2.5137,-2.5205,-2.5439,-2.5723,-2.5732,-2.5732,-2.5732,-2.5732,-2.5723,-2.5684,-0.7255,-0.7081,-0.7146,-0.7149,-0.7081,-0.7081,-0.7088,-0.7091,-0.7193,-0.7956,-0.9022,-0.8043,-0.8229,-0.9488,-1.082,-1.1989,-1.3071,-1.6207,-1.77,-1.8002,-2.3285,-2.5812,-2.6003,-2.9614,-3.2607,-3.4975,-3.7484,-3.8921,-3.9331,-3.983,-4.0204,-4.0509,-4.096,-4.1149,-4.1026,-4.0933,-4.0843,-4.0852,-4.0863,-4.0785,-4.0621,-4.0623,-4.0607,-4.0588,-4.0543,-4.0838,-4.15,-4.1431,-4.1512,-4.176,-4.1651,-4.1436,-4.1083,-4.1038,-4.083,-4.0384,-3.9825,-3.9312,-3.8911,-3.8288,-3.8207,-3.8931,-3.9394,-3.9041,-3.7597,-3.6977,-3.6546,-3.6182,-3.6306,-3.6199,-3.5484,-3.5429,-3.5489,-3.5489,-3.5489,-3.5489,-3.5489,-3.5489,-3.5133,-3.4095,-3.3241,-3.2451,-3.1389,-3.0558,-3.0075,-2.9856,-2.9779,-2.9209,-2.7637,-2.673,-2.5975,-2.4798,-2.3714,-2.3222,-2.3144,-2.3144,-2.3154,-2.3144,-2.3457,-2.3701,-2.3877,-2.4385,-2.4805,-2.4951,-2.5312,-2.5566,-2.5615,-2.5684,-2.5732,-2.5732,-2.5732,-2.5732,-2.5732,-2.5732,-2.5732,-0.5911,-0.7091,-0.7084,-0.7084,-0.7002,-0.5727,-0.5186,-0.5191,-0.5179,-0.6245,-0.7768,-0.7309,-0.7746,-0.8873,-0.8729,-0.9989,-1.2312,-1.5061,-1.6636,-1.7506,-2.167,-2.3989,-2.49,-2.8411,-3.1234,-3.3388,-3.6968,-3.8642,-3.8625,-3.944,-3.9988,-4.0211,-4.0859,-4.1151,-4.1105,-4.1052,-4.0988,-4.0889,-4.0752,-4.0688,-4.0657,-4.1059,-4.1247,-4.127,-4.1659,-4.2085,-4.2437,-4.2239,-4.2219,-4.237,-4.2015,-4.1876,-4.205,-4.1894,-4.1886,-4.1993,-4.1537,-4.1149,-4.0872,-4.0033,-3.9671,-3.9997,-4.005,-3.9834,-3.909,-3.8764,-3.8221,-3.7365,-3.7279,-3.6919,-3.618,-3.5718,-3.5489,-3.5489,-3.5489,-3.5489,-3.5489,-3.5489,-3.5118,-3.4109,-3.3171,-3.2236,-3.1328,-3.0343,-2.9792,-2.9779,-2.9779,-2.9118,-2.7533,-2.6801,-2.5902,-2.4221,-2.3464,-2.3135,-2.3144,-2.3144,-2.3232,-2.3437,-2.3652,-2.3984,-2.4346,-2.4883,-2.5127,-2.5381,-2.5615,-2.5713,-2.5732,-2.5732,-2.5732,-2.5732,-2.5732,-2.5732,-2.5732,-2.5732,-2.5732,-0.4474,-0.7108,-0.7104,-0.6465,-0.5377,-0.3576,-0.3038,-0.3578,-0.3667,-0.4652,-0.6186,-0.6815,-0.7606,-0.836,-0.7465,-0.8566,-1.1118,-1.3734,-1.5308,-1.6435,-2.013,-2.2349,-2.3541,-2.7465,-3.0303,-3.2118,-3.6045,-3.7971,-3.8044,-3.9045,-3.9771,-4.0082,-4.0827,-4.1191,-4.1191,-4.1366,-4.1396,-4.1304,-4.1207,-4.11,-4.1021,-4.1735,-4.2113,-4.2143,-4.2739,-4.3181,-4.3355,-4.3119,-4.3003,-4.3028,-4.2561,-4.2482,-4.2909,-4.2724,-4.2855,-4.3371,-4.2976,-4.2616,-4.244,-4.149,-4.0903,-4.0903,-4.0417,-4.007,-4.0087,-4.0087,-3.9575,-3.8318,-3.8035,-3.7674,-3.6737,-3.6102,-3.5668,-3.5554,-3.5489,-3.5489,-3.5489,-3.5489,-3.5213,-3.4409,-3.331,-3.2307,-3.1536,-3.0482,-2.9856,-2.9779,-2.9779,-2.9365,-2.8267,-2.7197,-2.5641,-2.4135,-2.3309,-2.3144,-2.3144,-2.3252,-2.3428,-2.376,-2.3984,-2.4375,-2.4883,-2.5107,-2.5322,-2.5635,-2.5713,-2.5732,-2.5732,-2.5732,-2.5732,-2.5732,-2.5732,-2.5732,-2.5732,-2.5732,-2.5732,-0.2865,-0.6764,-0.6745,-0.4567,-0.0894,-0.0448,-0.1527,-0.3328,-0.351,-0.3687,-0.3942,-0.6106,-0.6999,-0.7258,-0.7149,-0.7401,-0.7998,-1.1048,-1.256,-1.3458,-1.9049,-2.1945,-2.2475,-2.7104,-3.0283,-3.1914,-3.4626,-3.6642,-3.7644,-3.851,-3.939,-4.0382,-4.0957,-4.123,-4.1289,-4.188,-4.2194,-4.2186,-4.2812,-4.2714,-4.1981,-4.2666,-4.3051,-4.297,-4.3066,-4.3451,-4.4143,-4.4145,-4.423,-4.4386,-4.4316,-4.4046,-4.3517,-4.3403,-4.3406,-4.3479,-4.2976,-4.248,-4.1937,-4.1268,-4.0903,-4.0856,-4.0449,-4.0121,-4.0138,-4.0138,-3.9782,-3.8978,-3.8799,-3.8157,-3.6828,-3.6492,-3.6165,-3.5668,-3.5504,-3.5489,-3.5489,-3.5489,-3.5439,-3.5374,-3.3754,-3.2536,-3.2249,-3.0921,-2.9856,-2.9779,-2.9779,-2.9365,-2.8267,-2.7197,-2.6047,-2.4798,-2.381,-2.3164,-2.3213,-2.3486,-2.3721,-2.3867,-2.4453,-2.4883,-2.5137,-2.542,-2.5703,-2.5674,-2.5732,-2.5732,-2.5732,-2.5732,-2.5732,-2.5732,-2.5732,-2.5732,-2.5732,-2.5732,-2.5732,0.3045,0.1163,-0.0178,0.0267,0.2053,0.2146,0.1609,0.0715,0.0626,0.0625,0.0357,-0.1872,-0.3659,-0.5095,-0.6456,-0.7088,-0.7245,-0.8574,-1.0262,-1.2385,-1.634,-1.9378,-2.2147,-2.5532,-2.8174,-3.0251,-3.3809,-3.5487,-3.5794,-3.7909,-3.9615,-4.0529,-4.1429,-4.1914,-4.1973,-4.2712,-4.3138,-4.3138,-4.3928,-4.4129,-4.3751,-4.3837,-4.395,-4.3965,-4.4325,-4.4701,-4.5009,-4.5066,-4.5111,-4.5163,-4.4806,-4.4474,-4.4165,-4.3744,-4.3479,-4.3444,-4.2657,-4.2382,-4.2772,-4.1629,-4.1041,-4.1402,-4.1241,-4.0861,-4.0221,-4.0368,-4.0285,-3.9697,-3.9193,-3.8564,-3.7987,-3.7128,-3.643,-3.618,-3.5782,-3.5489,-3.5489,-3.5489,-3.5489,-3.5424,-3.4327,-3.3171,-3.2464,-3.0983,-2.9934,-2.9779,-2.9779,-2.9365,-2.8255,-2.7197,-2.613,-2.4999,-2.4099,-2.3595,-2.3535,-2.3652,-2.3984,-2.4443,-2.4814,-2.5098,-2.543,-2.5566,-2.5732,-2.5732,-2.5732,-2.5732,-2.5732,-2.5732,-2.5732,-2.5732,-2.5732,-2.5732,-2.5732,-2.5732,-2.5732,0.7135,0.6853,0.5285,0.4559,0.4559,0.4559,0.4559,0.4559,0.4559,0.4559,0.4378,0.2675,0.098,-0.0891,-0.3751,-0.5458,-0.6171,-0.6841,-0.864,-1.1555,-1.4172,-1.7397,-2.111,-2.4259,-2.6621,-2.8796,-3.2377,-3.4562,-3.5146,-3.769,-3.9745,-4.0714,-4.1744,-4.2417,-4.2812,-4.3633,-4.4023,-4.4023,-4.4863,-4.531,-4.5164,-4.4984,-4.4878,-4.4905,-4.5379,-4.5635,-4.5603,-4.5586,-4.5513,-4.5303,-4.4853,-4.4501,-4.428,-4.3791,-4.3479,-4.3444,-4.2734,-4.26,-4.3444,-4.2149,-4.149,-4.1768,-4.181,-4.1313,-4.0449,-4.0577,-4.0625,-4.0154,-3.9542,-3.9193,-3.8783,-3.7716,-3.6919,-3.6615,-3.5943,-3.5489,-3.5489,-3.5489,-3.5489,-3.5424,-3.4543,-3.3533,-3.2321,-3.0846,-2.9779,-2.9779,-2.9779,-2.9624,-2.8597,-2.7464,-2.6257,-2.5466,-2.4615,-2.384,-2.3799,-2.4082,-2.4443,-2.4814,-2.5137,-2.54,-2.5684,-2.5713,-2.5732,-2.5732,-2.5732,-2.5732,-2.5732,-2.5732,-2.5732,-2.5732,-2.5732,-2.5732,-2.5732,-2.5732,-2.5732,0.7135,0.7131,0.7022,0.6824,0.692,0.6828,0.6917,0.6732,0.6824,0.6917,0.6735,0.6643,0.6653,0.5849,0.1248,-0.1692,-0.3833,-0.5769,-0.7789,-1.0048,-1.3528,-1.6637,-1.915,-2.35,-2.6187,-2.7402,-2.9868,-3.3634,-3.7953,-3.8681,-3.9564,-4.1104,-4.1743,-4.2505,-4.3594,-4.4512,-4.4824,-4.4746,-4.5625,-4.6191,-4.615,-4.5936,-4.5745,-4.5711,-4.5764,-4.5723,-4.5601,-4.5586,-4.5322,-4.4682,-4.4631,-4.4308,-4.3664,-4.3566,-4.3479,-4.3479,-4.341,-4.341,-4.341,-4.2884,-4.2342,-4.1955,-4.1937,-4.1375,-4.0483,-4.0703,-4.0733,-4.0154,-4.007,-3.9662,-3.9032,-3.8246,-3.7499,-3.6859,-3.6006,-3.5604,-3.5569,-3.5554,-3.5489,-3.5359,-3.4543,-3.331,-3.1596,-3.0419,-2.9856,-2.9779,-2.9779,-2.9727,-2.9465,-2.7938,-2.679,-2.645,-2.5357,-2.3809,-2.3877,-2.4336,-2.4834,-2.5176,-2.5439,-2.5664,-2.5703,-2.5732,-2.5732,-2.5732,-2.5732,-2.5732,-2.5732,-2.5732,-2.5732,-2.5732,-2.5732,-2.5732,-2.5732,-2.5732,-2.5732,0.7094,0.7084,0.7074,0.7071,0.7071,0.7068,0.7068,0.7071,0.7071,0.7068,0.7071,0.7071,0.7081,0.6828,0.2138,-0.0446,-0.1339,-0.2225,-0.5046,-0.9365,-1.198,-1.5133,-1.8768,-2.0611,-2.3,-2.5747,-2.7423,-3.1789,-3.8198,-3.97,-4.0495,-4.1264,-4.2676,-4.3767,-4.4449,-4.5369,-4.5781,-4.5742,-4.6133,-4.6289,-4.6289,-4.62,-4.6104,-4.5979,-4.5757,-4.5632,-4.5603,-4.5586,-4.54,-4.4943,-4.4707,-4.4364,-4.3881,-4.3631,-4.3479,-4.3444,-4.3178,-4.3124,-4.3375,-4.2976,-4.2616,-4.2422,-4.2696,-4.2346,-4.1508,-4.1358,-4.1223,-4.0703,-4.0237,-3.9935,-3.961,-3.8978,-3.8414,-3.8003,-3.6964,-3.6165,-3.6117,-3.5831,-3.5489,-3.5279,-3.4124,-3.2806,-3.2033,-3.0771,-2.9869,-2.9779,-2.9792,-2.9955,-2.9903,-2.8362,-2.7026,-2.7139,-2.6003,-2.4609,-2.4609,-2.4805,-2.5127,-2.541,-2.5654,-2.5693,-2.5732,-2.5732,-2.5732,-2.5732,-2.5732,-2.5732,-2.5732,-2.5732,-2.5732,-2.5732,-2.5732,-2.5732,-2.5732,-2.5732,-2.5732,0.7074,0.7143,0.7139,0.7139,0.7139,0.7139,0.7139,0.7139,0.7139,0.7139,0.7139,0.7139,0.7153,0.6627,0.3742,0.1248,-0.0,-0.0,-0.2308,-0.6611,-1.0125,-1.3724,-1.6984,-1.832,-2.0718,-2.4221,-2.6867,-3.1872,-3.8583,-4.0985,-4.1623,-4.1437,-4.3166,-4.4384,-4.5072,-4.586,-4.6247,-4.6289,-4.6289,-4.6289,-4.6289,-4.6248,-4.62,-4.6075,-4.5801,-4.5665,-4.5665,-4.5637,-4.5438,-4.5118,-4.48,-4.4364,-4.3881,-4.3631,-4.3479,-4.3444,-4.316,-4.3087,-4.3391,-4.316,-4.2902,-4.2732,-4.3142,-4.3014,-4.1979,-4.181,-4.149,-4.0967,-4.0417,-4.0087,-3.9952,-3.9385,-3.8908,-3.8745,-3.7526,-3.66,-3.6554,-3.5958,-3.5554,-3.5228,-3.3837,-3.282,-3.2379,-3.0846,-2.9998,-2.9792,-2.9917,-3.0244,-3.0269,-2.8822,-2.7517,-2.7811,-2.6349,-2.5332,-2.5156,-2.5293,-2.5352,-2.5596,-2.5674,-2.5713,-2.5732,-2.5732,-2.5732,-2.5732,-2.5732,-2.5732,-2.5732,-2.5732,-2.5732,-2.5732,-2.5732,-2.5732,-2.5732,-2.5732,-2.5732,0.7071,0.7143,0.7139,0.7139,0.7139,0.7139,0.7139,0.7139,0.7139,0.7139,0.7316,0.7139,0.7153,0.7081,0.6536,0.4378,-0.0,-0.0,-0.0,-0.0,-0.8511,-1.2783,-1.4594,-1.7357,-2.0352,-2.3468,-2.8279,-3.3976,-4.0101,-4.2193,-4.2846,-4.2322,-4.3126,-4.4357,-4.5568,-4.5916,-4.617,-4.625,-4.6269,-4.6289,-4.6289,-4.6198,-4.6124,-4.6104,-4.592,-4.5822,-4.579,-4.568,-4.5438,-4.5096,-4.4781,-4.4252,-4.3646,-4.3479,-4.3479,-4.3479,-4.3479,-4.3497,-4.3479,-4.3444,-4.3214,-4.2939,-4.3196,-4.2995,-4.2144,-4.1768,-4.149,-4.0949,-4.0417,-4.0087,-4.002,-3.9489,-3.9032,-3.8799,-3.76,-3.6661,-3.6554,-3.5943,-3.5489,-3.5213,-3.3837,-3.2664,-3.2249,-3.0996,-2.9882,-2.9955,-3.0244,-3.0633,-3.0686,-2.9295,-2.8381,-2.8076,-2.7062,-2.5864,-2.571,-2.5723,-2.5713,-2.5723,-2.5723,-2.5732,-2.5732,-2.5732,-2.5732,-2.5732,-2.5732,-2.5732,-2.5732,-2.5732,-2.5732,-2.5732,-2.5732,-2.5732,-2.5732,-2.5732,-2.5732,0.7146,0.7139,0.7139,0.7139,0.7139,0.7139,0.7139,0.7139,0.7139,0.7577,0.8101,0.7492,0.768,0.8308,0.7613,0.6269,0.4648,-0.0,-0.0,-0.0,-0.913,-1.346,-1.4355,-1.6505,-2.0423,-2.5048,-2.7769,-3.3741,-4.1121,-4.318,-4.3498,-4.3796,-4.4083,-4.4803,-4.5646,-4.5879,-4.6033,-4.6147,-4.615,-4.62,-4.6289,-4.6269,-4.625,-4.6223,-4.6075,-4.602,-4.6006,-4.5756,-4.5457,-4.5118,-4.4781,-4.427,-4.3664,-4.3479,-4.3479,-4.3479,-4.3479,-4.3479,-4.3479,-4.3479,-4.3444,-4.3268,-4.3087,-4.2808,-4.2382,-4.1664,-4.1178,-4.0856,-4.0417,-4.0087,-4.007,-3.9901,-3.9662,-3.9662,-3.7873,-3.6859,-3.6995,-3.6258,-3.5619,-3.5279,-3.3754,-3.2735,-3.2249,-3.1009,-3.0045,-3.0281,-3.0532,-3.0859,-3.1265,-3.0386,-2.942,-2.906,-2.7689,-2.632,-2.5915,-2.5732,-2.5732,-2.5732,-2.5732,-2.5732,-2.5732,-2.5732,-2.5732,-2.5732,-2.5732,-2.5732,-2.5732,-2.5732,-2.5732,-2.5732,-2.5732,-2.5732,-2.5732,-2.5732,-2.5732,0.7805,0.7757,0.7753,0.7749,0.7753,0.7753,0.7492,0.7228,0.7577,0.8193,0.8627,0.8101,0.8372,0.9091,0.8304,0.7517,0.6811,0.3842,0.1693,-0.0887,-0.7878,-1.168,-1.2617,-1.6614,-2.1226,-2.5997,-2.812,-3.3836,-4.3082,-4.3492,-4.3724,-4.4132,-4.4512,-4.4874,-4.5398,-4.5711,-4.5927,-4.6075,-4.6108,-4.617,-4.6269,-4.6289,-4.6289,-4.6269,-4.6173,-4.6113,-4.6099,-4.5832,-4.5577,-4.5304,-4.4905,-4.4308,-4.3758,-4.3563,-4.3479,-4.3479,-4.3479,-4.3479,-4.3479,-4.3479,-4.3479,-4.341,-4.3178,-4.2902,-4.2616,-4.1768,-4.1223,-4.0856,-4.0417,-4.0087,-4.007,-3.9782,-3.9662,-3.961,-3.8117,-3.71,-3.6951,-3.6148,-3.5554,-3.5133,-3.3768,-3.282,-3.2249,-3.1245,-3.0272,-3.057,-3.0972,-3.1311,-3.1813,-3.1308,-3.0472,-2.95,-2.814,-2.6968,-2.5887,-2.5732,-2.5732,-2.5732,-2.5732,-2.5732,-2.5732,-2.5732,-2.5732,-2.5732,-2.5732,-2.5732,-2.5732,-2.5732,-2.5732,-2.5732,-2.5732,-2.5732,-2.5732,-2.5732,-2.5732,0.8966,0.8911,0.8982,0.8978,0.8978,0.8978,0.836,0.7577,0.8364,0.889,0.9061,0.8803,0.9253,0.9611,0.9165,0.8116,0.7163,0.6723,0.4469,0.0446,-0.4743,-0.7934,-1.0597,-1.698,-2.2281,-2.6166,-2.8592,-3.4164,-4.1461,-4.2988,-4.3483,-4.3582,-4.4252,-4.4668,-4.4956,-4.5452,-4.5869,-4.604,-4.6064,-4.6117,-4.6269,-4.6269,-4.6289,-4.6289,-4.6198,-4.614,-4.6104,-4.591,-4.5777,-4.566,-4.4957,-4.4419,-4.4035,-4.3679,-4.3479,-4.3479,-4.3479,-4.3479,-4.3479,-4.341,-4.341,-4.3497,-4.3286,-4.3214,-4.2541,-4.1913,-4.1268,-4.0827,-4.0368,-4.0087,-3.9952,-3.961,-3.9156,-3.8799,-3.7946,-3.6995,-3.5782,-3.5569,-3.5489,-3.5213,-3.3905,-3.2635,-3.2561,-3.1457,-3.0782,-3.0959,-3.1574,-3.1918,-3.1808,-3.1315,-3.0594,-2.9407,-2.8143,-2.7115,-2.6004,-2.5732,-2.5732,-2.5732,-2.5732,-2.5732,-2.5732,-2.5732,-2.5732,-2.5732,-2.5732,-2.5732,-2.5732,-2.5732,-2.5732,-2.5732,-2.5732,-2.5732,-2.5732,-2.5732,-2.5732,0.9127,0.9161,0.9809,1.0178,1.0178,1.0183,0.9488,0.854,0.8715,0.9405,0.9836,0.9235,1.0391,1.2439,1.0038,0.8261,0.7379,0.7153,0.6818,0.4665,0.0182,-0.6838,-1.3026,-1.8,-2.1997,-2.5245,-2.8263,-3.1937,-3.6115,-4.1119,-4.3257,-4.3259,-4.4167,-4.4738,-4.5023,-4.5417,-4.5699,-4.5856,-4.5889,-4.5982,-4.6117,-4.615,-4.6202,-4.6289,-4.6268,-4.6246,-4.6223,-4.6008,-4.5667,-4.5304,-4.4858,-4.4419,-4.4046,-4.3693,-4.3479,-4.3479,-4.3479,-4.3479,-4.341,-4.3142,-4.3087,-4.3356,-4.2828,-4.2185,-4.2062,-4.1525,-4.0955,-4.0417,-4.0171,-4.0087,-4.007,-3.985,-3.9279,-3.8189,-3.744,-3.6569,-3.5782,-3.5489,-3.5489,-3.5279,-3.3754,-3.3071,-3.2709,-3.1859,-3.1014,-3.1562,-3.193,-3.2027,-3.1674,-3.1372,-3.0676,-2.8866,-2.7589,-2.6839,-2.6187,-2.582,-2.5732,-2.5732,-2.5732,-2.5732,-2.5732,-2.5732,-2.5732,-2.5732,-2.5732,-2.5732,-2.5732,-2.5732,-2.5732,-2.5732,-2.5732,-2.5732,-2.5732,-2.5732,-2.5732,1.029,1.0657,1.1237,1.1473,1.1305,1.1295,1.0443,0.9235,0.9405,0.9923,1.0356,0.9923,1.1257,1.3592,1.0992,0.8678,0.7257,0.7132,0.7081,0.5307,-0.2846,-0.8862,-1.309,-1.6769,-2.118,-2.4514,-2.7155,-3.0323,-3.4283,-3.9862,-4.2644,-4.3393,-4.4148,-4.4682,-4.4877,-4.5362,-4.5665,-4.5769,-4.5809,-4.5889,-4.6014,-4.606,-4.614,-4.6223,-4.6249,-4.6268,-4.612,-4.5981,-4.5735,-4.5376,-4.4909,-4.4501,-4.4252,-4.374,-4.3513,-4.3479,-4.3479,-4.3479,-4.341,-4.3032,-4.2976,-4.325,-4.2657,-4.2121,-4.1853,-4.1464,-4.1047,-4.0254,-4.0121,-4.0087,-4.002,-3.9833,-3.9049,-3.8035,-3.7084,-3.6337,-3.5619,-3.5489,-3.5489,-3.5133,-3.4221,-3.3184,-3.3436,-3.2249,-3.1944,-3.2059,-3.2403,-3.2056,-3.1492,-3.1187,-3.0305,-2.8402,-2.7315,-2.6754,-2.6197,-2.582,-2.5732,-2.5732,-2.5732,-2.5732,-2.5732,-2.5732,-2.5732,-2.5732,-2.5732,-2.5732,-2.5732,-2.5732,-2.5732,-2.5732,-2.5732,-2.5635,-2.5625,-2.543,-2.543,1.1999,1.2845,1.2903,1.2748,1.2522,1.2419,1.1214,0.9579,1.0096,1.0524,1.0524,1.0611,1.1854,1.3933,1.1505,0.9365,0.7421,0.7207,0.6748,0.2627,-0.5483,-1.2229,-1.1169,-1.6071,-2.0471,-2.4006,-2.5742,-2.934,-3.3976,-3.9226,-4.1913,-4.2706,-4.3652,-4.4417,-4.4625,-4.5184,-4.5632,-4.5733,-4.5761,-4.5796,-4.59,-4.5988,-4.608,-4.614,-4.6247,-4.6178,-4.6033,-4.5907,-4.5841,-4.5796,-4.5065,-4.4663,-4.4527,-4.3899,-4.3563,-4.3479,-4.3479,-4.3479,-4.3356,-4.2939,-4.2864,-4.325,-4.2921,-4.2382,-4.1895,-4.1725,-4.1241,-4.0154,-4.0121,-4.0087,-4.002,-3.9506,-3.8854,-3.8133,-3.7247,-3.6461,-3.5767,-3.5554,-3.5489,-3.5439,-3.4639,-3.4,-3.3518,-3.3158,-3.2774,-3.2449,-3.2632,-3.1968,-3.1276,-3.0563,-2.9304,-2.7484,-2.6945,-2.686,-2.6294,-2.5732,-2.5732,-2.5732,-2.5732,-2.5732,-2.5732,-2.5732,-2.5732,-2.5732,-2.5732,-2.5732,-2.5732,-2.5732,-2.5732,-2.5732,-2.5732,-2.5528,-2.5421,-2.502,-2.4922,1.209,1.3003,1.3799,1.3991,1.3756,1.3646,1.2345,1.0269,1.0438,1.0611,1.0611,1.0611,1.1923,1.3939,1.174,0.9976,0.8731,0.7654,0.6169,0.3087,-0.478,-1.1477,-1.3448,-1.707,-1.9911,-2.3132,-2.5497,-2.8799,-3.3371,-3.8191,-4.0978,-4.0185,-4.2719,-4.3893,-4.4065,-4.5023,-4.5603,-4.5651,-4.5651,-4.5723,-4.5808,-4.59,-4.6014,-4.6108,-4.6225,-4.6205,-4.608,-4.5947,-4.5881,-4.5698,-4.5304,-4.4896,-4.4553,-4.4136,-4.3791,-4.3548,-4.3479,-4.3479,-4.3321,-4.2752,-4.2462,-4.325,-4.2657,-4.1955,-4.1853,-4.181,-4.1241,-4.0385,-4.0087,-4.0087,-4.007,-3.9952,-3.9368,-3.8635,-3.7905,-3.716,-3.6446,-3.5831,-3.5554,-3.5368,-3.5049,-3.4626,-3.414,-3.3772,-3.3349,-3.3056,-3.2587,-3.1952,-3.1057,-3.0033,-2.8577,-2.6935,-2.638,-2.6294,-2.61,-2.5732,-2.5732,-2.5732,-2.5732,-2.5732,-2.5732,-2.5732,-2.5732,-2.5732,-2.5732,-2.5732,-2.5732,-2.5635,-2.5635,-2.5732,-2.5528,-2.4913,-2.4501,-2.4402,-2.4097,1.3164,1.3935,1.4517,1.4482,1.4122,1.4088,1.2778,1.0875,1.0611,1.0611,1.0611,1.0611,1.1912,1.3913,1.2248,1.0752,0.9356,0.7837,0.6497,0.3757,-0.273,-0.9672,-1.4898,-1.6978,-1.8968,-2.2553,-2.5359,-2.9012,-3.3782,-3.6894,-3.9011,-4.0107,-4.2339,-4.3484,-4.3826,-4.4791,-4.54,-4.5586,-4.5586,-4.5635,-4.5723,-4.5808,-4.5935,-4.6104,-4.6225,-4.6226,-4.6108,-4.5974,-4.5862,-4.5744,-4.549,-4.5096,-4.4631,-4.4204,-4.3849,-4.3563,-4.3479,-4.3479,-4.3267,-4.279,-4.2501,-4.305,-4.2501,-4.1961,-4.1664,-4.1621,-4.1258,-4.0434,-4.0087,-4.0087,-4.0087,-4.007,-3.9731,-3.8978,-3.8262,-3.7499,-3.6676,-3.5943,-3.5489,-3.5413,-3.518,-3.4768,-3.4361,-3.4068,-3.361,-3.3123,-3.2968,-3.2339,-3.0508,-2.9407,-2.8121,-2.6849,-2.61,-2.583,-2.583,-2.5732,-2.5732,-2.5732,-2.5732,-2.5732,-2.5732,-2.5732,-2.5732,-2.5732,-2.5732,-2.5732,-2.5732,-2.5635,-2.543,-2.4815,-2.4402,-2.389,-2.3484,-2.3076,-2.2767,1.4341,1.506,1.506,1.4629,1.4135,1.4088,1.2778,1.0783,1.0611,1.0611,1.0611,1.0611,1.1906,1.3385,1.2766,1.1182,0.9456,0.8288,0.7222,0.5733,-0.0375,-0.7184,-1.2689,-1.5473,-1.8218,-2.2438,-2.4553,-2.882,-3.2986,-3.566,-3.7978,-4.044,-4.2309,-4.2951,-4.362,-4.4468,-4.5165,-4.5512,-4.5586,-4.5603,-4.5616,-4.5708,-4.5862,-4.6099,-4.6225,-4.6202,-4.6075,-4.594,-4.5871,-4.5789,-4.5648,-4.5264,-4.4762,-4.429,-4.3881,-4.3529,-4.3479,-4.3479,-4.341,-4.3014,-4.2655,-4.2693,-4.2673,-4.2162,-4.1516,-4.149,-4.1241,-4.0642,-4.0204,-4.0087,-4.0087,-4.0087,-3.9799,-3.9156,-3.8374,-3.7515,-3.6859,-3.607,-3.5554,-3.5463,-3.5317,-3.5095,-3.4554,-3.411,-3.3632,-3.3259,-3.3091,-3.2426,-3.0598,-2.9131,-2.8038,-2.6935,-2.6197,-2.5732,-2.5732,-2.5732,-2.5732,-2.5732,-2.5732,-2.5732,-2.5732,-2.5732,-2.5732,-2.5732,-2.5732,-2.5732,-2.5732,-2.5732,-2.5128,-2.4205,-2.3899,-2.4097,-2.3176,-2.1946,-2.144,1.4341,1.506,1.506,1.4629,1.4135,1.4088,1.2778,1.0783,1.0611,1.0611,1.0611,1.0611,1.1906,1.3294,1.2851,1.1112,0.9479,0.8472,0.7886,0.6415,0.1301,-0.4352,-0.922,-1.4202,-1.7707,-2.0811,-2.2987,-2.6231,-3.1583,-3.606,-3.7512,-3.7438,-4.01,-4.2147,-4.2993,-4.3877,-4.4775,-4.5343,-4.553,-4.5586,-4.5599,-4.5684,-4.5802,-4.6075,-4.6223,-4.618,-4.6021,-4.5916,-4.5809,-4.5665,-4.564,-4.54,-4.503,-4.4657,-4.4165,-4.3679,-4.3513,-4.3479,-4.341,-4.305,-4.2732,-4.2693,-4.2693,-4.2382,-4.1835,-4.1647,-4.1268,-4.0797,-4.0286,-4.0087,-4.0087,-4.0087,-4.002,-3.9558,-3.8652,-3.7706,-3.7294,-3.6368,-3.5424,-3.5273,-3.5339,-3.5352,-3.4692,-3.4191,-3.3884,-3.3407,-3.3116,-3.2239,-3.0676,-2.9498,-2.8577,-2.7484,-2.6476,-2.6014,-2.5732,-2.5732,-2.5732,-2.5732,-2.5732,-2.5732,-2.5732,-2.5732,-2.5732,-2.5732,-2.5732,-2.5732,-2.5732,-2.5732,-2.5323,-2.4609,-2.451,-2.4402,-2.2567,-2.0837,-1.9922,1.4791,1.4957,1.4803,1.4489,1.4128,1.4088,1.3118,1.1552,1.0869,1.0956,1.1123,1.1037,1.1912,1.3476,1.3561,1.1912,1.0009,0.8364,0.7688,0.6179,0.3147,-0.1032,-0.6334,-1.2491,-1.6462,-1.9011,-2.0677,-2.4366,-3.0136,-3.4864,-3.6648,-3.7478,-3.9695,-4.1485,-4.2246,-4.3354,-4.4188,-4.4865,-4.5323,-4.5586,-4.5618,-4.5686,-4.5861,-4.5995,-4.6198,-4.6226,-4.612,-4.594,-4.5852,-4.5751,-4.5661,-4.54,-4.5118,-4.4757,-4.4346,-4.3868,-4.3597,-4.3479,-4.3479,-4.3214,-4.3014,-4.2732,-4.2693,-4.2382,-4.1895,-4.149,-4.1133,-4.0625,-4.0368,-4.0087,-4.0087,-4.0087,-3.9901,-3.9385,-3.8486,-3.7748,-3.7115,-3.6148,-3.5524,-3.5104,-3.5415,-3.5293,-3.4609,-3.4218,-3.4014,-3.3628,-3.324,-3.2064,-3.0765,-2.9761,-2.8855,-2.7295,-2.61,-2.6014,-2.5732,-2.5732,-2.5732,-2.5732,-2.5732,-2.5732,-2.5732,-2.5732,-2.5732,-2.5732,-2.5732,-2.543,-2.5635,-2.5635,-2.5323,-2.4716,-2.3791,-2.2776,-2.1253,-1.993,-1.9117,1.5224,1.4937,1.4643,1.4349,1.4115,1.4088,1.3294,1.1986,1.1295,1.13,1.1815,1.1381,1.2169,1.3652,1.3756,1.2711,1.0269,0.8277,0.7674,0.6593,0.4514,0.0934,-0.4188,-1.0582,-1.5698,-1.722,-1.8245,-2.2606,-2.8593,-3.2414,-3.4667,-3.6181,-3.8672,-4.0504,-4.1075,-4.2556,-4.3434,-4.438,-4.5109,-4.5566,-4.5665,-4.5782,-4.5899,-4.5924,-4.617,-4.6289,-4.618,-4.6021,-4.589,-4.5817,-4.5679,-4.5495,-4.5182,-4.4806,-4.4474,-4.4117,-4.3726,-4.3529,-4.3497,-4.3497,-4.3214,-4.275,-4.2693,-4.2342,-4.1853,-4.1313,-4.0733,-4.0254,-4.0087,-4.0087,-4.0087,-4.0087,-3.9731,-3.9032,-3.8302,-3.7515,-3.6753,-3.5991,-3.5394,-3.5213,-3.5563,-3.506,-3.4175,-3.3899,-3.3623,-3.3556,-3.3081,-3.2239,-3.0944,-2.9954,-2.8762,-2.6839,-2.583,-2.582,-2.5732,-2.5732,-2.5732,-2.5732,-2.5732,-2.5732,-2.5732,-2.5732,-2.5635,-2.5528,-2.502,-2.4913,-2.5226,-2.5333,-2.4716,-2.389,-2.2567,-2.1448,-2.0341,-1.9627,-1.8916,1.5224,1.4937,1.4636,1.4349,1.4108,1.4088,1.2863,1.1128,1.1724,1.1558,1.1128,1.1729,1.2772,1.3743,1.3711,1.1963,0.9946,0.8903,0.8063,0.6886,0.466,0.2128,-0.1505,-0.8649,-1.3366,-1.5511,-1.6267,-2.028,-2.597,-2.9414,-3.1477,-3.3561,-3.6597,-3.8381,-3.9546,-4.1686,-4.3293,-4.4183,-4.509,-4.5586,-4.5632,-4.5794,-4.5881,-4.5955,-4.6128,-4.6248,-4.615,-4.5995,-4.5872,-4.582,-4.5692,-4.5586,-4.5438,-4.4943,-4.4657,-4.4337,-4.3962,-4.3479,-4.3479,-4.3479,-4.3339,-4.2902,-4.2693,-4.2382,-4.1725,-4.1196,-4.0703,-4.0171,-4.007,-3.9952,-3.9952,-3.9969,-3.961,-3.887,-3.8019,-3.7338,-3.6631,-3.5943,-3.5329,-3.4946,-3.5093,-3.4321,-3.3403,-3.3329,-3.324,-3.3167,-3.2896,-3.2052,-3.0855,-2.9498,-2.8402,-2.6562,-2.5732,-2.5732,-2.5732,-2.5732,-2.5732,-2.5732,-2.5732,-2.5635,-2.5635,-2.5538,-2.543,-2.5226,-2.4609,-2.4196,-2.4402,-2.4402,-2.3989,-2.3176,-2.1954,-2.0947,-1.993,-1.922,-1.8506,1.4823,1.4689,1.4396,1.4208,1.4095,1.4088,1.3124,1.1901,1.2066,1.2066,1.1729,1.2066,1.2936,1.347,1.1599,1.0134,0.9566,0.8719,0.7867,0.6818,0.4701,0.2284,-0.102,-0.6397,-1.1106,-1.4145,-1.571,-1.8316,-2.3277,-2.7608,-3.0671,-3.2444,-3.5552,-3.7745,-3.8325,-4.0753,-4.2287,-4.3543,-4.4718,-4.5549,-4.5665,-4.5801,-4.5899,-4.5907,-4.615,-4.623,-4.6175,-4.5995,-4.589,-4.5836,-4.5718,-4.5603,-4.5438,-4.5011,-4.458,-4.4527,-4.3899,-4.3513,-4.3479,-4.3479,-4.3339,-4.3014,-4.2541,-4.1768,-4.1105,-4.0874,-4.0655,-4.0171,-3.9662,-3.9489,-3.9315,-3.8995,-3.8398,-3.7774,-3.7499,-3.6874,-3.6243,-3.5894,-3.5288,-3.4966,-3.4496,-3.3674,-3.313,-3.3359,-3.3246,-3.2884,-3.2525,-3.1777,-3.0033,-2.8028,-2.7115,-2.611,-2.5732,-2.5732,-2.5732,-2.5732,-2.5732,-2.5732,-2.5732,-2.5635,-2.544,-2.5333,-2.5226,-2.4402,-2.3384,-2.3276,-2.3583,-2.3176,-2.2567,-2.2055,-2.1448,-2.0333,-1.9324,-1.8603,-1.7996,1.4482,1.4389,1.4175,1.4088,1.4088,1.4088,1.3209,1.198,1.2595,1.2419,1.2157,1.2419,1.3033,1.2589,1.0186,0.9343,0.9479,0.7921,0.7245,0.6358,0.4663,0.2353,-0.0368,-0.4652,-0.8726,-1.3791,-1.5256,-1.7995,-2.1609,-2.5426,-2.8688,-3.1315,-3.4336,-3.6224,-3.7576,-3.9928,-4.226,-4.3923,-4.489,-4.5438,-4.5596,-4.5794,-4.5872,-4.5981,-4.6133,-4.6289,-4.625,-4.6039,-4.5899,-4.5872,-4.5713,-4.5549,-4.5381,-4.4919,-4.4508,-4.4337,-4.3791,-4.3391,-4.3375,-4.3375,-4.3444,-4.316,-4.2444,-4.1402,-4.0417,-4.048,-4.0607,-4.0121,-3.9714,-3.9315,-3.8854,-3.8486,-3.7831,-3.7306,-3.6722,-3.618,-3.5589,-3.5249,-3.4868,-3.4423,-3.3832,-3.3098,-3.2881,-3.343,-3.3354,-3.2784,-3.2152,-3.1323,-2.9498,-2.7115,-2.638,-2.5732,-2.5732,-2.5732,-2.5732,-2.5732,-2.5732,-2.5732,-2.5732,-2.5635,-2.5538,-2.5128,-2.4815,-2.3791,-2.2466,-2.1853,-2.1862,-2.1448,-2.1143,-2.0735,-2.0231,-1.9517,-1.8708,-1.7989,-1.7687,1.4355,1.4115,1.4095,1.4088,1.4088,1.4088,1.2778,1.1128,1.3039,1.2778,1.1649,1.2772,1.2778,1.1295,1.0692,0.93,0.7573,0.7228,0.7156,0.6355,0.4656,0.2529,-0.0,-0.0,-0.586,-1.3478,-1.5461,-1.7757,-2.0534,-2.2524,-2.5644,-2.8403,-3.2013,-3.382,-3.6216,-3.9425,-4.2481,-4.4121,-4.501,-4.5284,-4.5541,-4.5776,-4.59,-4.5959,-4.6144,-4.6289,-4.6289,-4.6039,-4.5899,-4.589,-4.5708,-4.5438,-4.5201,-4.483,-4.4482,-4.4106,-4.3758,-4.3321,-4.3069,-4.325,-4.3444,-4.316,-4.2386,-4.1241,-4.0254,-4.007,-4.007,-3.9901,-3.9368,-3.9139,-3.8908,-3.8635,-3.7483,-3.6859,-3.6275,-3.6054,-3.5429,-3.4662,-3.4221,-3.3799,-3.3209,-3.242,-3.1902,-3.2269,-3.229,-3.1748,-3.0765,-3.0045,-2.8773,-2.6849,-2.6197,-2.5732,-2.5732,-2.5732,-2.5732,-2.5732,-2.5732,-2.5732,-2.5732,-2.5732,-2.5635,-2.5118,-2.4402,-2.3285,-2.2064,-2.1049,-2.0135,-1.993,-1.9723,-1.942,-1.9013,-1.8499,-1.8304,-1.7786,-1.7687,1.4188,1.4088,1.4088,1.4088,1.4088,1.4088,1.2778,1.1214,1.3039,1.3652,1.2778,1.3561,1.3209,1.1632,0.9407,0.8831,0.8093,0.7404,0.7241,0.6989,0.5833,0.3506,-0.0,-0.0,-0.3946,-1.0341,-1.3779,-1.6623,-1.8824,-2.0257,-2.2356,-2.5441,-2.9465,-3.2678,-3.5569,-3.8874,-4.2027,-4.3606,-4.4478,-4.4862,-4.5526,-4.5736,-4.5861,-4.5916,-4.6069,-4.6223,-4.623,-4.6039,-4.5932,-4.5852,-4.5694,-4.5418,-4.5137,-4.48,-4.4419,-4.4046,-4.3712,-4.325,-4.2902,-4.3087,-4.3196,-4.2386,-4.169,-4.092,-4.0204,-3.9731,-3.9437,-3.9139,-3.8619,-3.8173,-3.7658,-3.7084,-3.6352,-3.607,-3.5894,-3.5782,-3.5299,-3.4447,-3.3876,-3.3534,-3.2657,-3.1739,-3.1281,-3.0926,-3.0842,-3.0545,-2.9657,-2.868,-2.7494,-2.6668,-2.6014,-2.5732,-2.5732,-2.5732,-2.5732,-2.5732,-2.5732,-2.5625,-2.5528,-2.5323,-2.502,-2.4599,-2.3692,-2.2667,-2.1448,-2.0128,-1.9213,-1.8603,-1.8401,-1.8401,-1.8199,-1.7891,-1.7687,-1.7589,-1.7589,1.4088,1.4088,1.4088,1.4088,1.4088,1.4088,1.2778,1.1214,1.3045,1.4088,1.4088,1.4024,1.3228,1.1353,0.9329,0.7941,0.8006,0.7492,0.7241,0.6986,0.6542,0.4563,0.208,-0.0092,-0.2069,-0.6705,-1.2554,-1.6471,-1.7203,-1.7991,-2.0439,-2.3569,-2.6794,-3.0121,-3.3914,-3.8134,-4.1308,-4.2685,-4.3655,-4.4516,-4.5323,-4.5703,-4.5859,-4.5924,-4.608,-4.6202,-4.6208,-4.6069,-4.5916,-4.5841,-4.5703,-4.5419,-4.5118,-4.4781,-4.4401,-4.4046,-4.3675,-4.325,-4.2939,-4.2714,-4.2657,-4.1979,-4.134,-4.078,-4.0235,-3.9508,-3.9086,-3.8854,-3.7815,-3.6859,-3.6676,-3.6399,-3.607,-3.5831,-3.5733,-3.5539,-3.5037,-3.4327,-3.3808,-3.3339,-3.2169,-3.0814,-3.0249,-2.9707,-2.9063,-2.8733,-2.7936,-2.7358,-2.6839,-2.6197,-2.5917,-2.5732,-2.5732,-2.5732,-2.5732,-2.5732,-2.5528,-2.4707,-2.4599,-2.4295,-2.3989,-2.3583,-2.2667,-2.1355,-2.0135,-1.9013,-1.8401,-1.8094,-1.7891,-1.7687,-1.7589,-1.7589,-1.7589,-1.7589,-1.7589,1.4088,1.4088,1.4088,1.4088,1.4088,1.4088,1.2778,1.0956,1.2778,1.3906,1.4095,1.407,1.2924,1.0961,0.9461,0.8424,0.7746,0.7316,0.7143,0.7149,0.7078,0.5455,0.3443,0.1387,-0.0944,-0.285,-0.8215,-1.3213,-1.5576,-1.634,-1.8824,-2.1813,-2.4598,-2.7644,-3.1047,-3.5988,-3.9699,-4.2016,-4.3059,-4.4175,-4.4985,-4.5514,-4.566,-4.5869,-4.5986,-4.6092,-4.6229,-4.6039,-4.5907,-4.5862,-4.5694,-4.5438,-4.5118,-4.483,-4.4455,-4.4046,-4.3726,-4.3267,-4.275,-4.2221,-4.1871,-4.1639,-4.1041,-4.0703,-4.0525,-3.9767,-3.8816,-3.8635,-3.7905,-3.7203,-3.6843,-3.6446,-3.5943,-3.5718,-3.5554,-3.5198,-3.4758,-3.3973,-3.331,-3.2437,-3.097,-2.9661,-2.9065,-2.8398,-2.7464,-2.6822,-2.6209,-2.5925,-2.5954,-2.5917,-2.5732,-2.5732,-2.5732,-2.5732,-2.5732,-2.5732,-2.5323,-2.4393,-2.3782,-2.3683,-2.3076,-2.2458,-2.1448,-2.0135,-1.9524,-1.9013,-1.8304,-1.7694,-1.7589,-1.7589,-1.7589,-1.7589,-1.7589,-1.7589,-1.7589,1.4088,1.4088,1.4088,1.4088,1.4088,1.4088,1.2778,1.0961,1.1477,1.2607,1.3919,1.4122,1.3326,1.145,0.9334,0.8134,0.8185,0.7228,0.7139,0.7143,0.7074,0.6719,0.498,0.2221,-0.0662,-0.2569,-0.6257,-0.9064,-1.2289,-1.4508,-1.6805,-1.9546,-2.3206,-2.7228,-3.1635,-3.6066,-3.9291,-4.0672,-4.2268,-4.3811,-4.4632,-4.497,-4.5235,-4.5549,-4.5715,-4.5933,-4.625,-4.6045,-4.5924,-4.5881,-4.5708,-4.5456,-4.5201,-4.4919,-4.4612,-4.4175,-4.3786,-4.3263,-4.2368,-4.1595,-4.1258,-4.1059,-4.0797,-4.0449,-4.0252,-3.9475,-3.8799,-3.8189,-3.7557,-3.6798,-3.5991,-3.5894,-3.5619,-3.5554,-3.5344,-3.4971,-3.4394,-3.338,-3.2522,-3.1349,-3.0063,-2.8084,-2.6962,-2.7167,-2.6476,-2.5789,-2.5208,-2.5457,-2.5614,-2.5761,-2.5732,-2.5732,-2.5732,-2.5732,-2.5732,-2.5732,-2.4913,-2.3791,-2.3384,-2.3285,-2.2567,-2.1338,-2.0735,-1.9627,-1.942,-1.922,-1.8304,-1.7589,-1.7589,-1.7589,-1.7589,-1.7589,-1.7589,-1.7589,-1.7589,1.4088,1.4088,1.4088,1.4088,1.4088,1.4088,1.313,1.1821,1.1047,1.1912,1.3743,1.4115,1.3404,1.1707,0.9866,0.8198,0.8807,0.7665,0.7139,0.7143,0.7153,0.6986,0.5795,0.3882,0.1219,-0.1139,-0.2231,-0.4137,-1.2824,-1.4844,-1.6633,-1.8859,-2.1983,-2.6077,-3.042,-3.395,-3.7158,-3.8805,-4.087,-4.2341,-4.3485,-4.4341,-4.4739,-4.521,-4.5528,-4.5757,-4.6072,-4.6093,-4.5932,-4.5872,-4.5738,-4.5528,-4.5304,-4.5055,-4.47,-4.4158,-4.3531,-4.296,-4.2026,-4.1613,-4.1331,-4.0949,-4.0417,-4.0237,-4.012,-3.9492,-3.8635,-3.7905,-3.7084,-3.6337,-3.5718,-3.5619,-3.5489,-3.5489,-3.5344,-3.4971,-3.4095,-3.3087,-3.2164,-3.0917,-2.9397,-2.7221,-2.5305,-2.5508,-2.5571,-2.4883,-2.4277,-2.4766,-2.5244,-2.541,-2.5508,-2.5508,-2.5518,-2.547,-2.5596,-2.5732,-2.4707,-2.3276,-2.2776,-2.2466,-2.0845,-1.9413,-1.9317,-1.9213,-1.8812,-1.8408,-1.7996,-1.7589,-1.7589,-1.7589,-1.7589,-1.7589,-1.7589,-1.7589,-1.7589,1.4088,1.4088,1.4088,1.4088,1.4088,1.3997,1.3822,1.3737,1.1563,1.1912,1.4088,1.4083,1.3534,1.2448,1.1116,1.0154,0.9069,0.7841,0.7316,0.7139,0.7146,0.7068,0.7128,0.6333,0.3359,0.1142,-0.0583,-0.3857,-1.3794,-1.4045,-1.5108,-1.8263,-2.113,-2.4556,-2.7818,-3.0692,-3.4184,-3.7164,-3.9316,-4.1025,-4.2667,-4.3606,-4.4241,-4.4836,-4.5324,-4.5721,-4.6049,-4.6167,-4.5982,-4.5861,-4.5769,-4.565,-4.5454,-4.5243,-4.4556,-4.3823,-4.3084,-4.251,-4.1793,-4.1552,-4.1241,-4.078,-4.0385,-4.0449,-4.0317,-3.9698,-3.8978,-3.8149,-3.7381,-3.6523,-3.5782,-3.5668,-3.5489,-3.5489,-3.5489,-3.4839,-3.3959,-3.3017,-3.2105,-3.0843,-2.9241,-2.7256,-2.5115,-2.4773,-2.4995,-2.4233,-2.3809,-2.3955,-2.4443,-2.4932,-2.5029,-2.4993,-2.5063,-2.5257,-2.5305,-2.4849,-2.3647,-2.1812,-2.155,-2.1049,-1.9317,-1.808,-1.8304,-1.8304,-1.7891,-1.7589,-1.7589,-1.7589,-1.7589,-1.7589,-1.7589,-1.7589,-1.7589,-1.7589,-1.7589,1.4088,1.4088,1.4088,1.4088,1.3997,1.3209,1.2851,1.2589,1.1209,1.1906,1.4088,1.4115,1.3848,1.3568,1.3218,1.1796,1.0289,0.8973,0.7925,0.7492,0.7316,0.7143,0.7115,0.6859,0.5032,0.2945,0.0484,-0.0,-0.4773,-0.7796,-1.278,-1.6355,-1.9751,-2.2417,-2.4903,-2.7036,-3.1498,-3.5263,-3.753,-3.9705,-4.1547,-4.2577,-4.3493,-4.4341,-4.4932,-4.5444,-4.6067,-4.6178,-4.5969,-4.5634,-4.552,-4.5321,-4.4881,-4.4757,-4.4325,-4.35,-4.303,-4.2553,-4.1481,-4.1178,-4.0949,-4.0528,-4.0204,-4.0154,-4.0137,-3.9851,-3.9209,-3.8414,-3.769,-3.6935,-3.6117,-3.5831,-3.5459,-3.5279,-3.5133,-3.4476,-3.3518,-3.2423,-3.1422,-2.9603,-2.8004,-2.6591,-2.4628,-2.4317,-2.444,-2.373,-2.3379,-2.3486,-2.374,-2.4268,-2.456,-2.4536,-2.4438,-2.4517,-2.3629,-2.3107,-2.182,-2.0554,-2.0413,-1.9903,-1.8497,-1.7691,-1.766,-1.7589,-1.7589,-1.7589,-1.7589,-1.7589,-1.7589,-1.7589,-1.7589,-1.7589,-1.7589,-1.7589,-1.7589,1.4088,1.4088,1.4088,1.373,1.3105,1.2583,1.2322,1.2151,1.1552,1.2425,1.3997,1.4088,1.4088,1.401,1.3907,1.3028,1.13,1.0091,0.8969,0.8101,0.7669,0.7492,0.7279,0.6995,0.6302,0.4346,-0.0,-0.0,-0.0,-0.0,-0.7563,-1.4045,-1.7781,-2.1078,-2.3604,-2.576,-2.8346,-3.219,-3.5291,-3.7687,-3.9504,-4.1217,-4.2653,-4.381,-4.4384,-4.518,-4.6133,-4.6172,-4.591,-4.5503,-4.5364,-4.5093,-4.4575,-4.4289,-4.372,-4.2939,-4.2591,-4.2019,-4.1161,-4.0949,-4.0525,-4.0186,-4.0003,-3.9679,-3.9662,-3.9454,-3.9049,-3.8486,-3.7978,-3.7472,-3.6692,-3.5976,-3.5415,-3.492,-3.4491,-3.3973,-3.2862,-3.1748,-3.0024,-2.814,-2.6707,-2.5368,-2.4542,-2.4372,-2.4049,-2.3436,-2.3223,-2.3252,-2.3467,-2.3838,-2.4082,-2.418,-2.3903,-2.3655,-2.2667,-2.1784,-2.0835,-1.9937,-1.9491,-1.8824,-1.7661,-1.7355,-1.7388,-1.7482,-1.7589,-1.7555,-1.7488,-1.7569,-1.7589,-1.7569,-1.7562,-1.7575,-1.7575,-1.7589,-1.7589,1.4088,1.4088,1.4088,1.3366,1.2128,1.2407,1.2504,1.2413,1.2504,1.3033,1.3997,1.4088,1.4088,1.4102,1.4064,1.3351,1.1997,1.0864,0.9662,0.889,0.8277,0.7841,0.7319,0.7094,0.6791,0.5528,-0.0,-0.0,-0.0,-0.0,-0.4724,-1.0929,-1.6943,-2.0706,-2.2938,-2.4191,-2.6206,-2.837,-3.1653,-3.4337,-3.6814,-3.9139,-4.1626,-4.3309,-4.4076,-4.4766,-4.5879,-4.6191,-4.5996,-4.555,-4.519,-4.4921,-4.4218,-4.3745,-4.3061,-4.2613,-4.2304,-4.1704,-4.1115,-4.078,-4.0297,-4.0018,-3.9868,-3.9069,-3.8761,-3.9209,-3.8924,-3.8246,-3.769,-3.6993,-3.6198,-3.5721,-3.5264,-3.4558,-3.3973,-3.3185,-3.2092,-3.0729,-2.8868,-2.7186,-2.5964,-2.4713,-2.3887,-2.3637,-2.3627,-2.3222,-2.3144,-2.3144,-2.3076,-2.3357,-2.3464,-2.357,-2.3114,-2.2649,-2.1905,-2.1024,-2.0305,-1.9462,-1.8708,-1.8188,-1.7259,-1.7088,-1.7208,-1.7241,-1.7261,-1.7368,-1.7375,-1.7415,-1.7442,-1.7475,-1.7482,-1.7542,-1.7549,-1.7502,-1.7562,1.4088,1.4088,1.4088,1.3822,1.3548,1.3639,1.3646,1.3646,1.3646,1.3822,1.4082,1.4088,1.4088,1.4095,1.4108,1.3483,1.2339,1.1558,1.0009,0.8973,0.8364,0.7925,0.7228,0.7156,0.7098,0.6945,0.5556,-0.0,-0.0,-0.0,-0.0,-0.4428,-1.2501,-1.9682,-2.0499,-2.169,-2.3281,-2.5328,-2.8354,-3.1324,-3.3936,-3.7028,-3.9797,-4.1507,-4.2611,-4.4427,-4.5547,-4.6211,-4.5484,-4.471,-4.446,-4.3951,-4.3208,-4.3153,-4.2995,-4.2625,-4.2185,-4.1626,-4.1052,-4.0559,-3.9952,-3.9406,-3.9016,-3.8157,-3.793,-3.8674,-3.8745,-3.7905,-3.7188,-3.6476,-3.5854,-3.5449,-3.4854,-3.4124,-3.338,-3.2321,-3.1241,-2.9449,-2.7716,-2.6427,-2.5294,-2.4382,-2.3387,-2.3047,-2.3144,-2.3144,-2.3144,-2.3047,-2.2677,-2.2742,-2.2682,-2.265,-2.203,-2.1545,-2.0873,-2.0087,-1.9184,-1.8349,-1.7457,-1.7025,-1.6673,-1.6767,-1.6867,-1.686,-1.6887,-1.7021,-1.7128,-1.7154,-1.7194,-1.7255,-1.7315,-1.7335,-1.7288,-1.7235,-1.7388,1.4088,1.4088,1.4088,1.4088,1.4088,1.4088,1.4088,1.4088,1.4088,1.4088,1.4088,1.4088,1.4088,1.4088,1.4088,1.3906,1.3033,1.2516,1.1219,0.9836,0.8965,0.8101,0.7665,0.7401,0.7165,0.7289,0.8543,-0.0,-0.0,-0.0,-0.0,-0.0,-0.0,-1.4431,-1.5178,-1.7498,-1.9845,-2.3164,-2.6023,-2.8355,-3.1083,-3.4528,-3.7278,-3.9118,-4.1083,-4.308,-4.4528,-4.5352,-4.5682,-4.4739,-4.4284,-4.329,-4.2649,-4.2472,-4.2433,-4.2213,-4.1831,-4.1445,-4.0915,-4.0334,-3.9594,-3.8924,-3.8816,-3.823,-3.6631,-3.7263,-3.77,-3.7024,-3.6964,-3.6384,-3.5507,-3.4999,-3.3739,-3.2763,-3.2078,-3.1201,-2.968,-2.7888,-2.6191,-2.4702,-2.3963,-2.38,-2.295,-2.2306,-2.2403,-2.2862,-2.296,-2.2862,-2.2492,-2.1943,-2.1943,-2.1667,-2.0935,-2.0494,-2.0071,-1.9074,-1.7903,-1.7001,-1.6386,-1.6393,-1.6393,-1.6466,-1.652,-1.6587,-1.666,-1.6754,-1.684,-1.6867,-1.6901,-1.6947,-1.7027,-1.7094,-1.7027,-1.6954,-1.7027,1.4088,1.4088,1.4088,1.4088,1.4088,1.4088,1.4088,1.4088,1.4088,1.4088,1.4088,1.4088,1.4088,1.4088,1.4088,1.4088,1.3822,1.3124,1.2083,1.1541,1.0849,1.0139,0.9274,0.8428,0.8247,0.8643,0.9779,0.7729,-0.0,-0.0,-0.0,-0.0,-0.0,-0.3498,-0.8214,-1.1128,-1.3259,-2.0077,-2.3742,-2.4947,-2.8134,-3.1947,-3.4562,-3.6787,-3.8929,-4.0952,-4.2679,-4.4406,-4.5714,-4.4963,-4.3885,-4.2931,-4.2222,-4.1943,-4.2044,-4.1877,-4.1473,-4.1233,-4.092,-4.0449,-3.9282,-3.8486,-3.8652,-3.7905,-3.629,-3.5943,-3.6384,-3.6492,-3.6446,-3.5885,-3.5005,-3.433,-3.2989,-3.1449,-3.0768,-3.0151,-2.8354,-2.6625,-2.5052,-2.3464,-2.3299,-2.3212,-2.2668,-2.2022,-2.1845,-2.2403,-2.2492,-2.2492,-2.2217,-2.1489,-2.1123,-2.0486,-1.9662,-1.9322,-1.9072,-1.8481,-1.7261,-1.6524,-1.6092,-1.6099,-1.6119,-1.6179,-1.6279,-1.6426,-1.65,-1.6466,-1.652,-1.6567,-1.6607,-1.6647,-1.6807,-1.6881,-1.6714,-1.6647,-1.6607,1.4088,1.4088,1.4088,1.4088,1.4088,1.4088,1.4088,1.4088,1.4166,1.4088,1.4166,1.4082,1.4088,1.4088,1.4088,1.4088,1.3997,1.347,1.3516,1.3218,1.2269,1.2149,1.1957,1.1107,0.9976,0.9619,1.0159,1.1427,0.9372,1.0529,-0.0,-0.0,-0.0,-0.0792,-0.1093,-0.4336,-0.8609,-1.556,-1.8357,-1.8839,-2.6282,-3.002,-3.2815,-3.5492,-3.8374,-4.0526,-4.2622,-4.491,-4.533,-4.4631,-4.3246,-4.2445,-4.1893,-4.151,-4.1464,-4.1725,-4.1268,-4.1196,-4.0938,-4.0466,-3.9351,-3.8092,-3.8035,-3.7456,-3.6243,-3.5604,-3.5831,-3.5831,-3.5544,-3.4751,-3.3984,-3.3901,-3.2876,-3.0781,-2.9614,-2.8954,-2.7832,-2.6284,-2.4787,-2.3963,-2.3551,-2.3299,-2.296,-2.2217,-2.1302,-2.1578,-2.1391,-2.1302,-2.1302,-2.0755,-2.0215,-1.9397,-1.8488,-1.8033,-1.7777,-1.787,-1.708,-1.6305,-1.5838,-1.5925,-1.5952,-1.5899,-1.5999,-1.6166,-1.6119,-1.6039,-1.6119,-1.6286,-1.6313,-1.6386,-1.6613,-1.668,-1.648,-1.6346,-1.6306]},{"header":{"parameterUnit":"m.s-1","parameterCategory":1,"la1":31.0,"la2":29.5877,"lo1":-88.7671,"lo2":-86.6584,"dy":0.0162,"dx":0.0185,"nx":115,"ny":88,"refTime":"2023-07-29T06:00:00:Z","depth":0,"parameterNumber":3,"parameterNumberName":"V-component_of_WINDS"},"data":[0.0,0.0,0.0,0.0,0.0,0.0,0.0,0.0,0.0,0.0,0.0,0.0,0.0,0.0,0.0,0.0,0.0,0.0,0.0,0.0,0.0,0.0,0.0,0.0,0.0,0.0,0.0,0.0,0.0,0.0,0.0,0.0,0.0,0.0,0.0,0.0,0.0,0.0,0.0,0.0,0.0,0.0,0.0,0.0,0.0,0.0,0.0,0.0,0.0,0.0,0.0,0.0,0.0,0.0,0.0,0.0,0.0,0.0,0.0,0.0,0.0,0.0,0.0,0.0,0.0,0.0,0.0,0.0,0.0,0.0,0.0,0.0,0.0,0.0,0.0,0.0,0.0,0.0,0.0,0.0,0.0,0.0,0.0,0.0,0.0,0.0,0.0,0.0,0.0,0.0,0.0,0.0,0.0,0.0,0.0,0.0,0.0,0.0,0.0,0.0,0.0,0.0,0.0,0.0,0.0,0.0,0.0,0.0,0.0,0.0,0.0,0.0,0.0,0.0,0.0,0.0,0.0,0.0,0.0,0.0,0.0,0.0,0.0,0.0,0.0,0.0,0.0,0.0,0.0,0.0,0.0,0.0,0.0,0.0,0.0,0.0,0.0,0.0,0.0,0.0,0.0,0.0,0.0,0.0,0.0,0.0,0.0,0.0,0.0,0.0,0.0,0.0,0.0,0.0,0.0,0.0,0.0,0.0,0.0,0.0,0.0,0.0,0.0,0.0,0.0,0.0,0.0,0.0,0.0,0.0,0.0,0.0,0.0,0.0,0.0,0.0,0.0,0.0,0.0,0.0,0.0,0.0,0.0,0.0,0.0,0.0,0.0,0.0,0.0,0.0,0.0,0.0,0.0,0.0,0.0,0.0,0.0,0.0,0.0,0.0,0.0,0.0,0.0,0.0,0.0,0.0,0.0,0.0,0.0,0.0,0.0,0.0,0.0,0.0,0.0,0.0,0.0,0.0,0.0,0.0,0.0,0.0,0.0,0.0,0.0,0.0,0.0,0.0,0.0,0.0,0.0,0.0,0.0,0.0,0.0,0.0,0.0,0.0,0.0,0.0,0.0,0.0,0.0,0.0,0.0,0.0,0.0,0.0,0.0,0.0,0.0,0.0,0.0,0.0,0.0,0.0,0.0,0.0,0.0,0.0,0.0,0.0,0.0,0.0,0.0,0.0,0.0,0.0,0.0,0.0,0.0,0.0,0.0,0.0,0.0,0.0,0.0,0.0,0.0,0.0,0.0,0.0,0.0,0.0,0.0,0.0,0.0,0.0,0.0,0.0,0.0,0.0,0.0,0.0,0.0,0.0,0.0,0.0,0.0,0.0,0.0,0.0,0.0,0.0,0.0,0.0,0.0,0.0,0.0,0.0,0.0,0.0,0.0,0.0,0.0,0.0,0.0,0.0,0.0,0.0,0.0,0.0,0.0,0.0,0.0,0.0,0.0,0.0,0.0,0.0,0.0,0.0,0.0,0.0,0.0,0.0,0.0,0.0,0.0,0.0,0.0,0.0,0.0,0.0,0.0,0.0,0.0,0.0,0.0,0.0,0.0,0.0,0.0,0.0,0.0,0.0,0.0,0.0,0.0,0.0,0.0,0.0,0.0,0.0,0.0,0.0,0.0,0.0,0.0,0.0,0.0,0.0,0.0,0.0,0.0,0.0,0.0,0.0,0.0,0.0,0.0,0.0,0.0,0.0,0.0,0.0,0.0,0.0,0.0,0.0,0.0,0.0,0.0,0.0,0.0,0.0,0.0,0.0,0.0,0.0,0.0,0.0,0.0,0.0,0.0,0.0,0.0,0.0,0.0,0.0,0.0,0.0,0.0,0.0,0.0,0.0,0.0,0.0,0.0,0.0,0.0,0.0,0.0,0.0,0.0,0.0,0.0,0.0,0.0,0.0,0.0,0.0,0.0,0.0,0.0,0.0,0.0,0.0,0.0,0.0,0.0,0.0,0.0,0.0,0.0,0.0,0.0,0.0,0.0,0.0,0.0,0.0,0.0,0.0,0.0,0.0,0.0,0.0,0.0,0.0,0.0,0.0,0.0,0.0,0.0,0.0,0.0,0.0,0.0,0.0,0.0,0.0,0.0,0.0,0.0,0.0,0.0,0.0,0.0,0.0,0.0,0.0,0.0,0.0,0.0,0.0,0.0,0.0,0.0,0.0,0.0,0.0,0.0,0.0,0.0,0.0,0.0,0.0,0.0,0.0,0.0,0.0,0.0,0.0,0.0,0.0,0.0,0.0,0.0,0.0,0.0,0.0,0.0,0.0,0.0,0.0,0.0,0.0,0.0,0.0,0.0,0.0,0.0,0.0,0.0,0.0,0.0,0.0,0.0,0.0,0.0,0.0,0.0,0.0,0.0,0.0,0.0,0.0,0.0,0.0,0.0,0.0,0.0,0.0,0.0,0.0,0.0,0.0,0.0,0.0,0.0,0.0,0.0,0.0,0.0,0.0,0.0,0.0,0.0,0.0,0.0,0.0,0.0,0.0,0.0,0.0,0.0,0.0,0.0,0.0,0.0,0.0,0.0,0.0,0.0,0.0,0.0,0.0,0.0,0.0,0.0,0.0,0.0,0.0,0.0,0.0,0.0,0.0,0.0,0.0,0.0,0.0,0.0,0.0,0.0,0.0,0.0,0.0,0.0,0.0,0.0,0.0,0.0,0.0,0.0,0.0,0.0,0.0,0.0,0.0,0.0,0.0,0.0,0.0,0.0,0.0,0.0,0.0,0.0,0.0,0.0,0.0,0.0,0.0,0.0,0.0,0.0,0.0,0.0,0.0,0.0,0.0,0.0,0.0,0.0,0.0,0.0,0.0,0.0,0.0,0.0,0.0,0.0,0.0,0.0,0.0,0.0,0.0,0.0,0.0,0.0,0.0,0.0,0.0,0.0,0.0,0.0,0.0,0.0,0.0,0.0,0.0,0.0,0.0,0.0,0.0,0.0,0.0,0.0,0.0,0.0,0.0,0.0,0.0,0.0,0.0,0.0,0.0,0.0,0.0,0.0,0.0,0.0,0.0,0.0,0.0,0.0,0.0,0.0,0.0,0.0,0.0,0.0,0.0,0.0,0.0,0.0,0.0,0.0,0.0,0.0,0.0,0.0,0.0,0.0,0.0,0.0,0.0,0.0,0.0,0.0,0.0,0.0,0.0,0.0,0.0,0.0,0.0,0.0,0.0,0.0,0.0,0.0,0.0,0.0,0.0,0.0,0.0,0.0,0.0,0.0,0.0,0.0,0.0,0.0,0.0,0.0,0.0,0.0,0.0,0.0,0.0,0.0,0.0,0.0,0.0,0.0,0.0,0.0,0.0,0.0,0.0,0.0,0.0,0.0,0.0,0.0,0.0,0.0,0.0,0.0,0.0,0.0,0.0,0.0,0.0,0.0,0.0,0.0,0.0,0.0,0.0,0.0,0.0,0.0,0.0,0.0,0.0,0.0,0.0,0.0,0.0,0.0,0.0,0.0,0.0,0.0,0.0,0.0,0.0,0.0,0.0,0.0,0.0,0.0,0.0,0.0,0.0,0.0,0.0,0.0,0.0,0.0,0.0,0.0,0.0,0.0,0.0,0.0,0.0,0.0,0.0,0.0,0.0,0.0,0.0,0.0,0.0,0.0,0.0,0.0,0.0,0.0,0.0,0.0,0.0,0.0,0.0,0.0,0.0,0.0,0.0,0.0,0.0,0.0,0.0,0.0,0.0,0.0,0.0,0.0,0.0,0.0,0.0,0.0,0.0,0.0,0.0,0.0,0.0,0.0,0.0,0.0,0.0,0.0,0.0,0.0,0.0,0.0,0.0,0.0,0.0,0.0,0.0,0.0,0.0,0.0,0.0,0.0,0.0,0.0,0.0,0.0,0.0,0.0,0.0,0.0,0.0,0.0,0.0,0.0,0.0,0.0,0.0,0.0,0.0,0.0,0.0,0.0,0.0,0.0,0.0,0.0,0.0,0.0,0.0,0.0,0.0,0.0,0.0,0.0,0.0,0.0,0.0,0.0,0.0,0.0,0.0,0.0,0.0,0.0,0.0,0.0,0.0,0.0,0.0,0.0,0.0,0.0,0.0,0.0,0.0,0.0,0.0,0.0,0.0,0.0,0.0,0.0,0.0,0.0,0.0,0.0,0.0,0.0,0.0,0.0,0.0,0.0,0.0,0.0,0.0,0.0,0.0,0.0,0.0,0.0,0.0,0.0,0.0,0.0,0.0,0.0,0.0,0.0,0.0,0.0,0.0,0.0,0.0,0.0,0.0,0.0,0.0,0.0,0.0,1.3331,0.0,0.0,0.0,0.0,0.0,0.0,0.0,0.0,0.0,0.0,0.0,0.0,0.0,0.0,0.0,0.0,0.0,0.0,0.0,0.0,0.0,0.0,0.0,0.0,0.0,0.0,0.0,0.0,0.0,0.0,0.0,0.0,0.0,0.0,0.0,0.0,0.0,0.0,0.0,0.0,0.0,0.0,0.0,0.0,0.0,0.0,0.0,0.0,0.0,0.0,0.0,0.0,0.0,0.0,0.0,0.0,0.0,0.0,0.0,0.0,0.0,0.0,0.0,0.0,0.0,0.0,0.0,0.0,0.0,0.0,0.0,0.0,0.0,0.0,0.0,0.0,0.0,0.0,0.0,0.0,0.0,0.0,0.0,0.0,0.0,0.0,0.0,0.0,0.0,0.0,0.0,0.0,0.0,0.0,0.0,0.0,0.0,0.0,0.0,0.0,0.0,0.0,0.0,0.0,0.0,0.0,0.0,0.0,0.0,0.0,1.2868,1.2959,1.2959,1.2813,1.2526,0.0,0.0,0.0,0.0,0.0,0.0,0.0,0.0,0.0,0.0,0.0,0.0,0.0,0.0,0.0,0.0,0.0,0.0,0.0,0.0,0.0,0.0,0.0,0.0,0.0,0.0,0.0,0.0,0.0,0.0,0.0,0.0,0.0,0.0,0.0,0.0,0.0,0.0,0.0,0.0,0.0,0.0,0.0,0.0,0.0,0.0,0.0,0.0,0.0,0.0,0.0,0.0,0.0,0.0,0.0,0.0,0.0,0.0,0.0,0.0,0.0,0.0,0.0,0.0,0.0,0.0,0.0,0.0,0.0,0.0,0.0,0.0,0.0,0.0,0.0,0.0,0.0,0.0,0.0,0.0,0.0,0.0,0.0,0.0,0.0,0.0,0.0,0.0,0.0,0.0,0.0,0.0,0.0,0.0,0.0,0.0,0.0,0.0,0.0,0.0,0.0,0.0,0.0,0.0,0.0,0.0,0.0,0.0,0.0,0.0,0.0,0.0,1.215,1.2077,1.1929,0.0,0.0,0.0,0.0,0.0,0.0,0.0,0.0,0.0,0.0,0.0,0.0,0.0,0.0,0.0,0.0,0.0,0.0,0.0,0.0,0.0,0.0,0.0,0.0,0.0,0.0,0.0,0.0,0.0,0.0,0.0,0.0,0.0,0.0,0.0,0.0,0.0,0.0,0.0,0.0,0.0,0.0,0.0,0.0,0.0,0.0,0.0,0.0,0.0,0.0,0.0,0.0,0.0,0.0,0.0,0.0,0.0,0.0,0.0,0.0,0.0,0.0,0.0,0.0,0.0,0.0,0.0,0.0,0.0,0.0,0.0,0.0,0.0,0.0,0.0,0.0,0.0,0.0,0.0,0.0,0.0,0.0,0.0,0.0,0.0,0.0,0.0,0.0,0.0,0.0,0.0,0.0,0.0,0.0,0.0,0.0,0.0,0.0,0.0,0.0,0.0,0.0,0.0,0.0,0.0,0.0,0.0,0.0,0.0,0.0,1.1502,1.1484,1.1632,0.0,1.1706,0.0,0.0,0.0,0.0,0.0,0.0,0.0,0.0,0.0,0.0,0.0,0.0,0.0,0.0,0.0,0.0,0.0,0.0,0.0,0.0,0.0,0.0,0.0,0.0,0.0,0.0,0.0,0.0,0.0,0.0,0.0,0.0,0.0,0.0,0.0,0.0,0.0,0.0,0.0,0.0,0.0,0.0,0.0,0.0,0.0,0.0,0.0,0.0,0.0,0.0,0.0,0.0,0.0,0.0,0.0,0.0,0.0,0.0,0.0,0.0,0.0,0.0,0.0,0.0,0.0,0.0,0.0,0.0,0.0,0.0,0.0,0.0,0.0,0.0,0.0,0.0,0.0,0.0,0.0,0.0,0.0,0.0,0.0,0.0,0.0,0.0,0.0,0.0,0.0,0.0,0.0,0.0,0.0,0.0,0.0,0.0,0.0,0.0,0.0,0.0,0.0,0.0,0.0,0.0,0.0,0.0,0.0,0.0,0.0,0.0,1.0893,1.0893,1.0962,1.1037,0.0,0.0,0.0,0.0,0.0,0.0,0.0,0.0,0.0,0.0,0.0,0.0,0.0,0.0,0.0,0.0,0.0,0.0,0.0,0.0,0.0,0.0,0.0,0.0,0.0,0.0,0.0,0.0,0.0,0.0,0.0,0.0,0.0,0.0,0.0,0.0,0.0,0.0,0.0,0.0,0.0,0.0,0.0,0.0,0.0,0.0,0.0,0.0,0.0,0.0,0.0,0.0,0.0,0.0,0.0,0.0,0.0,0.0,0.0,0.0,0.0,0.0,0.0,0.0,0.0,0.0,0.0,0.0,0.0,0.0,0.0,0.0,0.0,0.0,0.0,0.0,0.0,0.0,0.0,0.0,0.0,0.0,0.0,0.0,0.0,0.0,0.0,0.0,0.0,0.0,0.0,0.0,0.0,0.0,0.0,0.0,0.0,0.0,0.0,0.0,0.0,0.0,0.0,0.0,0.0,0.0,0.0,0.0,0.0,0.0,1.0148,1.0299,1.0288,1.0293,1.0363,1.0513,0.0,0.0,0.0,0.0,0.0,0.0,0.0,0.0,0.0,0.0,0.0,0.0,0.0,0.0,0.0,0.0,0.0,0.0,0.0,0.0,0.0,0.0,0.0,0.0,0.0,0.0,0.0,0.0,0.0,0.0,0.0,0.0,0.0,0.0,0.0,0.0,0.0,0.0,0.0,0.0,0.0,0.0,0.0,0.0,0.0,0.0,0.0,0.0,0.0,0.0,0.0,0.0,0.0,0.0,0.0,0.0,0.0,0.0,0.0,0.0,0.0,0.0,0.0,0.0,0.0,0.0,0.0,0.0,0.0,0.0,0.0,0.0,0.0,0.0,0.0,0.0,0.0,0.0,0.0,0.0,0.0,0.0,0.0,0.0,0.0,0.0,0.0,0.0,0.0,0.0,0.0,0.0,0.0,0.0,0.0,0.0,0.0,0.0,0.0,0.0,0.0,0.0,0.0,0.0,0.0,0.0,0.0,0.0,0.962,0.9635,0.9711,0.9916,0.9765,0.9695,0.0,0.0,0.0,0.0,0.0,0.0,0.0,0.0,0.0,0.0,0.0,0.0,0.0,0.0,0.0,0.0,0.0,0.0,0.0,0.0,0.0,0.0,0.0,0.0,0.0,0.0,0.0,0.0,0.0,0.0,0.0,0.0,0.0,0.0,0.0,0.0,0.0,0.0,0.0,0.0,0.0,0.0,0.0,0.0,0.0,0.0,0.0,0.0,0.0,0.0,0.0,0.0,0.0,0.0,0.0,0.0,0.0,0.0,0.0,0.0,0.0,0.0,0.0,0.0,0.0,0.0,0.0,0.0,0.0,0.0,0.0,0.0,0.0,0.0,0.0,0.0,0.0,0.0,0.0,0.0,0.0,0.0,0.0,0.0,0.0,0.0,0.0,0.0,0.0,0.0,0.0,0.0,0.0,0.0,0.0,0.0,0.0,0.0,0.0,0.0,0.0,0.0,0.0,0.0,0.0,0.0,0.0,0.0,0.0,0.8861,0.8941,0.9013,0.916,0.9084,0.9089,0.0,0.0,0.0,0.0,0.0,0.0,0.0,0.0,0.0,0.0,0.0,0.0,0.0,0.0,0.0,0.0,0.0,0.0,0.0,0.0,0.0,0.0,0.0,0.0,0.0,0.0,0.0,0.0,0.0,0.0,0.0,0.0,0.0,0.0,0.0,0.0,0.0,0.0,0.0,0.0,0.0,0.0,0.0,0.0,0.0,0.0,0.0,0.0,0.0,0.0,0.0,0.0,0.0,0.0,0.0,0.0,0.0,0.0,0.0,0.0,0.0,0.0,0.0,0.0,0.0,0.0,0.0,0.0,0.0,0.0,0.0,0.0,0.0,0.0,0.0,0.0,0.0,0.0,0.0,0.0,0.0,0.0,0.0,0.0,0.0,0.0,0.0,0.0,0.0,0.0,0.0,0.0,0.0,0.0,0.0,0.0,0.0,0.0,0.0,0.0,0.0,0.0,0.0,0.0,0.0,0.0,0.0,0.0,0.0,0.8331,0.0,0.8479,0.8551,0.8475,0.8447,0.0,0.0,0.0,0.0,0.0,0.0,0.0,0.0,0.0,0.0,0.0,0.0,0.0,0.0,0.0,0.0,0.0,0.0,0.0,0.0,0.0,0.0,0.0,0.0,0.0,0.0,0.0,0.0,0.0,0.0,0.0,0.0,0.0,0.0,0.0,0.0,0.0,0.0,0.0,0.0,0.0,0.0,0.0,0.0,0.0,0.0,0.0,0.0,0.0,0.0,0.0,0.0,0.0,0.0,0.0,0.0,0.0,0.0,0.0,0.0,0.0,0.0,0.0,0.0,0.0,0.0,0.0,0.0,0.0,0.0,0.0,0.0,0.0,0.0,0.0,0.0,0.0,0.0,0.0,0.0,0.0,0.0,0.0,0.0,0.0,0.0,0.0,0.0,0.0,0.0,0.0,0.0,0.0,0.0,0.0,0.0,0.0,0.0,0.0,0.0,0.0,0.0,0.0,0.0,0.0,0.0,0.0,0.0,0.788,0.8047,0.8106,0.8106,0.8102,0.8102,0.7938,0.0,0.0,0.0,0.0,0.0,0.0,0.0,0.0,0.0,0.0,0.0,0.0,0.0,0.0,0.0,0.0,0.0,0.0,0.0,0.0,0.0,0.0,0.0,0.0,0.0,0.0,0.0,0.0,0.0,0.0,0.0,0.0,0.0,0.0,0.0,0.0,0.0,0.0,0.0,0.0,0.0,0.0,0.0,0.0,0.0,0.0,0.0,0.0,0.0,0.0,0.0,0.0,0.0,0.0,0.0,0.0,0.0,0.0,0.0,0.0,0.0,0.0,0.0,0.0,0.0,0.0,0.0,0.0,0.0,0.0,0.0,0.0,0.0,0.0,0.0,0.0,0.0,0.0,0.0,0.0,0.0,0.0,0.0,0.0,0.0,0.0,0.0,0.0,0.0,0.0,0.0,0.0,0.0,0.0,0.0,0.0,0.0,0.0,0.0,0.0,0.0,0.0,0.0,0.0,0.0,0.0,0.0,0.0,0.0,0.7257,0.7253,0.7253,0.7249,0.7249,0.7222,0.0,0.0,0.0,0.0,0.0,0.0,0.0,0.0,0.0,0.0,0.0,0.0,0.0,0.0,0.0,0.0,0.0,0.0,0.0,0.0,0.0,0.0,0.0,0.0,0.0,0.0,0.0,0.0,0.0,0.0,0.0,0.0,0.0,0.0,0.0,0.0,0.0,0.0,0.0,0.0,0.0,0.0,0.0,0.0,0.0,0.0,0.0,0.0,0.0,0.0,0.0,0.0,0.0,0.0,0.0,0.0,0.0,0.0,0.0,0.0,0.0,0.0,0.0,0.0,0.0,0.0,0.0,0.0,0.0,0.0,0.0,0.0,0.0,0.0,0.0,0.0,0.0,0.0,0.0,0.0,0.0,0.0,0.0,0.0,0.0,0.0,0.0,0.0,0.0,0.0,0.0,0.0,0.0,0.0,0.0,0.0,0.0,0.0,0.0,0.0,0.0,0.0,0.0,0.0,0.0,0.0,0.0,0.0,0.0,0.6718,0.6788,0.6865,0.6865,0.6865,0.6835,0.6695,0.0,0.0,0.0,0.0,0.0,0.0,0.0,0.0,0.0,0.0,0.0,0.0,0.0,0.0,0.0,0.0,0.0,0.0,0.0,0.0,0.0,0.0,0.0,0.0,0.0,0.0,0.0,0.0,0.0,0.0,0.0,0.0,0.0,0.0,0.0,0.0,0.0,0.0,0.0,0.0,0.0,0.0,0.0,0.0,0.0,0.0,0.0,0.0,0.0,0.0,0.0,0.0,0.0,0.0,0.0,0.0,0.0,0.0,0.0,0.0,0.0,0.0,0.0,0.0,0.0,0.0,0.0,0.0,0.0,0.0,0.0,0.0,0.0,0.0,0.0,0.0,0.0,0.0,0.0,0.0,0.0,0.0,0.0,0.0,0.0,0.0,0.0,0.0,0.0,0.0,0.0,0.0,0.0,0.0,0.0,0.0,0.0,0.0,0.0,0.0,0.0,0.0,0.0,0.0,0.0,0.0,0.0,0.0,0.6261,0.6714,0.6865,0.6865,0.6865,0.6718,0.0,0.0,0.0,0.0,0.0,0.0,0.0,0.0,0.0,0.0,0.0,0.0,0.0,0.0,0.0,0.0,0.0,0.0,0.0,0.0,0.0,0.0,0.0,0.0,0.0,0.0,0.0,0.0,0.0,0.0,0.0,0.0,0.0,0.0,0.0,0.0,0.0,0.0,0.0,0.0,0.0,0.0,0.0,0.0,0.0,0.0,0.0,0.0,0.0,0.0,0.0,0.0,0.0,0.0,0.0,0.0,0.0,0.0,0.0,0.0,0.0,0.0,0.0,0.0,0.0,0.0,0.0,0.0,0.0,0.0,0.0,0.0,0.0,0.0,0.0,0.0,0.0,0.0,0.0,0.0,0.0,0.0,0.0,0.0,0.0,0.0,0.0,0.0,0.0,0.0,0.0,0.0,0.0,0.0,0.0,0.0,0.0,0.0,0.0,0.0,0.0,0.0,0.0,0.0,0.0,0.0,0.0,0.0,0.0,0.6338,0.6412,0.649,0.649,0.649,0.6391,0.0,0.0,0.0,0.0,0.0,0.0,0.0,0.0,0.0,0.0,0.0,0.0,0.0,0.0,0.0,0.0,0.0,0.0,0.0,0.0,0.0,0.0,0.0,0.0,0.0,0.0,0.0,0.0,0.0,0.0,0.0,0.0,0.0,0.0,0.0,0.0,0.0,0.0,0.0,0.0,0.0,0.0,0.0,0.0,0.0,0.0,0.0,0.0,0.0,0.0,0.0,0.0,0.0,0.0,0.0,0.0,0.0,0.0,0.0,0.0,0.0,0.0,0.0,0.0,0.0,0.0,0.0,0.0,0.0,0.0,0.0,0.0,0.0,0.0,0.0,0.0,0.0,0.0,0.0,0.0,0.0,0.0,0.0,0.0,0.0,0.0,0.0,0.0,0.0,0.0,0.0,0.0,0.0,0.0,0.0,0.0,0.0,0.0,0.0,0.0,0.0,0.0,0.0,0.0,0.0,0.0,0.0,0.0,0.6261,0.6261,0.6261,0.6261,0.6261,0.6261,0.6261,0.0,0.0,0.0,0.0,0.0,0.0,0.0,0.0,0.0,0.0,0.0,0.0,0.0,0.0,0.0,0.0,0.0,0.0,0.0,0.0,0.0,0.0,0.0,0.0,0.0,0.0,0.0,0.0,0.0,0.0,0.0,0.0,0.0,0.0,0.0,0.0,0.0,0.0,0.0,0.0,0.0,0.0,0.0,0.0,0.0,0.0,0.0,0.0,0.0,0.0,0.0,0.0,0.0,0.0,0.0,0.0,0.0,0.0,0.0,0.0,0.0,0.0,0.0,0.0,0.0,0.0,0.0,0.0,0.0,0.0,0.0,0.0,0.0,0.0,0.0,0.0,0.0,0.0,0.0,0.0,0.0,0.0,0.0,0.0,0.0,0.0,0.0,0.0,0.0,0.0,0.0,0.0,0.0,0.0,0.0,0.0,0.0,0.0,0.0,0.0,0.0,0.0,0.0,0.0,0.0,0.0,0.0,0.0,0.6261,0.6261,0.6261,0.6261,0.6261,0.6261,0.6261,0.0,0.0,0.0,0.0,0.0,0.0,0.0,0.0,0.0,0.0,0.0,0.0,0.0,0.0,0.0,0.0,0.0,0.0,0.0,0.0,0.0,0.0,0.0,0.0,0.0,0.0,0.0,0.0,0.0,0.0,0.0,0.0,0.0,0.0,0.0,0.0,0.0,0.0,0.0,0.0,0.0,0.0,0.0,0.0,0.0,0.0,0.0,0.0,0.0,0.0,0.0,0.0,0.0,0.0,0.0,0.0,0.0,0.0,0.0,0.0,0.0,0.0,0.0,0.0,0.0,0.0,0.0,0.0,0.0,0.0,0.0,0.0,0.0,0.0,0.0,0.0,0.0,0.0,0.0,0.0,0.0,0.0,0.0,0.0,0.0,0.0,0.0,0.0,0.0,0.0,0.0,0.0,0.0,0.0,0.0,0.0,0.0,0.0,0.0,0.0,0.0,0.0,0.0,0.0,0.0,0.0,0.0,0.0,0.6261,0.6261,0.6261,0.6261,0.6261,0.6261,0.6261,0.0,0.0,0.0,0.0,0.0,0.0,0.0,0.0,0.0,0.0,0.0,0.0,0.0,0.0,0.0,0.0,0.0,0.0,0.0,0.0,0.0,0.0,0.0,0.0,0.0,0.0,0.0,0.0,0.0,0.0,0.0,0.0,0.0,0.0,0.0,0.0,0.0,0.0,0.0,0.0,0.0,0.0,0.0,0.0,0.0,0.0,0.0,0.0,2.7721,0.0,0.0,0.0,0.0,0.0,0.0,0.0,0.0,0.0,0.0,0.0,0.0,0.0,0.0,0.0,0.0,0.0,0.0,0.0,0.0,0.0,0.0,0.0,0.0,0.0,0.0,0.0,0.0,0.0,0.0,0.0,0.0,0.0,0.0,0.0,0.0,0.0,0.0,0.0,0.0,0.0,0.0,0.0,0.0,0.0,0.0,0.0,0.0,0.0,0.0,0.0,0.0,0.0,0.0,0.0,0.0,0.0,0.0,0.0,0.6261,0.6261,0.6261,0.6261,0.6261,0.6261,0.6261,0.0,0.0,0.0,0.0,0.0,0.0,0.0,0.0,0.0,0.0,0.0,0.0,0.0,0.0,0.0,0.0,0.0,0.0,0.0,0.0,0.0,0.0,0.0,0.0,0.0,0.0,0.0,0.0,0.0,0.0,0.0,0.0,0.0,0.0,0.0,0.0,0.0,0.0,0.0,0.0,0.0,0.0,0.0,0.0,0.0,0.0,0.0,0.0,0.0,0.0,0.0,0.0,0.0,0.0,0.0,0.0,0.0,0.0,0.0,0.0,0.0,0.0,0.0,0.0,0.0,0.0,0.0,0.0,0.0,0.0,0.0,0.0,0.0,0.0,0.0,0.0,0.0,0.0,0.0,0.0,0.0,0.0,0.0,0.0,0.0,0.0,0.0,0.0,0.0,0.0,0.0,0.0,0.0,0.0,0.0,0.0,0.0,0.0,0.0,0.0,0.0,0.0,0.0,0.0,0.0,0.0,0.0,0.6261,0.6261,0.6261,0.6261,0.6261,0.6261,0.6261,0.6261,0.6257,0.0,0.0,0.0,0.0,0.0,0.0,0.0,0.0,0.0,0.0,0.0,0.0,0.0,0.0,0.0,0.0,0.0,0.0,0.0,0.0,0.0,0.0,0.0,0.0,0.0,0.0,0.0,0.0,0.0,0.0,0.0,0.0,0.0,0.0,0.0,0.0,0.0,0.0,2.4853,2.6574,0.0,0.0,0.0,0.0,0.0,0.0,0.0,0.0,3.0088,0.0,0.0,0.0,0.0,0.0,0.0,0.0,0.0,0.0,0.0,0.0,0.0,0.0,0.0,0.0,0.0,0.0,0.0,0.0,0.0,0.0,0.0,0.0,0.0,0.0,0.0,0.0,0.0,0.0,0.0,0.0,0.0,0.0,0.0,0.0,0.0,0.0,0.0,0.0,0.0,0.0,0.0,0.0,0.0,0.0,0.0,0.0,0.0,0.0,0.0,0.0,0.0,0.0,0.0,0.0,0.0,0.6257,0.6261,0.6261,0.6261,0.6261,0.6261,0.6261,0.6261,0.6261,0.6261,0.0,0.0,0.0,0.0,0.0,0.0,0.0,0.0,0.0,0.0,0.0,0.0,0.0,0.0,0.0,0.0,0.0,0.0,0.0,0.0,0.0,0.0,0.0,0.0,0.0,0.0,0.0,0.0,0.0,0.0,0.0,0.0,0.0,0.0,0.0,0.0,0.0,0.0,0.0,2.7637,2.8843,0.0,0.0,0.0,0.0,0.0,0.0,0.0,0.0,3.1489,0.0,0.0,0.0,0.0,0.0,0.0,0.0,0.0,0.0,0.0,0.0,0.0,0.0,0.0,0.0,0.0,0.0,0.0,0.0,0.0,0.0,0.0,0.0,0.0,0.0,0.0,0.0,0.0,0.0,0.0,0.0,0.0,0.0,0.0,0.0,0.0,0.0,0.0,0.0,0.0,0.0,0.0,0.0,0.0,0.0,0.0,0.0,0.0,0.0,0.0,0.0,0.0,0.0,0.0,0.0,0.6257,0.6261,0.6261,0.6261,0.6261,0.6261,0.6261,0.6261,0.6261,0.0,0.0,0.0,0.0,0.0,0.0,0.0,0.0,0.0,0.0,0.0,0.0,0.0,0.0,0.0,0.0,0.0,0.0,0.0,0.0,0.0,0.0,0.0,0.0,0.0,0.0,0.0,0.0,0.0,0.0,0.0,0.0,0.0,0.0,0.0,0.0,0.0,0.0,0.0,0.0,2.8284,2.9512,3.0205,0.0,0.0,0.0,0.0,0.0,0.0,3.2379,3.2338,0.0,0.0,0.0,0.0,0.0,0.0,0.0,0.0,0.0,0.0,0.0,0.0,0.0,0.0,0.0,0.0,0.0,0.0,0.0,0.0,0.0,0.0,0.0,0.0,0.0,0.0,0.0,0.0,0.0,0.0,0.0,0.0,0.0,0.0,0.0,0.0,0.0,0.0,0.0,0.0,0.0,0.0,0.0,0.0,0.0,0.0,0.0,0.0,0.0,0.0,0.0,0.0,0.0,0.0,0.0,0.6338,0.6338,0.6261,0.6261,0.6261,0.6261,0.6261,0.6261,0.6261,0.0,0.0,0.0,0.0,0.0,0.0,0.0,0.0,0.0,0.0,0.0,0.0,0.0,0.0,0.0,0.0,0.0,0.0,0.0,0.0,0.0,0.0,0.0,0.0,0.0,0.0,0.0,0.0,0.0,0.0,0.0,0.0,0.0,0.0,0.0,0.0,0.0,0.0,0.0,0.0,0.0,2.9913,3.0776,3.0878,0.0,0.0,0.0,0.0,3.3155,3.3291,0.0,0.0,0.0,0.0,0.0,0.0,0.0,0.0,0.0,0.0,0.0,0.0,0.0,0.0,0.0,0.0,0.0,0.0,0.0,0.0,0.0,0.0,0.0,0.0,0.0,0.0,0.0,0.0,0.0,0.0,0.0,0.0,0.0,0.0,0.0,0.0,0.0,0.0,0.0,0.0,0.0,0.0,0.0,0.0,0.0,0.0,0.0,0.0,0.0,0.0,0.0,0.0,0.0,0.0,0.0,0.0,0.6578,0.6416,0.6261,0.6261,0.6261,0.6261,0.6261,0.6261,0.6261,0.0,0.0,0.0,0.0,0.0,0.0,0.0,0.0,0.0,0.0,0.0,0.0,0.0,0.0,0.0,0.0,0.0,0.0,0.0,0.0,0.0,0.0,0.0,0.0,0.0,0.0,0.0,0.0,0.0,0.0,0.0,0.0,0.0,0.0,0.0,0.0,0.0,0.0,0.0,0.0,0.0,3.0068,3.0955,3.1485,3.1852,0.0,0.0,3.3917,3.407,3.4226,0.0,0.0,0.0,0.0,0.0,0.0,0.0,0.0,0.0,0.0,0.0,0.0,0.0,0.0,0.0,0.0,0.0,0.0,0.0,0.0,0.0,0.0,0.0,0.0,0.0,0.0,0.0,0.0,0.0,0.0,0.0,0.0,0.0,0.0,0.0,0.0,0.0,0.0,0.0,0.0,0.0,0.0,0.0,0.0,0.0,0.0,0.0,0.0,0.0,0.0,0.0,0.0,0.0,0.0,0.0,0.6563,0.657,0.6416,0.6261,0.6264,0.6369,0.6413,0.6383,0.6464,0.6471,0.0,0.0,0.0,0.0,0.0,0.0,0.0,0.0,0.0,0.0,0.0,0.0,0.0,0.0,0.0,0.0,0.0,0.0,0.0,0.0,0.0,0.0,0.0,0.0,0.0,0.0,0.0,0.0,0.0,0.0,0.0,0.0,0.0,0.0,0.0,0.0,0.0,0.0,0.0,0.0,0.0,0.0,3.1485,3.202,0.0,0.0,0.0,3.4543,3.4867,0.0,0.0,0.0,0.0,0.0,0.0,0.0,0.0,0.0,0.0,0.0,0.0,0.0,0.0,0.0,0.0,0.0,0.0,0.0,0.0,0.0,0.0,0.0,0.0,0.0,0.0,0.0,0.0,0.0,0.0,0.0,0.0,0.0,0.0,0.0,0.0,0.0,0.0,0.0,0.0,0.0,0.0,0.0,0.0,0.0,0.0,0.0,0.0,0.0,0.0,0.0,0.0,0.0,0.0,0.0,0.0,0.0,0.6776,0.6805,0.6674,0.6376,0.6458,0.6515,0.6532,0.6641,0.0,0.0,0.0,0.0,0.0,0.0,0.0,0.0,0.0,0.0,0.0,0.0,0.0,0.0,0.0,0.0,0.0,0.0,0.0,0.0,0.0,0.0,0.0,0.0,0.0,0.0,0.0,2.0892,0.0,0.0,0.0,0.0,0.0,0.0,0.0,0.0,0.0,0.0,0.0,0.0,0.0,0.0,3.0899,3.1867,3.2601,3.3365,0.0,0.0,3.4906,3.5429,3.5489,3.534,0.0,0.0,0.0,0.0,0.0,0.0,0.0,0.0,0.0,0.0,0.0,0.0,0.0,0.0,0.0,0.0,0.0,0.0,0.0,0.0,0.0,0.0,0.0,0.0,0.0,0.0,0.0,0.0,0.0,0.0,0.0,0.0,0.0,0.0,0.0,0.0,0.0,0.0,0.0,0.0,0.0,0.0,0.0,0.0,0.0,0.0,0.0,0.0,0.0,0.0,0.0,0.0,0.0,0.0,0.819,0.741,0.7922,0.776,0.6754,0.6682,0.6692,0.6692,0.6695,0.6698,0.0,0.0,0.0,0.0,0.0,0.0,0.0,0.0,0.0,0.0,0.0,0.0,0.0,0.0,0.0,0.0,0.0,0.0,0.0,0.0,0.0,0.0,0.0,0.0,0.0,0.0,0.0,0.0,0.0,0.0,0.0,0.0,0.0,0.0,0.0,0.0,0.0,0.0,0.0,0.0,0.0,3.1406,3.1926,3.3359,3.4382,0.0,3.5026,3.5459,3.5489,3.5489,3.5489,3.5444,0.0,0.0,0.0,0.0,0.0,0.0,0.0,0.0,0.0,0.0,0.0,0.0,0.0,0.0,0.0,0.0,0.0,0.0,0.0,0.0,0.0,0.0,0.0,0.0,0.0,0.0,0.0,0.0,0.0,0.0,0.0,0.0,0.0,0.0,0.0,0.0,0.0,0.0,0.0,0.0,0.0,0.0,0.0,0.0,0.0,0.0,0.0,0.0,0.0,0.0,0.0,0.0,0.0,0.8506,0.7825,0.8953,0.8581,0.6867,0.8138,0.8283,0.6841,0.7603,0.7695,0.0,0.0,0.0,0.0,0.0,0.0,0.0,0.0,0.0,0.0,0.0,0.0,0.0,0.0,0.0,0.0,0.0,0.0,0.0,0.0,0.0,0.0,0.0,0.0,0.0,0.0,0.0,0.0,2.4829,2.556,2.6211,0.0,0.0,0.0,0.0,0.0,0.0,0.0,0.0,0.0,0.0,3.2035,3.3203,3.4017,0.0,0.0,3.534,3.5489,3.5489,3.5489,3.5489,3.5489,3.4936,0.0,0.0,0.0,0.0,0.0,0.0,0.0,0.0,0.0,0.0,0.0,0.0,0.0,0.0,0.0,0.0,0.0,0.0,0.0,0.0,0.0,0.0,0.0,0.0,0.0,0.0,0.0,0.0,0.0,0.0,0.0,0.0,0.0,0.0,0.0,0.0,0.0,0.0,0.0,0.0,0.0,0.0,0.0,0.0,0.0,0.0,0.0,0.0,0.0,0.0,0.0,0.0,0.9185,0.8669,0.9789,0.9325,0.7418,0.8692,0.8589,0.708,0.7869,0.7876,0.0,0.0,0.0,0.0,0.0,0.0,0.0,0.0,0.0,0.0,0.0,0.0,0.0,0.0,0.0,0.0,0.0,0.0,0.0,0.0,0.0,0.0,0.0,0.0,0.0,0.0,0.0,0.0,2.537,2.6025,2.6676,0.0,0.0,0.0,0.0,0.0,0.0,0.0,0.0,0.0,0.0,3.2867,3.4006,3.4524,3.4966,3.5429,3.5554,3.5539,3.5554,3.5619,3.5619,3.5554,0.0,0.0,0.0,0.0,0.0,0.0,0.0,0.0,0.0,0.0,0.0,0.0,0.0,0.0,0.0,0.0,0.0,0.0,0.0,0.0,0.0,0.0,0.0,0.0,0.0,0.0,0.0,-2.5044,0.0,0.0,-2.2642,0.0,0.0,0.0,0.0,0.0,0.0,0.0,0.0,0.0,0.0,0.0,0.0,0.0,0.0,0.0,0.0,0.0,0.0,0.0,0.0,0.0,0.0,1.0468,0.9952,1.0339,1.0024,0.8782,0.7746,0.7221,0.7132,0.7139,0.7136,0.7041,0.0,0.0,0.0,0.0,0.0,0.0,0.0,0.0,0.0,0.0,0.0,0.0,0.0,0.0,0.0,0.0,0.0,0.0,0.0,0.0,0.0,0.0,0.0,0.0,0.0,0.0,2.4864,2.5853,2.6577,0.0,0.0,0.0,0.0,0.0,0.0,0.0,0.0,0.0,3.1277,3.2855,3.3982,3.4218,3.4912,3.5474,3.5489,3.5589,3.5688,3.5688,3.5831,3.591,0.0,0.0,0.0,0.0,0.0,0.0,0.0,0.0,0.0,0.0,0.0,0.0,0.0,0.0,0.0,0.0,0.0,0.0,0.0,0.0,0.0,0.0,0.0,0.0,0.0,0.0,0.0,-2.5679,-2.6104,0.0,0.0,0.0,0.0,0.0,0.0,0.0,0.0,0.0,0.0,0.0,-1.2524,-1.1624,0.0,0.0,0.0,0.0,0.0,0.0,0.0,0.0,0.0,0.0,0.0,0.0,0.9442,0.9044,1.0032,0.9637,0.7837,0.8785,0.8701,0.7143,0.7837,0.7929,0.7139,0.0,0.0,0.0,0.0,0.0,0.0,0.0,0.0,0.0,0.0,0.0,0.0,0.0,0.0,0.0,0.0,0.0,0.0,0.0,0.0,0.0,0.0,0.0,0.0,0.0,2.5187,0.0,0.0,0.0,0.0,0.0,0.0,0.0,0.0,0.0,0.0,0.0,3.1753,3.2942,3.3667,3.4367,3.4957,3.5389,3.5589,0.0,0.0,0.0,0.0,0.0,0.0,0.0,0.0,0.0,0.0,0.0,0.0,0.0,0.0,3.4547,3.3664,3.3499,3.3499,3.3499,0.0,0.0,0.0,0.0,0.0,0.0,0.0,0.0,0.0,0.0,0.0,0.0,0.0,0.0,-2.7744,-2.8107,-2.7933,0.0,0.0,0.0,0.0,0.0,0.0,0.0,0.0,-1.7279,-1.5692,-1.3872,-1.3271,-1.1847,0.0,-0.8147,-0.5723,0.0,0.0,0.0,0.0,0.0,0.0,0.0,0.0,0.8867,0.8873,0.9637,0.9289,0.7837,0.8785,0.8697,0.7143,0.7841,0.7929,0.7139,0.7051,0.7173,0.0,0.0,0.0,0.0,0.0,0.0,0.0,0.0,0.0,0.0,0.0,0.0,0.0,0.0,0.0,0.0,0.0,0.0,0.0,0.0,0.0,0.0,0.0,2.5898,0.0,0.0,0.0,0.0,0.0,0.0,0.0,0.0,0.0,3.0885,3.1763,3.2801,3.3908,3.4411,3.4852,3.5444,0.0,0.0,0.0,0.0,0.0,0.0,0.0,3.6831,3.6445,3.6321,3.6148,3.5703,3.5554,3.5489,3.5489,0.0,0.0,3.4352,3.4188,3.4188,3.4188,3.4203,3.4203,3.4188,3.4188,3.4418,0.0,0.0,0.0,0.0,0.0,0.0,0.0,0.0,-3.0071,-3.0333,0.0,-3.0845,0.0,0.0,0.0,0.0,-2.5163,-2.2683,0.0,0.0,-1.8957,-1.7092,-1.5348,-1.511,-1.3279,-1.0009,-0.9167,-0.7469,-0.5022,-0.2524,0.0,0.0,0.0,0.0,0.0,0.0,0.8875,0.9483,0.9078,0.8822,0.8803,0.7753,0.7139,0.7139,0.7139,0.7139,0.7139,0.7136,0.7231,0.7503,0.7703,0.0,0.0,0.0,0.0,0.0,0.0,0.0,0.0,0.0,0.0,0.0,0.0,0.0,0.0,0.0,0.0,0.0,0.0,0.0,0.0,2.5618,0.0,0.0,0.0,0.0,0.0,0.0,0.0,0.0,0.0,0.0,3.1154,3.2786,3.4041,3.4233,0.0,0.0,0.0,0.0,3.5767,3.5973,3.6414,3.6831,3.7194,3.7594,3.7637,3.6906,0.0,0.0,3.5668,3.5554,3.5554,3.5489,3.5489,3.5489,3.5539,3.5479,3.5444,3.5429,3.5415,3.5489,3.5554,3.5469,3.5676,-2.9265,0.0,0.0,0.0,0.0,-2.9179,-3.0001,-3.0984,-3.0698,-3.0884,-3.1476,-3.137,0.0,0.0,0.0,0.0,0.0,0.0,-2.3454,-2.2294,-2.1133,-1.8934,-1.5996,-1.5912,-1.4307,-1.1325,-1.0238,-0.8243,-0.5226,-0.3678,-0.1815,0.0336,0.0,0.0,0.0,0.0,0.7271,0.8021,0.7738,0.7647,0.758,0.7316,0.7139,0.7139,0.7139,0.7139,0.7139,0.7139,0.7231,0.7503,0.772,0.0,0.0,0.0,0.0,0.0,0.0,0.0,0.0,0.0,0.0,0.0,0.0,0.0,0.0,0.0,0.0,0.0,0.0,0.0,2.4636,2.5734,2.6452,0.0,0.0,0.0,0.0,0.0,0.0,0.0,0.0,0.0,3.2499,3.3454,3.4396,0.0,0.0,3.5489,3.5489,3.5589,3.5864,3.6337,3.6845,0.0,3.7895,3.8327,3.8439,3.8067,3.779,3.7381,3.6446,3.6275,3.6102,3.5619,3.5489,3.5683,3.6102,3.5831,3.5554,3.5489,3.5489,3.5668,3.6165,3.6275,3.6523,-3.1701,-3.0674,-3.0051,-3.0079,-3.0566,-3.0862,-3.1541,-3.2337,-3.2028,-3.214,-3.2435,-3.2415,-3.2148,-3.1674,-3.095,0.0,0.0,0.0,-2.4883,-2.3146,-2.2215,-1.9887,-1.6494,-1.6365,-1.488,-1.2081,-1.0872,-0.8891,-0.6025,-0.4372,-0.2652,-0.0862,0.0,0.0,0.412,0.5149,0.5985,0.6612,0.6962,0.7139,0.7139,0.7139,0.7139,0.7139,0.7139,0.7139,0.7139,0.7139,0.7143,0.7323,0.7591,0.8237,0.0,0.0,0.0,0.0,0.0,0.0,0.0,0.0,0.0,0.0,0.0,1.9835,2.1335,0.0,0.0,0.0,2.4467,2.4671,2.5229,2.5968,0.0,0.0,0.0,0.0,0.0,0.0,0.0,2.9795,3.0988,3.2193,3.3225,3.4069,3.4832,3.5459,3.5489,3.5489,3.5489,0.0,3.5976,3.6676,3.7191,3.7722,3.8518,3.8936,3.9061,3.8723,3.8246,3.7774,3.7203,3.7084,3.6919,3.6538,3.643,3.6538,3.698,3.6707,3.6321,3.6006,3.5943,3.6102,3.6554,3.6843,3.7322,-3.3989,-3.3743,-3.1643,-3.1321,-3.2206,-3.227,-3.2857,-3.3788,-3.3788,-3.3671,-3.3509,-3.3652,-3.3441,-3.2847,-3.1672,0.0,-2.9794,-2.8201,-2.6201,-2.3826,-2.2829,-2.0512,-1.7172,-1.6884,-1.519,-1.2401,-1.1289,-0.9456,-0.6916,-0.4748,-0.2877,-0.1254,0.0448,0.1703,0.2508,0.4109,0.5087,0.545,0.6514,0.7051,0.7139,0.7139,0.7139,0.7139,0.7139,0.7139,0.7139,0.7139,0.7139,0.7139,0.7411,0.8285,0.9831,0.0,0.0,0.0,0.0,0.0,0.0,0.0,0.0,0.0,0.0,0.0,0.0,0.0,0.0,0.0,2.5453,0.0,2.6062,2.6251,0.0,0.0,0.0,2.744,2.7645,2.81,2.8899,3.0025,0.0,0.0,3.3366,3.4438,3.5294,3.5439,3.5489,3.5504,3.5554,3.5703,3.6102,3.7175,3.7515,3.8108,3.9082,3.9504,3.954,3.9102,3.8414,3.8035,3.7921,3.7847,3.7863,3.7706,3.7822,3.7822,3.7863,3.7806,3.7589,3.7074,3.6829,3.6737,3.6888,3.744,3.8076,-3.5665,-3.5057,-3.4706,-3.4128,-3.3396,-3.3603,-3.3746,-3.377,-3.3678,-3.3487,-3.3291,-3.3321,-3.3581,-3.3972,-3.2781,-3.2573,-3.298,-3.1283,-2.9699,-2.8139,-2.6056,-2.3497,-2.0456,-1.8224,-1.5912,-1.3646,-1.2421,-0.9737,-0.5849,-0.5206,-0.3332,-0.0449,0.009,0.1077,0.2508,0.3489,0.4469,0.563,0.6245,0.6776,0.7051,0.7139,0.7139,0.7139,0.7139,0.7139,0.7139,0.7139,0.7139,0.7139,0.8017,0.8978,0.9836,1.1332,0.0,0.0,0.0,0.0,0.0,0.0,0.0,0.0,0.0,2.1386,2.2709,0.0,2.4564,0.0,2.5968,2.6025,2.5394,2.6325,0.0,0.0,2.7582,2.8084,2.856,2.8662,2.9163,3.0175,3.1303,3.2341,3.3199,3.4288,3.5082,3.5439,3.5489,3.5683,3.6228,3.6384,3.6904,3.8117,3.8469,3.8924,3.9679,3.9969,3.9969,3.9833,3.9679,3.9332,3.8761,3.8652,3.8469,3.7921,3.7822,3.7978,3.8541,3.8189,3.8277,3.8934,3.8348,3.7674,3.823,3.8541,3.887,-3.6539,-3.6264,-3.64,-3.6029,-3.5267,-3.4661,-3.4336,-3.4189,-3.3969,-3.4013,-3.4229,-3.4462,-3.4841,-3.5169,-3.4126,-3.3791,-3.399,-3.2918,-3.151,-2.9684,-2.7536,-2.4957,-2.2058,-1.8846,-1.6421,-1.4747,-1.3084,-1.0137,-0.6183,-0.5563,-0.3514,0.0,0.0,0.0539,0.1523,0.2596,0.3576,0.4559,0.5265,0.6068,0.7051,0.6605,0.6605,0.7051,0.7139,0.7143,0.7234,0.7234,0.7408,0.7757,0.8456,0.9414,1.0621,1.1906,1.3115,0.0,0.0,0.0,0.0,0.0,0.0,0.0,0.0,0.0,0.0,0.0,2.4933,2.5676,2.633,2.6524,2.5946,2.6865,2.7573,2.7657,2.8147,2.8586,2.8888,2.9151,2.9504,3.005,3.1071,3.1988,3.2834,3.3837,3.4773,3.5424,3.5489,3.5668,3.607,3.6399,3.7024,3.8189,3.869,3.9193,3.9952,4.0087,4.0087,4.0087,4.0087,3.9952,3.9489,3.9437,3.9262,3.8903,3.9095,3.9435,3.9814,3.9934,4.0117,4.0657,4.0415,3.9929,3.9913,4.0171,4.0581,-3.7234,-3.7402,-3.743,-3.7393,-3.7201,-3.574,-3.5094,-3.5015,-3.4701,-3.4992,-3.5684,-3.6141,-3.6405,-3.6434,-3.5412,-3.472,-3.4297,-3.3905,-3.2579,-3.0425,-2.826,-2.5836,-2.3151,-1.9214,-1.683,-1.5854,-1.3607,-1.066,-0.7041,-0.6002,-0.3605,0.0,0.0,0.009,0.0448,0.1792,0.2774,0.3218,0.4111,0.5359,0.6789,0.5985,0.5983,0.6962,0.7051,0.7231,0.7507,0.7507,0.7852,0.8544,0.8982,0.9932,1.1671,1.2254,1.3438,0.0,1.6296,0.0,0.0,0.0,0.0,0.0,0.0,0.0,0.0,2.4921,2.5727,2.6177,2.6739,2.7155,2.7155,2.7653,2.7977,2.8222,2.8699,2.9038,2.9051,2.949,2.9869,2.9934,3.0846,3.1742,3.2749,3.3602,3.4528,3.5344,3.5489,3.5489,3.5619,3.6305,3.7084,3.7806,3.858,3.9368,3.9952,4.0087,4.0087,4.0087,4.0087,4.0087,4.007,4.0172,4.0257,4.0256,4.0745,4.127,4.1356,4.1847,4.2233,4.2334,4.2281,4.2034,4.1516,4.1703,4.2286,-3.9083,-3.8512,-3.8798,-3.8495,-3.7824,-3.7507,-3.7127,-3.6717,-3.6594,-3.6531,-3.6491,-3.6574,-3.6999,-3.7488,-3.6266,-3.5995,-3.6506,-3.5608,-3.4659,-3.3549,-2.9682,-2.7314,-2.594,-2.0134,-1.7154,-1.6838,-1.4782,-1.1406,-0.7037,-0.6824,-0.4422,0.0,0.0,0.009,0.0448,0.0,0.0,0.0,0.4202,0.4832,0.5384,0.5905,0.6432,0.6792,0.7054,0.0,0.7507,0.7676,0.8113,0.8803,0.9937,0.0,0.0,0.0,0.0,0.0,0.0,0.0,0.0,0.0,0.0,0.0,2.1629,2.2457,2.357,2.5529,2.6937,2.7601,2.7811,2.7873,2.7873,2.8362,2.8687,2.8787,2.9277,2.9628,2.9628,2.9729,3.0075,3.0833,3.1756,3.2664,3.3602,3.4624,3.5279,3.5424,3.5489,3.5489,3.5489,3.6662,3.779,3.858,3.9315,3.9901,4.007,4.0087,4.0087,4.0087,4.0087,4.0087,4.0138,4.0612,4.0984,4.1001,4.1576,4.2083,4.2083,4.2202,4.2557,4.3081,4.32,4.2976,4.2244,4.2196,4.2303,-3.991,-3.9659,-3.9813,-3.9642,0.0,-3.9242,-3.9073,-3.8765,-3.7756,-3.7419,-3.7563,-3.7972,-3.8268,-3.8449,-3.7292,-3.6917,-3.7135,-3.6079,-3.5424,-3.4908,-3.1177,-2.9226,-2.8727,-2.193,-1.8679,-1.8601,-1.5584,-1.2292,-0.8875,-0.7542,-0.5225,-0.1784,-0.0538,0.009,0.0269,0.0897,0.2152,0.3948,0.4387,0.4832,0.5196,0.5633,0.6251,0.6881,0.7051,0.0,0.0,0.0,0.0,0.0,0.0,0.0,0.0,1.3774,0.0,1.6104,1.713,1.7879,1.8471,1.9879,2.0633,2.0649,2.1808,2.3139,2.4427,2.5396,2.6488,2.7925,2.7879,2.7952,2.8449,2.9013,2.9365,2.9365,2.9616,2.9779,2.9779,2.9779,3.0139,3.1044,3.1596,3.2393,3.3808,3.4394,3.4986,3.5424,3.5489,3.5489,3.5619,3.6829,3.8149,3.9279,3.9799,4.007,4.0087,4.0087,4.0087,4.0087,4.0087,4.024,4.0561,4.095,4.1305,4.1677,4.2354,4.2844,4.2878,4.3149,4.3555,4.3876,4.3995,4.3893,4.3487,4.342,4.342,-4.0323,-4.0527,-4.0489,-4.0508,-4.0546,-4.0527,-4.0546,-4.045,-3.8829,0.0,0.0,-3.9394,-3.9542,-3.9212,-3.823,-3.7713,-3.7399,-3.6347,-3.5847,-3.5681,-3.2337,-3.0761,-3.0461,-2.3649,-2.029,-1.9908,-1.6203,-1.3105,-1.054,-0.8136,-0.5827,-0.3461,-0.1163,0.009,0.0269,0.0539,0.1795,0.4041,0.4297,0.4645,0.5267,0.5536,0.6071,0.7054,0.7051,0.7245,0.7542,0.8504,0.9481,1.0489,1.1625,1.2766,1.3862,1.4327,1.496,1.5984,1.7557,1.8243,1.807,2.0223,2.1275,2.0482,2.2211,2.3864,2.5228,2.5116,2.585,2.7903,2.7678,2.7854,2.8925,2.9503,2.9779,2.9779,2.9779,2.9779,2.9779,2.9779,3.0139,3.1031,3.1389,3.2092,3.3739,3.4245,3.4543,3.5279,3.5489,3.5683,3.6037,3.7011,3.8262,3.9437,3.9901,4.0087,4.0087,4.0087,4.0087,4.0087,4.0189,4.051,4.1035,4.1424,4.183,4.2388,4.3115,4.3538,4.3656,4.4062,4.4553,4.457,4.457,4.457,4.457,4.4553,4.4485,-4.0627,-4.0677,-4.0527,-4.0546,-4.0677,-4.0677,-4.0716,-4.0735,-4.0281,-3.9998,-3.9871,-3.998,-4.0002,-3.9903,-3.9016,-3.8611,-3.8506,-3.7273,-3.6696,-3.6505,-3.2644,-3.0761,-3.0446,-2.4412,-2.0973,-1.9889,-1.6984,-1.3783,-1.0631,-0.8194,-0.5829,-0.3544,-0.1162,0.0539,0.1522,0.2593,0.3304,0.3664,0.3306,0.3748,0.5078,0.58,0.6432,0.6792,0.7058,0.7293,0.7692,0.8053,0.9108,1.0995,1.1551,1.257,1.4347,1.4532,1.5164,1.6419,1.7731,1.8751,1.9613,2.1006,2.1948,2.2138,2.2744,2.3458,2.4299,2.5059,2.6189,2.7889,2.7985,2.8409,2.9512,2.9729,2.9779,2.9779,2.9779,2.9779,2.9779,2.9779,3.0139,3.1106,3.196,3.2735,3.3808,3.4691,3.5213,3.5424,3.5489,3.591,3.7011,3.7648,3.8149,3.8924,3.9662,4.002,4.0087,4.0087,4.0104,4.0087,4.0629,4.1052,4.1356,4.2236,4.2963,4.3217,4.3842,4.4282,4.4367,4.4485,4.457,4.457,4.457,4.457,4.457,4.457,4.457,-4.0765,-4.0735,-4.0696,-4.0696,-4.075,-4.0752,-4.0765,-4.0804,-4.0707,-4.0577,-4.0432,-4.0419,-4.0317,-4.0024,-3.9376,-3.8975,-3.8755,-3.7751,-3.7148,-3.6703,-3.4016,-3.2568,-3.1728,-2.6034,-2.2902,-2.2204,-1.8432,-1.5515,-1.3206,-0.9742,-0.7051,-0.5205,-0.1784,0.0269,0.0807,0.1344,0.1969,0.268,0.4283,0.5176,0.5262,0.632,0.6995,0.7091,0.7252,0.7421,0.7674,0.8402,0.9167,1.0172,1.1553,1.2803,1.3866,1.463,1.5349,1.612,1.7311,1.8213,1.8734,2.0508,2.1652,2.183,2.2659,2.3231,2.3604,2.3988,2.5059,2.7023,2.7209,2.7695,2.8779,2.9443,2.9779,2.9779,2.9779,2.9779,2.9779,2.9779,3.0126,3.1119,3.2033,3.2947,3.3891,3.4905,3.5504,3.5489,3.5489,3.5958,3.704,3.7573,3.8222,3.9332,3.9833,4.007,4.0087,4.0087,4.024,4.0595,4.0967,4.1542,4.2168,4.3098,4.3521,4.3961,4.4367,4.4536,4.457,4.457,4.457,4.457,4.457,4.457,4.457,4.457,4.457,-4.0849,-4.0831,-4.0812,-4.0819,-4.0839,-4.0879,-4.0883,-4.0898,-4.089,-4.0829,-4.0783,-4.0723,-4.0543,-4.0194,-3.9794,-3.9452,-3.9094,-3.8254,-3.7652,-3.7131,-3.522,-3.4088,-3.3157,-2.7585,-2.4649,-2.3875,-1.9571,-1.6708,-1.5274,-1.1288,-0.8092,-0.599,-0.205,0.0,0.0,0.0271,0.0903,0.1894,0.4786,0.6051,0.5492,0.6424,0.7142,0.7431,0.7536,0.7614,0.7645,0.8479,0.9239,0.9934,1.1703,1.309,1.3942,1.492,1.5598,1.5893,1.7037,1.787,1.8234,2.0124,2.1293,2.1293,2.2403,2.3135,2.3144,2.3144,2.3897,2.5724,2.6141,2.6625,2.7936,2.8846,2.9534,2.9702,2.9779,2.9779,2.9779,2.9779,3.0075,3.0846,3.1888,3.2876,3.3671,3.4758,3.5424,3.5489,3.5489,3.5782,3.6508,3.7263,3.8374,3.9385,3.9969,4.0087,4.0087,4.0273,4.0578,4.1153,4.1542,4.2219,4.3098,4.3487,4.3859,4.4401,4.4536,4.457,4.457,4.457,4.457,4.457,4.457,4.457,4.457,4.457,4.457,-4.0974,-4.0969,-4.0853,-4.0878,-4.0986,-4.1091,-4.1143,-4.1135,-4.1159,-4.1104,-4.0943,-4.0855,-4.0731,-4.0646,-4.0546,-4.0422,-4.0208,-3.9175,-3.8655,-3.8269,-3.5638,-3.4281,-3.3795,-2.8562,-2.541,-2.4049,-1.979,-1.7086,-1.5786,-1.205,-0.8103,-0.4066,-0.1251,0.0,0.0,0.1097,0.1658,0.1842,0.3181,0.4489,0.5527,0.5712,0.6338,0.7577,0.7594,0.7662,0.7784,0.7883,0.9099,1.1376,1.1874,1.3047,1.5197,1.569,1.5798,1.5825,1.7037,1.8141,1.9222,2.0576,2.1293,2.1382,2.2306,2.3047,2.3057,2.3057,2.3551,2.4713,2.4957,2.5859,2.7752,2.8255,2.8767,2.9534,2.9792,2.9779,2.9779,2.9779,2.9869,2.9946,3.1476,3.2678,3.2961,3.4341,3.5424,3.5489,3.5489,3.5782,3.6508,3.7263,3.8076,3.8924,3.9627,4.0121,4.0206,4.0679,4.1085,4.1339,4.2354,4.3098,4.3538,4.4028,4.4519,4.4468,4.457,4.457,4.457,4.457,4.457,4.457,4.457,4.457,4.457,4.457,4.457,-4.0981,-4.098,-4.0859,-4.0819,-4.0886,-4.094,-4.0964,-4.097,-4.0972,-4.0933,-4.0877,-4.0836,-4.0793,-4.0757,-4.0761,-4.0716,-4.0569,-3.991,-3.9328,-3.8691,-3.6916,-3.5505,-3.3941,-3.0563,-2.8174,-2.6764,-2.2805,-1.9975,-1.7458,-1.168,-0.6807,-0.3546,-0.1175,0.0,0.0,0.0466,0.0753,0.0753,0.1246,0.212,0.3443,0.4995,0.5981,0.6571,0.7417,0.7882,0.7936,0.7946,0.8463,0.96,1.1068,1.2334,1.3397,1.4956,1.5825,1.592,1.7669,1.8319,1.739,1.9745,2.1025,2.0305,2.0674,2.1498,2.2872,2.2492,2.2561,2.3617,2.4372,2.5284,2.6108,2.7348,2.8335,2.8779,2.9365,2.9779,2.9779,2.9779,2.9779,2.9856,3.0908,3.2033,3.2749,3.4259,3.5359,3.5489,3.5489,3.5782,3.6492,3.7263,3.8019,3.8865,3.991,4.0662,4.0764,4.0967,4.1542,4.2337,4.298,4.347,4.4045,4.4282,4.457,4.457,4.457,4.457,4.457,4.457,4.457,4.457,4.457,4.457,4.457,4.457,4.457,-4.0985,-4.0954,-4.0831,-4.0801,-4.0801,-4.0801,-4.0801,-4.0801,-4.0801,-4.0801,-4.0801,-4.0811,-4.0828,-4.085,-4.0824,-4.0769,-4.0687,-4.0342,-3.9795,-3.9008,-3.7906,-3.6474,-3.4618,-3.1902,-3.009,-2.8546,-2.4732,-2.1388,-1.8393,-1.1793,-0.674,-0.4459,-0.2096,-0.0648,0.0,0.0,0.0,0.0,0.0,0.0494,0.1676,0.3936,0.551,0.5912,0.6883,0.7637,0.7939,0.8038,0.8333,0.9114,1.0872,1.2237,1.3011,1.4758,1.5825,1.592,1.7483,1.7755,1.592,1.8656,2.0124,1.9588,1.9497,2.0486,2.2306,2.2031,2.1943,2.295,2.3877,2.4372,2.4946,2.6532,2.7695,2.8096,2.9106,2.9779,2.9779,2.9779,2.9779,2.9856,3.0696,3.1683,3.289,3.4409,3.5489,3.5489,3.5489,3.5619,3.6275,3.7115,3.8026,3.8841,4.0167,4.1084,4.1221,4.1711,4.2337,4.298,4.3538,4.3995,4.4485,4.4536,4.457,4.457,4.457,4.457,4.457,4.457,4.457,4.457,4.457,4.457,4.457,4.457,4.457,-4.0985,-4.0966,-4.0866,-4.0781,-4.0804,-4.08,-4.0785,-4.0776,-4.0781,-4.0785,-4.0795,-4.0791,-4.0848,-4.0971,-4.084,-4.0805,-4.0738,-4.041,-4.007,-3.9564,-3.8203,-3.6933,-3.5828,-3.2345,-3.0391,-2.9514,-2.4841,-2.0209,-1.6208,-1.2289,-0.9225,-0.6786,-0.4387,-0.2135,0.0,0.0,0.0,0.0,0.0,0.0,0.0403,0.2709,0.4606,0.5613,0.6126,0.6833,0.7836,0.8038,0.9118,1.1556,1.175,1.2915,1.5248,1.5642,1.5825,1.5825,1.6015,1.6015,1.6015,1.7217,1.8411,1.9231,1.9222,2.0404,2.2325,2.1756,2.1658,2.295,2.3135,2.3714,2.4628,2.5797,2.6871,2.7775,2.9028,2.9611,2.9714,2.9702,2.9779,2.9934,3.0696,3.1888,3.3587,3.4839,3.5424,3.5489,3.5489,3.5584,3.5903,3.6907,3.8083,3.903,4.0188,4.1238,4.1356,4.2151,4.3014,4.3606,4.4062,4.4451,4.4519,4.457,4.457,4.457,4.457,4.457,4.457,4.457,4.457,4.457,4.457,4.457,4.457,4.457,4.457,-4.0754,-4.0696,-4.0639,-4.062,-4.062,-4.06,-4.06,-4.062,-4.062,-4.06,-4.062,-4.062,-4.0677,-4.08,-4.0803,-4.0857,-4.0896,-4.076,-4.0369,-3.9772,-3.9186,-3.7932,-3.6052,-3.4645,-3.3155,-3.1095,-2.7184,-2.2363,-1.7207,-1.3864,-1.104,-0.8395,-0.5334,-0.2965,-0.1455,-0.0396,0.0,0.0,0.0,0.0,0.0,0.1008,0.2114,0.3518,0.6024,0.7534,0.7939,0.8038,0.8825,1.0583,1.1458,1.2721,1.4364,1.5343,1.5825,1.592,1.6574,1.6662,1.6109,1.7037,1.787,1.8226,1.7576,1.8303,2.0133,2.0395,2.0666,2.1756,2.2765,2.329,2.38,2.4713,2.5546,2.6119,2.7602,2.8767,2.8858,2.9275,2.9779,2.9998,3.1132,3.2379,3.3171,3.4476,3.5439,3.5489,3.5504,3.5699,3.6275,3.7468,3.8777,3.9672,4.1213,4.2625,4.2625,4.2963,4.3521,4.4012,4.4434,4.4502,4.457,4.457,4.457,4.457,4.457,4.457,4.457,4.457,4.457,4.457,4.457,4.457,4.457,4.457,4.457,-4.0639,-4.0508,-4.0489,-4.0489,-4.0489,-4.0489,-4.0489,-4.0489,-4.0489,-4.0489,-4.0489,-4.0489,-4.0566,-4.0694,-4.0727,-4.086,-4.0976,-4.0976,-4.0638,-4.0044,-3.9867,-3.8755,-3.7055,-3.6347,-3.5172,-3.2882,-2.8436,-2.3584,-1.9132,-1.5528,-1.2626,-1.0044,-0.7127,-0.4665,-0.2757,-0.1301,-0.0504,0.0,0.0,0.0,0.0,0.0404,0.1008,0.2314,0.5522,0.7335,0.7335,0.7739,0.8627,0.9899,1.117,1.2721,1.4364,1.5343,1.5825,1.592,1.6567,1.6756,1.6008,1.6567,1.7225,1.7591,1.6669,1.6835,1.9131,1.9497,2.0124,2.1212,2.2403,2.3144,2.3299,2.4135,2.4787,2.5041,2.6767,2.8084,2.8176,2.9118,2.9702,3.0088,3.1415,3.2393,3.2806,3.4409,3.5279,3.5504,3.5654,3.6043,3.6556,3.8075,3.9482,4.0276,4.1964,4.3221,4.3572,4.3809,4.391,4.4333,4.4468,4.4536,4.457,4.457,4.457,4.457,4.457,4.457,4.457,4.457,4.457,4.457,4.457,4.457,4.457,4.457,4.457,-4.062,-4.0508,-4.0489,-4.0489,-4.0489,-4.0489,-4.0489,-4.0489,-4.0489,-4.0489,-4.0457,-4.0489,-4.0566,-4.0677,-4.0689,-4.0801,-4.0937,-4.0976,-4.0781,-4.041,-4.0043,-3.9342,-3.8269,-3.7011,-3.579,-3.4468,-2.779,-2.3461,-2.1098,-1.7154,-1.3818,-1.1538,-0.9857,-0.7224,-0.3987,-0.2708,-0.1411,0.0,0.0,0.0,0.0101,0.1109,0.1611,0.2114,0.4422,0.5829,0.5927,0.7235,0.8627,0.9998,1.1165,1.3108,1.5242,1.5825,1.5825,1.5825,1.5825,1.5832,1.5825,1.592,1.648,1.7131,1.6473,1.6936,1.8764,1.9588,2.0124,2.1203,2.2403,2.3144,2.3222,2.3963,2.4628,2.4957,2.6696,2.8004,2.8176,2.9106,2.9779,3.0075,3.1415,3.2522,3.2961,3.4274,3.5454,3.5699,3.6043,3.6507,3.6895,3.8525,3.9973,4.1042,4.2275,4.3474,4.4086,4.4553,4.4536,4.4553,4.4553,4.457,4.457,4.457,4.457,4.457,4.457,4.457,4.457,4.457,4.457,4.457,4.457,4.457,4.457,4.457,4.457,-4.0527,-4.0489,-4.0489,-4.0489,-4.0489,-4.0489,-4.0489,-4.0489,-4.0489,-4.0389,-4.0267,-4.0425,-4.0449,-4.0385,-4.0581,-4.0731,-4.0791,-4.0918,-4.082,-4.0508,-4.0347,-3.9653,-3.8651,-3.8187,-3.6468,-3.324,-2.8382,-2.4402,-2.1635,-1.844,-1.519,-1.2146,-1.0482,-0.8304,-0.5504,-0.4014,-0.2715,-0.1511,-0.141,-0.1008,-0.0101,0.0,0.0,0.0807,0.2314,0.3218,0.3419,0.6329,0.8528,0.9899,1.1165,1.3113,1.5248,1.5825,1.5825,1.5825,1.5825,1.5825,1.5825,1.5825,1.592,1.6393,1.6756,1.7404,1.8319,1.9761,2.0755,2.1382,2.2403,2.3144,2.3135,2.3387,2.3714,2.3714,2.6273,2.7775,2.7626,2.8712,2.9624,2.9998,3.1476,3.2451,3.2961,3.4288,3.5648,3.6088,3.6387,3.6776,3.7759,3.8893,4.0308,4.1501,4.2638,4.3588,4.4215,4.457,4.457,4.457,4.457,4.457,4.457,4.457,4.457,4.457,4.457,4.457,4.457,4.457,4.457,4.457,4.457,4.457,4.457,4.457,4.457,-4.0624,-4.0375,-4.0356,-4.0336,-4.0356,-4.0356,-4.0425,-4.0473,-4.0389,-4.0269,-4.0158,-4.0267,-4.0252,-4.0176,-4.0366,-4.0559,-4.0703,-4.0835,-4.0824,-4.0654,-4.053,-4.0071,-3.9416,-3.9139,-3.7517,-3.4188,-3.0287,-2.6674,-2.327,-2.0281,-1.7003,-1.3703,-1.1512,-0.9641,-0.7394,-0.5613,-0.3917,-0.2314,-0.2013,-0.1411,0.0,0.0,0.0,0.0,0.131,0.1913,0.2214,0.5425,0.7627,0.8806,1.0574,1.2915,1.4854,1.5534,1.5825,1.5825,1.5825,1.5825,1.5825,1.5825,1.5825,1.6015,1.6574,1.7225,1.787,1.9588,2.0666,2.1382,2.2403,2.3144,2.3135,2.3551,2.3714,2.38,2.5953,2.7452,2.7718,2.8882,2.9702,3.0139,3.1489,3.2393,3.2961,3.4549,3.5917,3.6432,3.6911,3.7315,3.8421,3.936,4.0622,4.1741,4.2717,4.358,4.439,4.457,4.457,4.457,4.457,4.457,4.457,4.457,4.457,4.457,4.457,4.457,4.457,4.457,4.457,4.457,4.457,4.457,4.457,4.457,4.457,-4.0864,-4.0196,-4.01,-4.0081,-4.0081,-4.0081,-4.0194,-4.0389,-4.0213,-4.0101,-4.0042,-4.012,-4.0078,-4.0034,-4.0099,-4.0344,-4.0623,-4.0718,-4.0811,-4.0876,-4.0839,-4.0818,-4.0976,-4.0002,-3.8398,-3.6346,-3.3037,-2.9438,-2.5532,-2.2022,-1.902,-1.554,-1.2898,-1.1137,-0.9351,-0.7301,-0.4922,-0.2917,-0.2515,-0.1812,0.0,0.0,0.0,0.0,0.1109,0.1712,0.2114,0.432,0.6027,0.6722,1.0173,1.2528,1.3884,1.5146,1.5825,1.5825,1.5825,1.5825,1.5825,1.6015,1.6015,1.5832,1.6292,1.648,1.7948,1.9322,2.0576,2.148,2.2492,2.3144,2.3299,2.38,2.4467,2.4957,2.6202,2.7626,2.9365,2.9714,2.9779,3.0075,3.1341,3.2635,3.2846,3.4936,3.6201,3.6896,3.7629,3.8207,3.8931,3.9902,4.097,4.1997,4.2925,4.3604,4.4367,4.457,4.457,4.457,4.457,4.457,4.457,4.457,4.457,4.457,4.457,4.457,4.457,4.457,4.457,4.457,4.457,4.457,4.457,4.457,4.457,-4.1168,-4.0901,-4.0087,-3.9712,-3.9712,-3.9731,-3.9903,-4.0177,-4.0139,-3.9943,-3.9819,-4.0002,-3.9819,-3.9452,-3.9889,-4.0155,-4.0307,-4.0566,-4.0742,-4.0946,-4.1601,-4.1986,-4.195,-4.0667,-3.9279,-3.7605,-3.3982,-3.0044,-2.6846,-2.291,-1.9146,-1.5745,-1.3188,-1.1258,-0.9878,-0.8315,-0.6728,-0.5225,-0.4924,-0.372,-0.1812,-0.141,-0.0907,0.0,0.0404,0.0605,0.0807,0.3116,0.6114,0.8806,1.0769,1.2528,1.3782,1.5045,1.5825,1.5825,1.5825,1.5825,1.6015,1.6669,1.6756,1.6103,1.7304,1.8672,1.8948,2.0141,2.132,2.2403,2.296,2.3144,2.3135,2.3474,2.4307,2.588,2.6953,2.8187,2.9365,2.9779,2.9779,2.9998,3.1476,3.2499,3.3577,3.5074,3.6798,3.7614,3.8222,3.8852,3.9642,4.0155,4.108,4.2395,4.3306,4.3798,4.4236,4.4497,4.457,4.457,4.457,4.457,4.457,4.457,4.457,4.457,4.457,4.457,4.457,4.457,4.457,4.457,4.457,4.457,4.457,4.457,4.457,-4.1658,-4.0839,-4.0177,-3.9683,-3.9427,-3.9389,-3.9664,-4.0002,-3.9943,-3.9797,-3.9687,-3.9797,-3.9583,-3.9195,-3.9637,-3.9967,-4.013,-4.045,-4.0677,-4.1006,-4.2013,-4.2604,-4.2482,-4.1506,-4.0256,-3.848,-3.5711,-3.1537,-2.7148,-2.3951,-2.034,-1.6116,-1.3182,-1.1556,-1.0774,-0.892,-0.7335,-0.6229,-0.5929,-0.4924,-0.3016,-0.2212,-0.1712,-0.0807,-0.0303,0.0303,0.1711,0.3215,0.5413,0.8103,1.0471,1.2237,1.3108,1.4848,1.573,1.5825,1.5825,1.5825,1.6015,1.6951,1.7037,1.6386,1.7669,1.8864,1.9405,2.0223,2.1141,2.2775,2.3047,2.3144,2.3222,2.3464,2.4638,2.6141,2.7441,2.8518,2.9624,2.9779,2.9779,3.0139,3.1084,3.2468,3.3436,3.5193,3.6748,3.8038,3.8616,3.941,4.0309,4.0644,4.133,4.2707,4.3502,4.3873,4.4253,4.4497,4.457,4.457,4.457,4.457,4.457,4.457,4.457,4.457,4.457,4.457,4.457,4.457,4.457,4.457,4.457,4.4626,4.4609,4.472,4.472,-4.2194,-4.043,-4.0309,-3.9826,-3.9119,-3.909,-3.9432,-3.9901,-3.9754,-3.9622,-3.9622,-3.9599,-3.9388,-3.9074,-3.9471,-3.9772,-4.0041,-4.0358,-4.0872,-4.146,-4.2361,-4.3002,-4.3188,-4.2701,-4.1059,-3.8983,-3.8165,-3.3603,-2.8635,-2.6334,-2.2639,-1.7908,-1.4183,-1.2318,-1.1541,-0.9501,-0.7534,-0.6631,-0.6431,-0.5724,-0.4218,-0.3115,-0.2213,-0.1712,-0.0504,0.1108,0.2715,0.3915,0.4818,0.6029,0.9682,1.1551,1.2139,1.437,1.5534,1.5825,1.5825,1.5825,1.6103,1.7131,1.7318,1.6386,1.7124,1.8319,1.9314,1.9679,2.0674,2.295,2.3047,2.3144,2.3222,2.3973,2.4872,2.5964,2.7186,2.8359,2.9353,2.9702,2.9779,2.9869,3.0646,3.1984,3.3518,3.5094,3.672,3.8501,3.9062,3.9832,4.0576,4.1115,4.2045,4.335,4.3756,4.3831,4.4196,4.457,4.457,4.457,4.457,4.457,4.457,4.457,4.457,4.457,4.457,4.457,4.457,4.457,4.457,4.457,4.457,4.4665,4.4703,4.4906,4.4961,-4.2513,-4.1241,-4.0362,-3.951,-3.8847,-3.8803,-3.9154,-3.9709,-3.9645,-3.9599,-3.9599,-3.9599,-3.9305,-3.8823,-3.932,-3.9643,-3.9795,-4.0315,-4.128,-4.2799,-4.2781,-4.3593,-4.3986,-4.3614,-4.1744,-3.9665,-3.8704,-3.5563,-3.1256,-2.7748,-2.5606,-2.1933,-1.6078,-1.3419,-1.2844,-0.9878,-0.7939,-0.7537,-0.7537,-0.6833,-0.5625,-0.4218,-0.3016,-0.2013,-0.0706,0.0706,0.2213,0.3414,0.462,0.6321,0.8704,1.0779,1.2042,1.3494,1.4758,1.5635,1.5825,1.5825,1.6197,1.749,1.8133,1.6386,1.7669,1.9231,1.9405,1.9497,2.0674,2.2501,2.3144,2.3144,2.3135,2.3299,2.4125,2.521,2.6295,2.7371,2.8347,2.9275,2.9702,3.0074,3.1008,3.2431,3.414,3.5589,3.7201,3.8703,3.9531,4.017,4.0842,4.1528,4.2567,4.3739,4.4121,4.4196,4.431,4.457,4.457,4.457,4.457,4.457,4.457,4.457,4.457,4.457,4.457,4.457,4.457,4.4626,4.4626,4.457,4.4665,4.4944,4.5125,4.5178,4.532,-4.2725,-4.1348,-4.0712,-3.979,-3.8799,-3.8707,-3.9036,-3.9548,-3.9599,-3.9599,-3.9599,-3.9599,-3.9268,-3.875,-3.9144,-3.9439,-3.9734,-4.0319,-4.1605,-4.2941,-4.3097,-4.3628,-4.4527,-4.3943,-4.2353,-3.9863,-3.8864,-3.5667,-3.0956,-2.831,-2.5456,-2.2117,-1.7106,-1.4444,-1.3504,-1.0547,-0.8722,-0.8038,-0.8038,-0.7637,-0.6833,-0.5625,-0.3817,-0.2114,-0.0706,0.0605,0.2013,0.3316,0.4618,0.6124,0.8021,0.9998,1.175,1.3199,1.4459,1.5534,1.5825,1.5825,1.6285,1.7397,1.8041,1.685,1.8041,1.9123,1.9761,1.9852,2.0683,2.2413,2.3144,2.3144,2.3144,2.3135,2.3637,2.4713,2.5808,2.6871,2.8016,2.9106,2.9779,3.0112,3.1125,3.2707,3.4361,3.59,3.7492,3.8954,3.929,3.9935,4.1229,4.1997,4.2892,4.3814,4.431,4.4514,4.4514,4.457,4.457,4.457,4.457,4.457,4.457,4.457,4.457,4.457,4.457,4.457,4.457,4.4626,4.472,4.4998,4.5178,4.5407,4.5597,4.5783,4.5915,-4.286,-4.1097,-4.1097,-4.0194,-3.8836,-3.8707,-3.9036,-3.9552,-3.9599,-3.9599,-3.9599,-3.9599,-3.9249,-3.8873,-3.8999,-3.932,-3.977,-4.0289,-4.1485,-4.2821,-4.2928,-4.3512,-4.4252,-4.3999,-4.2659,-3.9861,-3.9102,-3.5118,-3.0895,-2.7861,-2.6224,-2.1502,-1.7742,-1.5846,-1.3963,-1.1604,-0.9497,-0.823,-0.8038,-0.7939,-0.7633,-0.6526,-0.4618,-0.2214,-0.0706,0.0907,0.2314,0.3515,0.472,0.6232,0.7434,0.9209,1.1161,1.2909,1.4364,1.5629,1.5825,1.5825,1.6015,1.6943,1.7777,1.7684,1.7785,1.8772,2.0025,2.0124,2.0674,2.1952,2.2862,2.3144,2.3144,2.3144,2.356,2.4467,2.5641,2.6883,2.7775,2.8949,2.9702,3.0022,3.1383,3.3015,3.4554,3.6102,3.7682,3.8941,3.9262,3.9864,4.1162,4.2189,4.297,4.3739,4.4253,4.457,4.457,4.457,4.457,4.457,4.457,4.457,4.457,4.457,4.457,4.457,4.457,4.457,4.457,4.457,4.4869,4.5284,4.5425,4.532,4.5732,4.627,4.6507,-4.286,-4.1097,-4.1097,-4.0194,-3.8836,-3.8707,-3.9036,-3.9552,-3.9599,-3.9599,-3.9599,-3.9599,-3.9249,-3.8884,-3.8971,-3.94,-3.9865,-4.0291,-4.1046,-4.229,-4.2597,-4.3219,-4.3846,-4.4036,-4.2747,-4.0844,-3.9614,-3.7116,-3.3573,-3.0798,-2.8011,-2.6214,-2.1434,-1.7674,-1.533,-1.2789,-1.044,-0.8711,-0.8131,-0.8038,-0.7733,-0.642,-0.4814,-0.2314,-0.0807,0.1008,0.2916,0.3815,0.5118,0.7335,0.7842,0.8825,1.0293,1.1653,1.3397,1.5146,1.573,1.5825,1.6015,1.685,1.7591,1.7684,1.7684,1.8319,1.9397,1.9753,2.0576,2.1578,2.2677,2.3144,2.3144,2.3144,2.3222,2.3887,2.5221,2.6648,2.7221,2.8542,2.9856,3.0126,3.168,3.3255,3.4692,3.6187,3.7797,3.8942,3.9292,3.999,4.108,4.1933,4.2567,4.335,4.4064,4.4384,4.457,4.457,4.457,4.457,4.457,4.457,4.457,4.457,4.457,4.457,4.457,4.457,4.457,4.457,4.4759,4.5089,4.5142,4.5178,4.6014,4.6801,4.7219,-4.2355,-4.1093,-4.0671,-3.9808,-3.8817,-3.8707,-3.8923,-3.9314,-3.9529,-3.9505,-3.9438,-3.9462,-3.9268,-3.8862,-3.8833,-3.9268,-3.9775,-4.0213,-4.0984,-4.1969,-4.2344,-4.2976,-4.3684,-4.3922,-4.2886,-4.1476,-4.0363,-3.8064,-3.4515,-3.1392,-2.9413,-2.6733,-2.2573,-1.9455,-1.7283,-1.4401,-1.2047,-1.0049,-0.8707,-0.8038,-0.7736,-0.6116,-0.4214,-0.3015,-0.1109,0.0605,0.1711,0.3515,0.4516,0.5922,0.7232,0.8619,0.9899,1.1263,1.2716,1.4465,1.5439,1.5825,1.5825,1.648,1.6943,1.7591,1.7684,1.8319,1.9314,2.0124,2.0845,2.1943,2.2492,2.3144,2.3144,2.3144,2.3387,2.4135,2.5473,2.6554,2.7464,2.8882,2.9677,3.0381,3.1888,3.3346,3.4609,3.6216,3.7943,3.8855,3.9265,4.013,4.1013,4.1723,4.2379,4.3469,4.431,4.4384,4.457,4.457,4.457,4.457,4.457,4.457,4.457,4.457,4.457,4.457,4.457,4.472,4.4626,4.4626,4.4759,4.5052,4.5459,4.5933,4.6635,4.7237,4.7614,-4.1827,-4.1038,-4.023,-3.9423,-3.8781,-3.8707,-3.8884,-3.9205,-3.9389,-3.9408,-3.9257,-3.9364,-3.9189,-3.8822,-3.8847,-3.912,-3.9709,-4.0232,-4.0907,-4.1629,-4.2063,-4.2783,-4.349,-4.3658,-4.313,-4.2356,-4.1221,-3.857,-3.5152,-3.2414,-2.9871,-2.7763,-2.4283,-2.1423,-1.9592,-1.6123,-1.3903,-1.1477,-0.9383,-0.8035,-0.7335,-0.552,-0.4016,-0.3715,-0.1411,0.0202,0.1008,0.2916,0.4116,0.522,0.6725,0.8432,0.9604,1.1068,1.2334,1.3488,1.4949,1.5629,1.5832,1.5832,1.648,1.7598,1.7684,1.8411,1.9405,2.0486,2.1658,2.2775,2.3144,2.3144,2.3144,2.3144,2.3637,2.4628,2.5714,2.6883,2.7947,2.9015,2.9831,3.0881,3.2162,3.3563,3.4929,3.6833,3.8679,3.8943,3.9424,3.999,4.0878,4.1609,4.2442,4.3798,4.4514,4.4497,4.457,4.457,4.457,4.457,4.457,4.457,4.457,4.457,4.4626,4.4665,4.4906,4.4944,4.4814,4.4776,4.5052,4.5407,4.6014,4.6524,4.7062,4.7385,4.7715,-4.1827,-4.1038,-4.0212,-3.9423,-3.8762,-3.8707,-3.9008,-3.9457,-3.9264,-3.9333,-3.9457,-3.9282,-3.9017,-3.881,-3.8988,-3.9436,-3.9892,-4.0158,-4.0534,-4.1147,-4.1713,-4.2368,-4.3099,-4.3484,-4.3378,-4.2907,-4.2103,-4.0018,-3.6917,-3.4288,-3.2595,-3.0619,-2.7081,-2.4451,-2.1921,-1.791,-1.4276,-1.1839,-0.9379,-0.8038,-0.7534,-0.542,-0.4216,-0.3314,-0.151,0.0404,0.141,0.3015,0.4316,0.5525,0.7033,0.8038,0.8627,1.0583,1.1653,1.2818,1.4178,1.5825,1.5825,1.5825,1.6204,1.7225,1.7684,1.8319,1.9679,2.0764,2.1756,2.296,2.3135,2.3299,2.3299,2.3309,2.38,2.4882,2.613,2.7128,2.8108,2.9106,2.9908,3.0918,3.2156,3.3875,3.5508,3.7507,3.9265,3.9352,3.9553,4.0115,4.0946,4.1933,4.2707,4.3989,4.457,4.457,4.457,4.457,4.457,4.457,4.457,4.4626,4.4626,4.4682,4.472,4.4814,4.5089,4.5267,4.5178,4.5178,4.5355,4.5732,4.6288,4.6774,4.7237,4.7572,4.7897,-4.0726,-4.0359,-3.9551,-3.9038,-3.8726,-3.8707,-3.8942,-3.9231,-3.916,-3.916,-3.9282,-3.916,-3.8943,-3.8844,-3.9158,-3.9542,-3.9844,-4.0158,-4.0473,-4.0742,-4.1256,-4.1832,-4.2488,-4.2806,-4.2943,-4.3212,-4.2585,-4.1381,-3.874,-3.598,-3.3619,-3.2022,-2.8533,-2.57,-2.4065,-1.9987,-1.6764,-1.3625,-1.0427,-0.8134,-0.7335,-0.5522,-0.4016,-0.3915,-0.141,0.0,0.1209,0.3015,0.4116,0.5222,0.6731,0.7939,0.8627,1.0288,1.1945,1.2139,1.437,1.573,1.5825,1.5825,1.6204,1.6943,1.7948,1.9588,2.0944,2.1391,2.1845,2.296,2.3714,2.3963,2.4211,2.4723,2.5535,2.6449,2.6871,2.7787,2.87,2.9197,3.0138,3.1072,3.2168,3.397,3.5683,3.7376,3.8926,3.9538,3.9809,4.0309,4.1528,4.2953,4.3604,4.4327,4.457,4.457,4.457,4.457,4.457,4.457,4.457,4.4626,4.4737,4.4776,4.4814,4.5178,4.5648,4.5681,4.5545,4.5732,4.6014,4.624,4.6524,4.7044,4.753,4.7838,4.8132,-3.979,-3.9533,-3.8946,-3.8707,-3.8707,-3.8707,-3.8913,-3.9186,-3.9054,-3.909,-3.9152,-3.909,-3.8952,-3.9036,-3.9388,-3.9677,-3.9865,-4.0283,-4.0569,-4.0717,-4.0927,-4.1437,-4.2147,-4.248,-4.2891,-4.3409,-4.3082,-4.1884,-4.0006,-3.7695,-3.5427,-3.3289,-2.9717,-2.7546,-2.5705,-2.1792,-1.7505,-1.3849,-1.0467,-0.8627,-0.763,-0.542,-0.4316,-0.3215,0.0,0.0,0.0,0.2614,0.4016,0.4518,0.6628,0.8134,0.8924,1.0681,1.2134,1.2818,1.4758,1.6008,1.6109,1.6109,1.592,1.6567,1.8126,2.0305,2.2403,2.2208,2.1933,2.3047,2.3627,2.4211,2.4872,2.5473,2.6367,2.7105,2.7924,2.8779,2.9599,2.9973,3.0444,3.1268,3.2529,3.4125,3.5727,3.7128,3.8369,3.9418,4.006,4.0638,4.1933,4.3604,4.4121,4.457,4.457,4.457,4.457,4.457,4.457,4.457,4.457,4.4626,4.4682,4.4869,4.4998,4.5459,4.6063,4.6336,4.6353,4.6524,4.6664,4.6847,4.7088,4.7409,4.7797,4.8114,4.8267,-3.9441,-3.8781,-3.8726,-3.8707,-3.8707,-3.8707,-3.9036,-3.9457,-3.897,-3.9036,-3.9327,-3.9017,-3.9036,-3.9389,-3.9557,-3.9887,-4.037,-4.0473,-4.0585,-4.0698,-4.0868,-4.1348,-4.1992,-4.2578,-4.306,-4.3405,-4.3361,-4.2345,-4.0961,-4.0014,-3.8019,-3.6029,-3.2013,-3.0186,-2.7167,-2.2533,-1.7379,-1.3806,-1.0806,-0.911,-0.7723,-0.5722,-0.4218,-0.3516,-0.1611,0.0,0.0101,0.2614,0.4016,0.4116,0.6526,0.8627,0.9608,1.097,1.2231,1.359,1.4854,1.6197,1.6857,1.6386,1.592,1.6567,1.8211,2.0674,2.2775,2.3135,2.3135,2.3387,2.4125,2.4457,2.4787,2.521,2.686,2.7775,2.8597,2.8937,2.9729,3.0532,3.1084,3.1656,3.2777,3.4314,3.5587,3.6958,3.8482,3.9558,4.1013,4.1543,4.2458,4.3814,4.4253,4.457,4.457,4.457,4.457,4.457,4.457,4.457,4.457,4.457,4.4626,4.4852,4.5178,4.5699,4.6257,4.6728,4.715,4.7237,4.7324,4.747,4.7656,4.7879,4.7995,4.821,4.8267,-3.8982,-3.8707,-3.8707,-3.8707,-3.8707,-3.8707,-3.9036,-3.9432,-3.897,-3.8822,-3.9036,-3.8833,-3.8913,-3.927,-3.9561,-3.9834,-4.0229,-4.0441,-4.055,-4.0673,-4.0855,-4.1101,-4.1719,-4.2402,-4.2944,-4.3073,-4.3372,-4.3306,-4.2032,-4.1534,-4.0331,-3.7897,-3.4347,-3.1419,-2.7915,-2.3243,-1.8056,-1.4696,-1.2022,-1.0151,-0.7925,-0.6326,-0.482,-0.3815,-0.2414,-0.0807,0.0202,0.2614,0.3615,0.4718,0.6625,0.8418,0.9903,1.117,1.2528,1.3782,1.5051,1.6386,1.7225,1.6756,1.6473,1.8211,1.9662,2.1302,2.2862,2.3637,2.4049,2.4457,2.5199,2.587,2.6614,2.7441,2.853,2.8949,2.9197,2.9365,2.9883,3.0745,3.1315,3.1823,3.2943,3.4335,3.5512,3.6694,3.8257,3.9807,4.1197,4.252,4.3366,4.3948,4.4384,4.457,4.457,4.457,4.457,4.457,4.457,4.4609,4.4665,4.4759,4.4906,4.5072,4.5511,4.5965,4.6524,4.7132,4.7554,4.7838,4.7937,4.7937,4.8035,4.8172,4.8267,4.8324,4.8324,-3.8707,-3.8707,-3.8707,-3.8707,-3.8707,-3.8707,-3.9036,-3.9432,-3.8989,-3.8707,-3.8707,-3.8793,-3.8968,-3.9271,-3.9619,-3.9921,-4.0247,-4.0425,-4.055,-4.0654,-4.0728,-4.084,-4.1413,-4.2226,-4.3075,-4.2937,-4.3782,-4.4053,-4.2847,-4.2904,-4.1445,-3.9225,-3.6711,-3.3747,-2.9873,-2.4294,-1.9372,-1.6278,-1.366,-1.1099,-0.881,-0.6423,-0.5022,-0.3715,-0.2213,-0.0907,0.0504,0.2414,0.3815,0.4818,0.6423,0.852,0.9899,1.1165,1.2522,1.3782,1.5038,1.6386,1.7131,1.7584,1.7669,1.9131,2.0387,2.1569,2.2648,2.3856,2.4542,2.4872,2.6356,2.7775,2.8016,2.8438,2.8949,2.9275,2.9456,2.9689,3.019,3.0908,3.1389,3.1915,3.3312,3.4829,3.5732,3.7014,3.892,4.0657,4.2407,4.336,4.3798,4.4253,4.444,4.457,4.457,4.457,4.457,4.457,4.4665,4.5035,4.5072,4.5214,4.5355,4.5545,4.5965,4.6589,4.715,4.7656,4.7937,4.8075,4.8172,4.8267,4.8324,4.8324,4.8324,4.8324,4.8324,-3.8707,-3.8707,-3.8707,-3.8707,-3.8707,-3.8707,-3.9036,-3.9505,-3.9036,-3.8732,-3.8726,-3.8921,-3.9194,-3.9524,-3.9789,-4.0061,-4.0317,-4.0457,-4.0508,-4.0546,-4.0658,-4.075,-4.1439,-4.236,-4.3251,-4.3481,-4.4323,-4.4607,-4.3382,-4.3414,-4.2032,-4.0384,-3.8426,-3.6026,-3.3004,-2.7242,-2.2006,-1.7835,-1.5143,-1.2459,-0.987,-0.6904,-0.5708,-0.3912,-0.2511,-0.1408,0.0403,0.2614,0.3915,0.4416,0.6625,0.8524,0.9899,1.097,1.2328,1.3782,1.4949,1.6285,1.7598,1.8688,1.9413,1.9861,2.1025,2.1756,2.2003,2.3308,2.4967,2.521,2.6295,2.7279,2.7763,2.8347,2.9106,2.9443,2.9702,3.0062,3.0482,3.1267,3.1888,3.2721,3.4245,3.5664,3.6377,3.7514,3.959,4.1501,4.3404,4.4232,4.4282,4.444,4.457,4.457,4.457,4.457,4.457,4.457,4.4759,4.5161,4.5442,4.5494,4.5783,4.6046,4.6524,4.715,4.7428,4.7656,4.7995,4.8286,4.8324,4.8324,4.8324,4.8324,4.8324,4.8324,4.8324,-3.8707,-3.8707,-3.8707,-3.8707,-3.8707,-3.8707,-3.9036,-3.9524,-3.9377,-3.9091,-3.8768,-3.8799,-3.8976,-3.9283,-3.9638,-3.9982,-4.023,-4.0473,-4.0489,-4.0508,-4.0639,-4.0699,-4.1302,-4.2383,-4.3315,-4.3557,-4.4523,-4.5054,-4.3939,-4.3998,-4.3214,-4.1679,-3.9396,-3.6463,-3.2332,-2.7301,-2.2571,-1.9618,-1.665,-1.3814,-1.1439,-0.9661,-0.7773,-0.5492,-0.41,-0.2407,-0.0101,0.2514,0.3715,0.4216,0.6526,0.8425,0.9608,1.0681,1.1745,1.3295,1.4651,1.5961,1.8203,1.9951,2.0683,2.1033,2.1578,2.2306,2.2658,2.3836,2.4957,2.588,2.6789,2.7855,2.9015,2.9197,2.9624,2.9702,2.9921,3.0266,3.0833,3.1815,3.2664,3.3765,3.5044,3.66,3.7626,3.7912,3.9625,4.1071,4.2795,4.3872,4.4142,4.4395,4.457,4.457,4.457,4.457,4.457,4.457,4.4944,4.5459,4.5648,4.5699,4.6014,4.6553,4.6847,4.7385,4.747,4.7572,4.7995,4.8324,4.8324,4.8324,4.8324,4.8324,4.8324,4.8324,4.8324,-3.8707,-3.8707,-3.8707,-3.8707,-3.8707,-3.8707,-3.896,-3.9275,-3.95,-3.9268,-3.881,-3.8781,-3.8929,-3.9207,-3.957,-3.9849,-4.0139,-4.0372,-4.0489,-4.0508,-4.0566,-4.0654,-4.1235,-4.2244,-4.2971,-4.3481,-4.4417,-4.5025,-4.4721,-4.4689,-4.3616,-4.1866,-4.0069,-3.7415,-3.3636,-2.9774,-2.5658,-2.263,-1.9385,-1.6679,-1.4129,-1.1778,-0.9714,-0.6958,-0.4986,-0.3601,-0.0402,0.1912,0.3615,0.4518,0.6022,0.8028,0.9011,1.0092,1.1249,1.308,1.5095,1.6598,1.8932,1.996,2.0494,2.1203,2.2403,2.2765,2.2931,2.3846,2.521,2.6295,2.7441,2.8518,2.9443,2.9624,2.9779,2.9779,2.9921,3.0266,3.1106,3.2092,3.3017,3.4187,3.5503,3.7125,3.8596,3.8907,3.9565,4.0804,4.2049,4.2895,4.3724,4.4012,4.4181,4.4181,4.4423,4.4563,4.4558,4.457,4.5035,4.5681,4.5933,4.6063,4.6819,4.7452,4.7512,4.7554,4.7756,4.7955,4.8132,4.8324,4.8324,4.8324,4.8324,4.8324,4.8324,4.8324,4.8324,-3.8707,-3.8707,-3.8707,-3.8707,-3.8707,-3.8719,-3.8762,-3.8792,-3.9352,-3.9268,-3.8707,-3.8958,-3.9029,-3.9183,-3.9744,-3.9981,-4.008,-4.0339,-4.0457,-4.0489,-4.0527,-4.06,-4.0947,-4.1749,-4.268,-4.3618,-4.4508,-4.5226,-4.5473,-4.5233,-4.3878,-4.2002,-4.0591,-3.8546,-3.609,-3.3494,-2.9325,-2.5304,-2.2131,-1.9239,-1.6378,-1.3749,-1.0826,-0.7906,-0.5565,-0.3297,-0.0703,0.1511,0.2913,0.4214,0.562,0.6924,0.8219,0.941,1.1419,1.3712,1.6216,1.7717,1.9488,2.0042,2.0674,2.1569,2.2501,2.2306,2.2463,2.3501,2.4713,2.5975,2.7035,2.8279,2.9365,2.9534,2.9779,2.9779,2.9779,3.0419,3.1254,3.2164,3.3101,3.4254,3.5631,3.7172,3.8674,3.9263,3.9424,4.033,4.1238,4.1491,4.2337,4.3183,4.3352,4.3508,4.3851,4.4415,4.45,4.4599,4.5425,4.6247,4.6478,4.6728,4.7512,4.8038,4.7995,4.7995,4.8172,4.8324,4.8324,4.8324,4.8324,4.8324,4.8324,4.8324,4.8324,4.8324,4.8324,-3.8707,-3.8707,-3.8707,-3.8707,-3.8719,-3.8913,-3.8971,-3.9036,-3.9414,-3.9249,-3.8707,-3.8781,-3.8835,-3.8851,-3.9219,-3.9507,-3.9785,-4.0062,-4.0302,-4.0425,-4.0457,-4.0508,-4.087,-4.1547,-4.2516,-4.3475,-4.4353,-4.5098,-4.5414,-4.537,-4.4571,-4.2886,-4.141,-4.0029,-3.8532,-3.7042,-3.2193,-2.7924,-2.4723,-2.1671,-1.9043,-1.6772,-1.2987,-0.9425,-0.7217,-0.4476,-0.0804,0.1108,0.2812,0.5099,0.66,0.8297,1.0672,1.1263,1.2501,1.4766,1.6195,1.7409,2.0008,2.0755,2.1203,2.212,2.2862,2.295,2.294,2.3357,2.4382,2.5546,2.6637,2.7706,2.8858,2.9275,2.9754,2.9998,3.0139,3.0771,3.1669,3.2707,3.3696,3.528,3.6661,3.7626,3.9032,3.9295,3.9495,4.0085,4.0493,4.0679,4.1119,4.2033,4.254,4.2712,4.3195,4.3778,4.444,4.4626,4.5746,4.6713,4.6668,4.6888,4.7565,4.7954,4.8194,4.8324,4.8324,4.8324,4.8324,4.8324,4.8324,4.8324,4.8324,4.8324,4.8324,4.8324,4.8324,-3.8707,-3.8707,-3.8707,-3.8773,-3.8886,-3.9017,-3.908,-3.9133,-3.9314,-3.9109,-3.8719,-3.8707,-3.8707,-3.8756,-3.9001,-3.9221,-3.9408,-3.9735,-4.0043,-4.0267,-4.0392,-4.0425,-4.0761,-4.1247,-4.2168,-4.3161,-4.4082,-4.4824,-4.5371,-4.5293,-4.4598,-4.3225,-4.2145,-4.0926,-3.9478,-3.8012,-3.5477,-3.1221,-2.7572,-2.4591,-2.2236,-1.9881,-1.5524,-1.1025,-0.903,-0.5447,0.0,0.0,0.2808,0.5386,0.6982,0.8765,1.1424,1.27,1.41,1.6268,1.7316,1.8708,2.0747,2.1203,2.2003,2.2736,2.3212,2.3724,2.3714,2.4059,2.4638,2.5473,2.6224,2.6976,2.8028,2.9003,2.9716,3.0355,3.0784,3.1267,3.2294,3.3309,3.4845,3.6507,3.7616,3.8509,3.9086,3.9193,3.9437,3.9986,4.0223,4.0273,4.0646,4.1288,4.1711,4.188,4.2465,4.3117,4.3776,4.4418,4.5194,4.5853,4.5917,4.63,4.7236,4.7682,4.7774,4.8031,4.8324,4.8233,4.8049,4.8269,4.8324,4.8269,4.8251,4.8288,4.8288,4.8324,4.8324,-3.8707,-3.8707,-3.8707,-3.8818,-3.9059,-3.9053,-3.9063,-3.9072,-3.9063,-3.8952,-3.8719,-3.8707,-3.8707,-3.8744,-3.8903,-3.905,-3.9242,-3.951,-3.9861,-4.0101,-4.0232,-4.0339,-4.0476,-4.0754,-4.1697,-4.271,-4.3613,-4.4375,-4.5566,-4.5664,-4.4948,-4.3431,-4.3014,-4.1988,-4.0543,-3.9671,-3.7776,-3.5507,-3.1931,-2.8812,-2.5777,-2.2483,-1.8099,-1.1706,-0.9168,0.0,0.0,0.0,0.1908,0.4787,0.6955,0.863,1.2159,1.4214,1.5886,1.7001,1.7957,1.9447,2.0836,2.1569,2.2337,2.2872,2.325,2.4532,2.5052,2.4382,2.4798,2.5797,2.6637,2.7498,2.8536,2.9316,2.9985,3.0709,3.1267,3.2046,3.3087,3.4278,3.5809,3.7247,3.8133,3.8978,3.9558,3.9731,3.9714,4.002,4.0087,4.0087,4.0375,4.0866,4.1053,4.1239,4.1698,4.2373,4.3223,4.3832,4.4299,4.476,4.5165,4.5588,4.6469,4.6948,4.7278,4.737,4.7425,4.7719,4.7737,4.7847,4.7921,4.8012,4.8031,4.8196,4.8214,4.8086,4.8251,-3.8707,-3.8707,-3.8707,-3.8762,-3.8796,-3.8785,-3.8803,-3.8803,-3.8803,-3.8762,-3.8689,-3.8707,-3.8707,-3.8726,-3.8762,-3.8881,-3.9136,-3.9333,-3.9775,-4.0062,-4.0213,-4.0302,-4.0473,-4.0585,-4.1309,-4.2067,-4.2923,-4.3984,-4.5391,-4.582,-4.5781,-4.4958,-4.4325,-4.3188,-4.2263,-4.1445,-4.0121,-3.9001,-3.5645,-3.2579,-2.9761,-2.533,-2.0497,-1.4903,-1.1517,-0.7036,0.0,0.0,0.358,0.7482,0.8542,1.1571,1.594,1.592,1.6397,1.7439,1.8233,1.9521,2.0917,2.2022,2.3066,2.3912,2.4617,2.5859,2.6191,2.5115,2.5041,2.6295,2.7267,2.8116,2.8905,2.9614,3.0432,3.1132,3.1815,3.289,3.3945,3.5409,3.6781,3.7742,3.858,3.9209,3.9901,4.0121,4.0087,4.0087,4.0087,4.0121,4.0286,4.0608,4.0709,4.0861,4.0999,4.1608,4.2559,4.3324,4.3859,4.4574,4.5182,4.5535,4.581,4.6067,4.6342,4.6324,4.6397,4.6764,4.7058,4.7131,4.7241,4.7407,4.7572,4.7627,4.7498,4.7352,4.7774,-3.8707,-3.8707,-3.8707,-3.8707,-3.8707,-3.8707,-3.8707,-3.8707,-3.8707,-3.8707,-3.8707,-3.8707,-3.8707,-3.8707,-3.8707,-3.8732,-3.8952,-3.91,-3.9451,-3.9819,-4.0024,-4.0267,-4.0372,-4.0422,-4.1158,-4.187,-4.2948,-4.4141,-4.5312,-4.5703,-4.5683,-4.5312,-4.4844,-4.4413,-4.3771,-4.277,-4.2316,-4.2005,-3.84,-3.5968,-3.3479,-2.9101,-2.4324,-1.8974,-1.4046,-0.9157,-0.4975,-0.1881,0.2694,0.7186,0.9413,1.3649,1.7015,1.781,1.7902,1.8464,1.9174,1.9768,2.1185,2.2473,2.379,2.4798,2.4967,2.5786,2.8108,2.7197,2.6521,2.7522,2.7602,2.8299,2.9269,3.0025,3.1462,3.2478,3.3073,3.3901,3.5215,3.6675,3.793,3.8962,3.9489,3.961,4.0154,4.0449,4.0417,4.0204,4.0171,4.0204,4.0368,4.0625,4.0625,4.075,4.1087,4.1331,4.2079,4.284,4.349,4.429,4.5021,4.5039,4.5039,4.5241,4.5388,4.5571,4.5773,4.603,4.6269,4.6342,4.6434,4.6562,4.6783,4.6966,4.6783,4.6581,4.6783,-3.8707,-3.8707,-3.8707,-3.8707,-3.8707,-3.8707,-3.8707,-3.8707,-3.8707,-3.8707,-3.8707,-3.8707,-3.8707,-3.8707,-3.8707,-3.8707,-3.8762,-3.8942,-3.9216,-3.9277,-3.9453,-3.9561,-3.9773,-4.008,-4.0537,-4.1552,-4.2783,-4.3835,-4.4922,-4.5254,-4.5312,-4.4941,-4.4707,-4.4452,-4.3787,-4.3421,-4.337,-4.2811,-4.0915,-3.9731,-3.6831,-3.3227,-2.7987,-2.3099,-1.805,-1.301,-0.8393,-0.3592,0.0898,0.592,1.0637,1.4678,1.7597,1.8784,1.894,1.9306,2.0116,2.0558,2.1302,2.2306,2.419,2.5473,2.5221,2.6295,2.8609,2.9106,2.8426,2.8255,2.8347,2.8929,2.9897,3.0641,3.2136,3.3725,3.4321,3.4838,3.6292,3.7674,3.8761,3.9833,3.9952,4.0003,4.0269,4.0559,4.0655,4.0417,4.0368,4.0368,4.0497,4.0844,4.1013,4.1313,4.169,4.1913,4.2092,4.2503,4.3266,4.3615,4.4213,4.4232,4.4287,4.4452,4.4727,4.5131,4.5333,4.5241,4.5388,4.5516,4.5626,4.5736,4.6177,4.6379,4.592,4.5736,4.5626,-3.8707,-3.8707,-3.8707,-3.8707,-3.8707,-3.8707,-3.8707,-3.8707,-3.8658,-3.8707,-3.8658,-3.8689,-3.8707,-3.8707,-3.8707,-3.8707,-3.8719,-3.8844,-3.8704,-3.8662,-3.8912,-3.8827,-3.8805,-3.9057,-3.928,-4.0454,-4.1911,-4.302,-4.4093,-4.4715,-4.5195,-4.5312,-4.5391,-4.5384,-4.5534,-4.5026,-4.4288,-4.3637,-4.2727,-4.1339,-3.9707,-3.5618,-3.0334,-2.4736,-1.8716,-1.356,-0.8478,-0.314,0.1385,0.6471,1.179,1.5239,1.7675,1.9356,2.0,1.9679,2.0576,2.0764,2.1311,2.2315,2.4114,2.6058,2.6141,2.6964,2.87,2.9611,2.9275,2.9275,2.9561,3.0342,3.114,3.1201,3.2307,3.4336,3.5449,3.5915,3.6767,3.7889,3.8908,3.9489,3.9782,3.9952,4.0171,4.0497,4.092,4.0797,4.0874,4.092,4.092,4.1178,4.1446,4.1835,4.2266,4.2483,4.2655,4.2616,4.3085,4.3322,4.3516,4.3754,4.3828,4.3681,4.3956,4.4415,4.4287,4.4066,4.4287,4.4745,4.4819,4.5021,4.5645,4.5828,4.5278,4.4911,4.48]}]]